<?xml version="1.0" encoding="UTF-8" standalone="no" ?><gpx xmlns="http://www.topografix.com/GPX/1/1" xmlns:gpxx="http://www.garmin.com/xmlschemas/GpxExtensions/v3" xmlns:wptx1="http://www.garmin.com/xmlschemas/WaypointExtension/v1" xmlns:gpxtpx="http://www.garmin.com/xmlschemas/TrackPointExtension/v1" creator="GuideVTT.com" version="1.1" xmlns:xsi="http://www.w3.org/2001/XMLSchema-instance" xsi:schemaLocation="http://www.topografix.com/GPX/1/1 http://www.topografix.com/GPX/1/1/gpx.xsd http://www.garmin.com/xmlschemas/GpxExtensions/v3 http://www8.garmin.com/xmlschemas/GpxExtensionsv3.xsd http://www.garmin.com/xmlschemas/WaypointExtension/v1 http://www8.garmin.com/xmlschemas/WaypointExtensionv1.xsd http://www.garmin.com/xmlschemas/TrackPointExtension/v1 http://www.garmin.com/xmlschemas/TrackPointExtensionv1.xsd">
<metadata><link href="http://www.garmin.com"><text>Garmin International</text></link><time>2013-06-22T15:13:50Z</time></metadata>
<trk><name>rp2020-14.gpx</name><extensions><gpxx:TrackExtension><gpxx:DisplayColor>Cyan</gpxx:DisplayColor></gpxx:TrackExtension></extensions><trkseg>
<trkpt lat="46.60035" lon="6.36947"><ele></ele><time>2020-7-27T21:53:50Z</time></trkpt>
<trkpt lat="46.60035" lon="6.36947"><ele></ele><time>2020-7-27T21:53:53Z</time></trkpt>
<trkpt lat="46.6004" lon="6.36933"><ele></ele><time>2020-7-27T21:53:56Z</time></trkpt>
<trkpt lat="46.60042" lon="6.36921"><ele></ele><time>2020-7-27T21:53:59Z</time></trkpt>
<trkpt lat="46.60043" lon="6.36893"><ele></ele><time>2020-7-27T21:54:2Z</time></trkpt>
<trkpt lat="46.60044" lon="6.36881"><ele></ele><time>2020-7-27T21:54:5Z</time></trkpt>
<trkpt lat="46.60044" lon="6.36872"><ele></ele><time>2020-7-27T21:54:8Z</time></trkpt>
<trkpt lat="46.60045" lon="6.36849"><ele></ele><time>2020-7-27T21:54:11Z</time></trkpt>
<trkpt lat="46.60046" lon="6.36838"><ele></ele><time>2020-7-27T21:54:14Z</time></trkpt>
<trkpt lat="46.60047" lon="6.36822"><ele></ele><time>2020-7-27T21:54:17Z</time></trkpt>
<trkpt lat="46.60049" lon="6.36795"><ele></ele><time>2020-7-27T21:54:20Z</time></trkpt>
<trkpt lat="46.60052" lon="6.36767"><ele></ele><time>2020-7-27T21:54:23Z</time></trkpt>
<trkpt lat="46.60055" lon="6.36739"><ele></ele><time>2020-7-27T21:54:26Z</time></trkpt>
<trkpt lat="46.60057" lon="6.36729"><ele></ele><time>2020-7-27T21:54:29Z</time></trkpt>
<trkpt lat="46.60061" lon="6.36701"><ele></ele><time>2020-7-27T21:54:32Z</time></trkpt>
<trkpt lat="46.60064" lon="6.36672"><ele></ele><time>2020-7-27T21:54:35Z</time></trkpt>
<trkpt lat="46.60066" lon="6.36651"><ele></ele><time>2020-7-27T21:54:38Z</time></trkpt>
<trkpt lat="46.60067" lon="6.36641"><ele></ele><time>2020-7-27T21:54:41Z</time></trkpt>
<trkpt lat="46.6007" lon="6.3662"><ele></ele><time>2020-7-27T21:54:44Z</time></trkpt>
<trkpt lat="46.60072" lon="6.36613"><ele></ele><time>2020-7-27T21:54:47Z</time></trkpt>
<trkpt lat="46.60077" lon="6.36593"><ele></ele><time>2020-7-27T21:54:50Z</time></trkpt>
<trkpt lat="46.6008" lon="6.36562"><ele></ele><time>2020-7-27T21:54:53Z</time></trkpt>
<trkpt lat="46.60082" lon="6.36558"><ele></ele><time>2020-7-27T21:54:56Z</time></trkpt>
<trkpt lat="46.60084" lon="6.36545"><ele></ele><time>2020-7-27T21:54:59Z</time></trkpt>
<trkpt lat="46.60086" lon="6.36537"><ele></ele><time>2020-7-27T21:55:2Z</time></trkpt>
<trkpt lat="46.60083" lon="6.3655"><ele></ele><time>2020-7-27T21:55:5Z</time></trkpt>
<trkpt lat="46.60078" lon="6.36579"><ele></ele><time>2020-7-27T21:55:8Z</time></trkpt>
<trkpt lat="46.60071" lon="6.36607"><ele></ele><time>2020-7-27T21:55:11Z</time></trkpt>
<trkpt lat="46.6007" lon="6.3663"><ele></ele><time>2020-7-27T21:55:14Z</time></trkpt>
<trkpt lat="46.60069" lon="6.36637"><ele></ele><time>2020-7-27T21:55:17Z</time></trkpt>
<trkpt lat="46.60067" lon="6.36658"><ele></ele><time>2020-7-27T21:55:20Z</time></trkpt>
<trkpt lat="46.60064" lon="6.3669"><ele></ele><time>2020-7-27T21:55:23Z</time></trkpt>
<trkpt lat="46.60059" lon="6.36714"><ele></ele><time>2020-7-27T21:55:26Z</time></trkpt>
<trkpt lat="46.60058" lon="6.36722"><ele></ele><time>2020-7-27T21:55:29Z</time></trkpt>
<trkpt lat="46.60054" lon="6.36745"><ele></ele><time>2020-7-27T21:55:32Z</time></trkpt>
<trkpt lat="46.60051" lon="6.36771"><ele></ele><time>2020-7-27T21:55:35Z</time></trkpt>
<trkpt lat="46.60049" lon="6.36785"><ele></ele><time>2020-7-27T21:55:38Z</time></trkpt>
<trkpt lat="46.60048" lon="6.36793"><ele></ele><time>2020-7-27T21:55:41Z</time></trkpt>
<trkpt lat="46.60049" lon="6.36819"><ele></ele><time>2020-7-27T21:55:44Z</time></trkpt>
<trkpt lat="46.60046" lon="6.36847"><ele></ele><time>2020-7-27T21:55:47Z</time></trkpt>
<trkpt lat="46.60046" lon="6.36875"><ele></ele><time>2020-7-27T21:55:50Z</time></trkpt>
<trkpt lat="46.60045" lon="6.36883"><ele></ele><time>2020-7-27T21:55:53Z</time></trkpt>
<trkpt lat="46.60044" lon="6.36916"><ele></ele><time>2020-7-27T21:55:56Z</time></trkpt>
<trkpt lat="46.60041" lon="6.36943"><ele></ele><time>2020-7-27T21:55:59Z</time></trkpt>
<trkpt lat="46.60039" lon="6.36947"><ele></ele><time>2020-7-27T21:56:2Z</time></trkpt>
<trkpt lat="46.60038" lon="6.36949"><ele></ele><time>2020-7-27T21:56:5Z</time></trkpt>
<trkpt lat="46.60037" lon="6.36948"><ele></ele><time>2020-7-27T21:56:8Z</time></trkpt>
<trkpt lat="46.60037" lon="6.36948"><ele></ele><time>2020-7-27T21:56:11Z</time></trkpt>
<trkpt lat="46.60036" lon="6.36948"><ele></ele><time>2020-7-27T21:56:14Z</time></trkpt>
<trkpt lat="46.60036" lon="6.36947"><ele></ele><time>2020-7-27T21:56:17Z</time></trkpt>
<trkpt lat="46.60036" lon="6.36949"><ele></ele><time>2020-7-27T21:56:20Z</time></trkpt>
<trkpt lat="46.60036" lon="6.36948"><ele></ele><time>2020-7-27T21:56:23Z</time></trkpt>
<trkpt lat="46.60036" lon="6.36948"><ele></ele><time>2020-7-27T21:56:26Z</time></trkpt>
<trkpt lat="46.60035" lon="6.36949"><ele></ele><time>2020-7-27T21:56:29Z</time></trkpt>
<trkpt lat="46.60036" lon="6.36949"><ele></ele><time>2020-7-27T21:56:32Z</time></trkpt>
<trkpt lat="46.60035" lon="6.36949"><ele></ele><time>2020-7-27T21:56:35Z</time></trkpt>
<trkpt lat="46.60037" lon="6.36949"><ele></ele><time>2020-7-27T21:56:38Z</time></trkpt>
<trkpt lat="46.60037" lon="6.36948"><ele></ele><time>2020-7-27T21:56:41Z</time></trkpt>
<trkpt lat="46.60036" lon="6.36948"><ele></ele><time>2020-7-27T21:56:44Z</time></trkpt>
<trkpt lat="46.60036" lon="6.36948"><ele></ele><time>2020-7-27T21:56:47Z</time></trkpt>
<trkpt lat="46.60036" lon="6.36948"><ele></ele><time>2020-7-27T21:56:50Z</time></trkpt>
<trkpt lat="46.60037" lon="6.36947"><ele></ele><time>2020-7-27T21:56:53Z</time></trkpt>
<trkpt lat="46.60037" lon="6.36947"><ele></ele><time>2020-7-27T21:56:56Z</time></trkpt>
<trkpt lat="46.60037" lon="6.36947"><ele></ele><time>2020-7-27T21:56:59Z</time></trkpt>
<trkpt lat="46.60037" lon="6.36947"><ele></ele><time>2020-7-27T21:57:2Z</time></trkpt>
<trkpt lat="46.60036" lon="6.36947"><ele></ele><time>2020-7-27T21:57:5Z</time></trkpt>
<trkpt lat="46.60036" lon="6.36948"><ele></ele><time>2020-7-27T21:57:8Z</time></trkpt>
<trkpt lat="46.60036" lon="6.36952"><ele></ele><time>2020-7-27T21:57:11Z</time></trkpt>
<trkpt lat="46.60036" lon="6.36952"><ele></ele><time>2020-7-27T21:57:14Z</time></trkpt>
<trkpt lat="46.60037" lon="6.36951"><ele></ele><time>2020-7-27T21:57:17Z</time></trkpt>
<trkpt lat="46.60037" lon="6.36951"><ele></ele><time>2020-7-27T21:57:20Z</time></trkpt>
<trkpt lat="46.60037" lon="6.36951"><ele></ele><time>2020-7-27T21:57:23Z</time></trkpt>
<trkpt lat="46.60037" lon="6.36951"><ele></ele><time>2020-7-27T21:57:26Z</time></trkpt>
<trkpt lat="46.60036" lon="6.36951"><ele></ele><time>2020-7-27T21:57:29Z</time></trkpt>
<trkpt lat="46.60034" lon="6.3695"><ele></ele><time>2020-7-27T21:57:32Z</time></trkpt>
<trkpt lat="46.60034" lon="6.3695"><ele></ele><time>2020-7-27T21:57:35Z</time></trkpt>
<trkpt lat="46.60034" lon="6.36948"><ele></ele><time>2020-7-27T21:57:38Z</time></trkpt>
<trkpt lat="46.6004" lon="6.36953"><ele></ele><time>2020-7-27T21:57:41Z</time></trkpt>
<trkpt lat="46.60042" lon="6.36941"><ele></ele><time>2020-7-27T21:57:44Z</time></trkpt>
<trkpt lat="46.60043" lon="6.36933"><ele></ele><time>2020-7-27T21:57:47Z</time></trkpt>
<trkpt lat="46.60043" lon="6.36921"><ele></ele><time>2020-7-27T21:57:50Z</time></trkpt>
<trkpt lat="46.60043" lon="6.36913"><ele></ele><time>2020-7-27T21:57:53Z</time></trkpt>
<trkpt lat="46.60044" lon="6.36907"><ele></ele><time>2020-7-27T21:57:56Z</time></trkpt>
<trkpt lat="46.60044" lon="6.36904"><ele></ele><time>2020-7-27T21:57:59Z</time></trkpt>
<trkpt lat="46.60044" lon="6.36891"><ele></ele><time>2020-7-27T21:58:2Z</time></trkpt>
<trkpt lat="46.60044" lon="6.36886"><ele></ele><time>2020-7-27T21:58:5Z</time></trkpt>
<trkpt lat="46.60045" lon="6.36873"><ele></ele><time>2020-7-27T21:58:8Z</time></trkpt>
<trkpt lat="46.60046" lon="6.36846"><ele></ele><time>2020-7-27T21:58:11Z</time></trkpt>
<trkpt lat="46.60048" lon="6.36821"><ele></ele><time>2020-7-27T21:58:14Z</time></trkpt>
<trkpt lat="46.60049" lon="6.36794"><ele></ele><time>2020-7-27T21:58:17Z</time></trkpt>
<trkpt lat="46.60051" lon="6.36784"><ele></ele><time>2020-7-27T21:58:20Z</time></trkpt>
<trkpt lat="46.60051" lon="6.36782"><ele></ele><time>2020-7-27T21:58:23Z</time></trkpt>
<trkpt lat="46.60053" lon="6.36764"><ele></ele><time>2020-7-27T21:58:26Z</time></trkpt>
<trkpt lat="46.60055" lon="6.36738"><ele></ele><time>2020-7-27T21:58:29Z</time></trkpt>
<trkpt lat="46.60063" lon="6.36714"><ele></ele><time>2020-7-27T21:58:32Z</time></trkpt>
<trkpt lat="46.60065" lon="6.36693"><ele></ele><time>2020-7-27T21:58:35Z</time></trkpt>
<trkpt lat="46.60069" lon="6.36665"><ele></ele><time>2020-7-27T21:58:38Z</time></trkpt>
<trkpt lat="46.60069" lon="6.36659"><ele></ele><time>2020-7-27T21:58:41Z</time></trkpt>
<trkpt lat="46.60072" lon="6.36631"><ele></ele><time>2020-7-27T21:58:44Z</time></trkpt>
<trkpt lat="46.60075" lon="6.36617"><ele></ele><time>2020-7-27T21:58:47Z</time></trkpt>
<trkpt lat="46.60077" lon="6.36604"><ele></ele><time>2020-7-27T21:58:50Z</time></trkpt>
<trkpt lat="46.60079" lon="6.36576"><ele></ele><time>2020-7-27T21:58:53Z</time></trkpt>
<trkpt lat="46.60078" lon="6.36559"><ele></ele><time>2020-7-27T21:58:56Z</time></trkpt>
<trkpt lat="46.60079" lon="6.36552"><ele></ele><time>2020-7-27T21:58:59Z</time></trkpt>
<trkpt lat="46.6008" lon="6.36549"><ele></ele><time>2020-7-27T21:59:2Z</time></trkpt>
<trkpt lat="46.60084" lon="6.36532"><ele></ele><time>2020-7-27T21:59:5Z</time></trkpt>
<trkpt lat="46.60088" lon="6.36515"><ele></ele><time>2020-7-27T21:59:8Z</time></trkpt>
<trkpt lat="46.6009" lon="6.36501"><ele></ele><time>2020-7-27T21:59:11Z</time></trkpt>
<trkpt lat="46.60095" lon="6.36475"><ele></ele><time>2020-7-27T21:59:14Z</time></trkpt>
<trkpt lat="46.60102" lon="6.36454"><ele></ele><time>2020-7-27T21:59:17Z</time></trkpt>
<trkpt lat="46.60109" lon="6.36429"><ele></ele><time>2020-7-27T21:59:20Z</time></trkpt>
<trkpt lat="46.60112" lon="6.36408"><ele></ele><time>2020-7-27T21:59:23Z</time></trkpt>
<trkpt lat="46.60113" lon="6.36392"><ele></ele><time>2020-7-27T21:59:26Z</time></trkpt>
<trkpt lat="46.60109" lon="6.36372"><ele></ele><time>2020-7-27T21:59:29Z</time></trkpt>
<trkpt lat="46.60103" lon="6.3636"><ele></ele><time>2020-7-27T21:59:32Z</time></trkpt>
<trkpt lat="46.60102" lon="6.3636"><ele></ele><time>2020-7-27T21:59:35Z</time></trkpt>
<trkpt lat="46.601" lon="6.3636"><ele></ele><time>2020-7-27T21:59:38Z</time></trkpt>
<trkpt lat="46.60095" lon="6.36361"><ele></ele><time>2020-7-27T21:59:41Z</time></trkpt>
<trkpt lat="46.60088" lon="6.36365"><ele></ele><time>2020-7-27T21:59:44Z</time></trkpt>
<trkpt lat="46.60077" lon="6.36374"><ele></ele><time>2020-7-27T21:59:47Z</time></trkpt>
<trkpt lat="46.60071" lon="6.36379"><ele></ele><time>2020-7-27T21:59:50Z</time></trkpt>
<trkpt lat="46.60063" lon="6.36388"><ele></ele><time>2020-7-27T21:59:53Z</time></trkpt>
<trkpt lat="46.60062" lon="6.36391"><ele></ele><time>2020-7-27T21:59:56Z</time></trkpt>
<trkpt lat="46.60046" lon="6.36405"><ele></ele><time>2020-7-27T21:59:59Z</time></trkpt>
<trkpt lat="46.60038" lon="6.3641"><ele></ele><time>2020-7-27T22:0:2Z</time></trkpt>
<trkpt lat="46.60019" lon="6.36406"><ele></ele><time>2020-7-27T22:0:5Z</time></trkpt>
<trkpt lat="46.59995" lon="6.36411"><ele></ele><time>2020-7-27T22:0:8Z</time></trkpt>
<trkpt lat="46.5998" lon="6.36424"><ele></ele><time>2020-7-27T22:0:11Z</time></trkpt>
<trkpt lat="46.59972" lon="6.36436"><ele></ele><time>2020-7-27T22:0:14Z</time></trkpt>
<trkpt lat="46.59966" lon="6.3645"><ele></ele><time>2020-7-27T22:0:17Z</time></trkpt>
<trkpt lat="46.59963" lon="6.36457"><ele></ele><time>2020-7-27T22:0:20Z</time></trkpt>
<trkpt lat="46.59959" lon="6.36465"><ele></ele><time>2020-7-27T22:0:23Z</time></trkpt>
<trkpt lat="46.59951" lon="6.36478"><ele></ele><time>2020-7-27T22:0:26Z</time></trkpt>
<trkpt lat="46.59939" lon="6.3649"><ele></ele><time>2020-7-27T22:0:29Z</time></trkpt>
<trkpt lat="46.59932" lon="6.36499"><ele></ele><time>2020-7-27T22:0:32Z</time></trkpt>
<trkpt lat="46.59919" lon="6.36519"><ele></ele><time>2020-7-27T22:0:35Z</time></trkpt>
<trkpt lat="46.59904" lon="6.36532"><ele></ele><time>2020-7-27T22:0:38Z</time></trkpt>
<trkpt lat="46.59888" lon="6.3652"><ele></ele><time>2020-7-27T22:0:41Z</time></trkpt>
<trkpt lat="46.59876" lon="6.36505"><ele></ele><time>2020-7-27T22:0:44Z</time></trkpt>
<trkpt lat="46.59865" lon="6.36487"><ele></ele><time>2020-7-27T22:0:47Z</time></trkpt>
<trkpt lat="46.59855" lon="6.36475"><ele></ele><time>2020-7-27T22:0:50Z</time></trkpt>
<trkpt lat="46.59854" lon="6.36474"><ele></ele><time>2020-7-27T22:0:53Z</time></trkpt>
<trkpt lat="46.5984" lon="6.36455"><ele></ele><time>2020-7-27T22:0:56Z</time></trkpt>
<trkpt lat="46.59832" lon="6.36442"><ele></ele><time>2020-7-27T22:0:59Z</time></trkpt>
<trkpt lat="46.5982" lon="6.36421"><ele></ele><time>2020-7-27T22:1:2Z</time></trkpt>
<trkpt lat="46.59811" lon="6.36398"><ele></ele><time>2020-7-27T22:1:5Z</time></trkpt>
<trkpt lat="46.59795" lon="6.36369"><ele></ele><time>2020-7-27T22:1:8Z</time></trkpt>
<trkpt lat="46.59789" lon="6.36361"><ele></ele><time>2020-7-27T22:1:11Z</time></trkpt>
<trkpt lat="46.59775" lon="6.36342"><ele></ele><time>2020-7-27T22:1:14Z</time></trkpt>
<trkpt lat="46.59766" lon="6.36319"><ele></ele><time>2020-7-27T22:1:17Z</time></trkpt>
<trkpt lat="46.59758" lon="6.36295"><ele></ele><time>2020-7-27T22:1:20Z</time></trkpt>
<trkpt lat="46.59754" lon="6.36275"><ele></ele><time>2020-7-27T22:1:23Z</time></trkpt>
<trkpt lat="46.59752" lon="6.36268"><ele></ele><time>2020-7-27T22:1:26Z</time></trkpt>
<trkpt lat="46.59744" lon="6.36244"><ele></ele><time>2020-7-27T22:1:29Z</time></trkpt>
<trkpt lat="46.59731" lon="6.36229"><ele></ele><time>2020-7-27T22:1:32Z</time></trkpt>
<trkpt lat="46.59713" lon="6.36228"><ele></ele><time>2020-7-27T22:1:35Z</time></trkpt>
<trkpt lat="46.59695" lon="6.36226"><ele></ele><time>2020-7-27T22:1:38Z</time></trkpt>
<trkpt lat="46.59684" lon="6.36222"><ele></ele><time>2020-7-27T22:1:41Z</time></trkpt>
<trkpt lat="46.59665" lon="6.36212"><ele></ele><time>2020-7-27T22:1:44Z</time></trkpt>
<trkpt lat="46.59659" lon="6.36202"><ele></ele><time>2020-7-27T22:1:47Z</time></trkpt>
<trkpt lat="46.59658" lon="6.36192"><ele></ele><time>2020-7-27T22:1:50Z</time></trkpt>
<trkpt lat="46.59658" lon="6.36189"><ele></ele><time>2020-7-27T22:1:53Z</time></trkpt>
<trkpt lat="46.59664" lon="6.36182"><ele></ele><time>2020-7-27T22:1:56Z</time></trkpt>
<trkpt lat="46.59686" lon="6.36179"><ele></ele><time>2020-7-27T22:1:59Z</time></trkpt>
<trkpt lat="46.5969" lon="6.3618"><ele></ele><time>2020-7-27T22:2:2Z</time></trkpt>
<trkpt lat="46.59707" lon="6.36176"><ele></ele><time>2020-7-27T22:2:5Z</time></trkpt>
<trkpt lat="46.59718" lon="6.36178"><ele></ele><time>2020-7-27T22:2:8Z</time></trkpt>
<trkpt lat="46.59736" lon="6.36175"><ele></ele><time>2020-7-27T22:2:11Z</time></trkpt>
<trkpt lat="46.59755" lon="6.36173"><ele></ele><time>2020-7-27T22:2:14Z</time></trkpt>
<trkpt lat="46.59757" lon="6.36173"><ele></ele><time>2020-7-27T22:2:17Z</time></trkpt>
<trkpt lat="46.59775" lon="6.36178"><ele></ele><time>2020-7-27T22:2:20Z</time></trkpt>
<trkpt lat="46.59785" lon="6.36177"><ele></ele><time>2020-7-27T22:2:23Z</time></trkpt>
<trkpt lat="46.59788" lon="6.36179"><ele></ele><time>2020-7-27T22:2:26Z</time></trkpt>
<trkpt lat="46.5979" lon="6.36179"><ele></ele><time>2020-7-27T22:2:29Z</time></trkpt>
<trkpt lat="46.59795" lon="6.3618"><ele></ele><time>2020-7-27T22:2:32Z</time></trkpt>
<trkpt lat="46.5981" lon="6.3618"><ele></ele><time>2020-7-27T22:2:35Z</time></trkpt>
<trkpt lat="46.5982" lon="6.36177"><ele></ele><time>2020-7-27T22:2:38Z</time></trkpt>
<trkpt lat="46.5984" lon="6.36176"><ele></ele><time>2020-7-27T22:2:41Z</time></trkpt>
<trkpt lat="46.59856" lon="6.36161"><ele></ele><time>2020-7-27T22:2:44Z</time></trkpt>
<trkpt lat="46.59869" lon="6.36129"><ele></ele><time>2020-7-27T22:2:47Z</time></trkpt>
<trkpt lat="46.59874" lon="6.36118"><ele></ele><time>2020-7-27T22:2:50Z</time></trkpt>
<trkpt lat="46.59876" lon="6.36107"><ele></ele><time>2020-7-27T22:2:53Z</time></trkpt>
<trkpt lat="46.59883" lon="6.36081"><ele></ele><time>2020-7-27T22:2:56Z</time></trkpt>
<trkpt lat="46.59889" lon="6.36054"><ele></ele><time>2020-7-27T22:2:59Z</time></trkpt>
<trkpt lat="46.59897" lon="6.3603"><ele></ele><time>2020-7-27T22:3:2Z</time></trkpt>
<trkpt lat="46.59907" lon="6.36008"><ele></ele><time>2020-7-27T22:3:5Z</time></trkpt>
<trkpt lat="46.59919" lon="6.35976"><ele></ele><time>2020-7-27T22:3:8Z</time></trkpt>
<trkpt lat="46.59932" lon="6.35957"><ele></ele><time>2020-7-27T22:3:11Z</time></trkpt>
<trkpt lat="46.59945" lon="6.35938"><ele></ele><time>2020-7-27T22:3:14Z</time></trkpt>
<trkpt lat="46.59954" lon="6.35913"><ele></ele><time>2020-7-27T22:3:17Z</time></trkpt>
<trkpt lat="46.59964" lon="6.35891"><ele></ele><time>2020-7-27T22:3:20Z</time></trkpt>
<trkpt lat="46.59975" lon="6.35876"><ele></ele><time>2020-7-27T22:3:23Z</time></trkpt>
<trkpt lat="46.59978" lon="6.35875"><ele></ele><time>2020-7-27T22:3:26Z</time></trkpt>
<trkpt lat="46.59986" lon="6.35888"><ele></ele><time>2020-7-27T22:3:29Z</time></trkpt>
<trkpt lat="46.59993" lon="6.35902"><ele></ele><time>2020-7-27T22:3:32Z</time></trkpt>
<trkpt lat="46.60001" lon="6.35926"><ele></ele><time>2020-7-27T22:3:35Z</time></trkpt>
<trkpt lat="46.60012" lon="6.35939"><ele></ele><time>2020-7-27T22:3:38Z</time></trkpt>
<trkpt lat="46.60019" lon="6.35935"><ele></ele><time>2020-7-27T22:3:41Z</time></trkpt>
<trkpt lat="46.60021" lon="6.35911"><ele></ele><time>2020-7-27T22:3:44Z</time></trkpt>
<trkpt lat="46.60012" lon="6.35897"><ele></ele><time>2020-7-27T22:3:47Z</time></trkpt>
<trkpt lat="46.60007" lon="6.35891"><ele></ele><time>2020-7-27T22:3:50Z</time></trkpt>
<trkpt lat="46.60004" lon="6.35881"><ele></ele><time>2020-7-27T22:3:53Z</time></trkpt>
<trkpt lat="46.60007" lon="6.35854"><ele></ele><time>2020-7-27T22:3:56Z</time></trkpt>
<trkpt lat="46.60016" lon="6.35832"><ele></ele><time>2020-7-27T22:3:59Z</time></trkpt>
<trkpt lat="46.60019" lon="6.35818"><ele></ele><time>2020-7-27T22:4:2Z</time></trkpt>
<trkpt lat="46.60005" lon="6.35808"><ele></ele><time>2020-7-27T22:4:5Z</time></trkpt>
<trkpt lat="46.59995" lon="6.35811"><ele></ele><time>2020-7-27T22:4:8Z</time></trkpt>
<trkpt lat="46.59989" lon="6.35816"><ele></ele><time>2020-7-27T22:4:11Z</time></trkpt>
<trkpt lat="46.59989" lon="6.35816"><ele></ele><time>2020-7-27T22:4:14Z</time></trkpt>
<trkpt lat="46.59979" lon="6.35824"><ele></ele><time>2020-7-27T22:4:17Z</time></trkpt>
<trkpt lat="46.59972" lon="6.35828"><ele></ele><time>2020-7-27T22:4:20Z</time></trkpt>
<trkpt lat="46.59965" lon="6.35833"><ele></ele><time>2020-7-27T22:4:23Z</time></trkpt>
<trkpt lat="46.59962" lon="6.35837"><ele></ele><time>2020-7-27T22:4:26Z</time></trkpt>
<trkpt lat="46.5996" lon="6.35839"><ele></ele><time>2020-7-27T22:4:29Z</time></trkpt>
<trkpt lat="46.59956" lon="6.3584"><ele></ele><time>2020-7-27T22:4:32Z</time></trkpt>
<trkpt lat="46.59945" lon="6.35844"><ele></ele><time>2020-7-27T22:4:35Z</time></trkpt>
<trkpt lat="46.59925" lon="6.35863"><ele></ele><time>2020-7-27T22:4:38Z</time></trkpt>
<trkpt lat="46.5991" lon="6.35878"><ele></ele><time>2020-7-27T22:4:41Z</time></trkpt>
<trkpt lat="46.59893" lon="6.3589"><ele></ele><time>2020-7-27T22:4:44Z</time></trkpt>
<trkpt lat="46.59889" lon="6.35891"><ele></ele><time>2020-7-27T22:4:47Z</time></trkpt>
<trkpt lat="46.5988" lon="6.35892"><ele></ele><time>2020-7-27T22:4:50Z</time></trkpt>
<trkpt lat="46.59877" lon="6.35892"><ele></ele><time>2020-7-27T22:4:53Z</time></trkpt>
<trkpt lat="46.59867" lon="6.35892"><ele></ele><time>2020-7-27T22:4:56Z</time></trkpt>
<trkpt lat="46.59846" lon="6.3589"><ele></ele><time>2020-7-27T22:4:59Z</time></trkpt>
<trkpt lat="46.59827" lon="6.35881"><ele></ele><time>2020-7-27T22:5:2Z</time></trkpt>
<trkpt lat="46.59805" lon="6.35872"><ele></ele><time>2020-7-27T22:5:5Z</time></trkpt>
<trkpt lat="46.59796" lon="6.3587"><ele></ele><time>2020-7-27T22:5:8Z</time></trkpt>
<trkpt lat="46.59778" lon="6.35873"><ele></ele><time>2020-7-27T22:5:11Z</time></trkpt>
<trkpt lat="46.5976" lon="6.35879"><ele></ele><time>2020-7-27T22:5:14Z</time></trkpt>
<trkpt lat="46.59748" lon="6.35872"><ele></ele><time>2020-7-27T22:5:17Z</time></trkpt>
<trkpt lat="46.59751" lon="6.35855"><ele></ele><time>2020-7-27T22:5:20Z</time></trkpt>
<trkpt lat="46.59769" lon="6.35845"><ele></ele><time>2020-7-27T22:5:23Z</time></trkpt>
<trkpt lat="46.59786" lon="6.35837"><ele></ele><time>2020-7-27T22:5:26Z</time></trkpt>
<trkpt lat="46.59803" lon="6.35825"><ele></ele><time>2020-7-27T22:5:29Z</time></trkpt>
<trkpt lat="46.5982" lon="6.35812"><ele></ele><time>2020-7-27T22:5:32Z</time></trkpt>
<trkpt lat="46.59839" lon="6.35785"><ele></ele><time>2020-7-27T22:5:35Z</time></trkpt>
<trkpt lat="46.59849" lon="6.35763"><ele></ele><time>2020-7-27T22:5:38Z</time></trkpt>
<trkpt lat="46.59858" lon="6.35739"><ele></ele><time>2020-7-27T22:5:41Z</time></trkpt>
<trkpt lat="46.59864" lon="6.35719"><ele></ele><time>2020-7-27T22:5:44Z</time></trkpt>
<trkpt lat="46.59866" lon="6.35693"><ele></ele><time>2020-7-27T22:5:47Z</time></trkpt>
<trkpt lat="46.5988" lon="6.35661"><ele></ele><time>2020-7-27T22:5:50Z</time></trkpt>
<trkpt lat="46.5989" lon="6.35638"><ele></ele><time>2020-7-27T22:5:53Z</time></trkpt>
<trkpt lat="46.59906" lon="6.35626"><ele></ele><time>2020-7-27T22:5:56Z</time></trkpt>
<trkpt lat="46.59917" lon="6.35621"><ele></ele><time>2020-7-27T22:5:59Z</time></trkpt>
<trkpt lat="46.59936" lon="6.35618"><ele></ele><time>2020-7-27T22:6:2Z</time></trkpt>
<trkpt lat="46.59937" lon="6.35618"><ele></ele><time>2020-7-27T22:6:5Z</time></trkpt>
<trkpt lat="46.59954" lon="6.35607"><ele></ele><time>2020-7-27T22:6:8Z</time></trkpt>
<trkpt lat="46.59971" lon="6.35595"><ele></ele><time>2020-7-27T22:6:11Z</time></trkpt>
<trkpt lat="46.59994" lon="6.35569"><ele></ele><time>2020-7-27T22:6:14Z</time></trkpt>
<trkpt lat="46.60006" lon="6.35548"><ele></ele><time>2020-7-27T22:6:17Z</time></trkpt>
<trkpt lat="46.60013" lon="6.35538"><ele></ele><time>2020-7-27T22:6:20Z</time></trkpt>
<trkpt lat="46.60024" lon="6.35515"><ele></ele><time>2020-7-27T22:6:23Z</time></trkpt>
<trkpt lat="46.6003" lon="6.3549"><ele></ele><time>2020-7-27T22:6:26Z</time></trkpt>
<trkpt lat="46.60034" lon="6.35484"><ele></ele><time>2020-7-27T22:6:29Z</time></trkpt>
<trkpt lat="46.60041" lon="6.35479"><ele></ele><time>2020-7-27T22:6:32Z</time></trkpt>
<trkpt lat="46.60045" lon="6.35479"><ele></ele><time>2020-7-27T22:6:35Z</time></trkpt>
<trkpt lat="46.60068" lon="6.35498"><ele></ele><time>2020-7-27T22:6:38Z</time></trkpt>
<trkpt lat="46.60082" lon="6.35517"><ele></ele><time>2020-7-27T22:6:41Z</time></trkpt>
<trkpt lat="46.60098" lon="6.35534"><ele></ele><time>2020-7-27T22:6:44Z</time></trkpt>
<trkpt lat="46.60112" lon="6.3555"><ele></ele><time>2020-7-27T22:6:47Z</time></trkpt>
<trkpt lat="46.60129" lon="6.3556"><ele></ele><time>2020-7-27T22:6:50Z</time></trkpt>
<trkpt lat="46.60139" lon="6.3556"><ele></ele><time>2020-7-27T22:6:53Z</time></trkpt>
<trkpt lat="46.60157" lon="6.35547"><ele></ele><time>2020-7-27T22:6:56Z</time></trkpt>
<trkpt lat="46.60162" lon="6.35543"><ele></ele><time>2020-7-27T22:6:59Z</time></trkpt>
<trkpt lat="46.60175" lon="6.35537"><ele></ele><time>2020-7-27T22:7:2Z</time></trkpt>
<trkpt lat="46.60189" lon="6.35551"><ele></ele><time>2020-7-27T22:7:5Z</time></trkpt>
<trkpt lat="46.60196" lon="6.3556"><ele></ele><time>2020-7-27T22:7:8Z</time></trkpt>
<trkpt lat="46.60199" lon="6.35566"><ele></ele><time>2020-7-27T22:7:11Z</time></trkpt>
<trkpt lat="46.60202" lon="6.35571"><ele></ele><time>2020-7-27T22:7:14Z</time></trkpt>
<trkpt lat="46.60217" lon="6.35561"><ele></ele><time>2020-7-27T22:7:17Z</time></trkpt>
<trkpt lat="46.60217" lon="6.35557"><ele></ele><time>2020-7-27T22:7:20Z</time></trkpt>
<trkpt lat="46.60215" lon="6.3555"><ele></ele><time>2020-7-27T22:7:23Z</time></trkpt>
<trkpt lat="46.60204" lon="6.35529"><ele></ele><time>2020-7-27T22:7:26Z</time></trkpt>
<trkpt lat="46.60194" lon="6.35502"><ele></ele><time>2020-7-27T22:7:29Z</time></trkpt>
<trkpt lat="46.60178" lon="6.35487"><ele></ele><time>2020-7-27T22:7:32Z</time></trkpt>
<trkpt lat="46.60168" lon="6.35484"><ele></ele><time>2020-7-27T22:7:35Z</time></trkpt>
<trkpt lat="46.60156" lon="6.35464"><ele></ele><time>2020-7-27T22:7:38Z</time></trkpt>
<trkpt lat="46.6015" lon="6.35439"><ele></ele><time>2020-7-27T22:7:41Z</time></trkpt>
<trkpt lat="46.60146" lon="6.35412"><ele></ele><time>2020-7-27T22:7:44Z</time></trkpt>
<trkpt lat="46.60146" lon="6.35399"><ele></ele><time>2020-7-27T22:7:47Z</time></trkpt>
<trkpt lat="46.60146" lon="6.35374"><ele></ele><time>2020-7-27T22:7:50Z</time></trkpt>
<trkpt lat="46.60137" lon="6.35358"><ele></ele><time>2020-7-27T22:7:53Z</time></trkpt>
<trkpt lat="46.60129" lon="6.35343"><ele></ele><time>2020-7-27T22:7:56Z</time></trkpt>
<trkpt lat="46.60128" lon="6.35329"><ele></ele><time>2020-7-27T22:7:59Z</time></trkpt>
<trkpt lat="46.60118" lon="6.35306"><ele></ele><time>2020-7-27T22:8:2Z</time></trkpt>
<trkpt lat="46.60109" lon="6.35284"><ele></ele><time>2020-7-27T22:8:5Z</time></trkpt>
<trkpt lat="46.60091" lon="6.35284"><ele></ele><time>2020-7-27T22:8:8Z</time></trkpt>
<trkpt lat="46.60082" lon="6.35286"><ele></ele><time>2020-7-27T22:8:11Z</time></trkpt>
<trkpt lat="46.60059" lon="6.35268"><ele></ele><time>2020-7-27T22:8:14Z</time></trkpt>
<trkpt lat="46.60047" lon="6.35247"><ele></ele><time>2020-7-27T22:8:17Z</time></trkpt>
<trkpt lat="46.6004" lon="6.35233"><ele></ele><time>2020-7-27T22:8:20Z</time></trkpt>
<trkpt lat="46.60034" lon="6.35218"><ele></ele><time>2020-7-27T22:8:23Z</time></trkpt>
<trkpt lat="46.60024" lon="6.35196"><ele></ele><time>2020-7-27T22:8:26Z</time></trkpt>
<trkpt lat="46.6002" lon="6.35189"><ele></ele><time>2020-7-27T22:8:29Z</time></trkpt>
<trkpt lat="46.60015" lon="6.35182"><ele></ele><time>2020-7-27T22:8:32Z</time></trkpt>
<trkpt lat="46.60014" lon="6.35182"><ele></ele><time>2020-7-27T22:8:35Z</time></trkpt>
<trkpt lat="46.59999" lon="6.35189"><ele></ele><time>2020-7-27T22:8:38Z</time></trkpt>
<trkpt lat="46.5999" lon="6.3519"><ele></ele><time>2020-7-27T22:8:41Z</time></trkpt>
<trkpt lat="46.59974" lon="6.35195"><ele></ele><time>2020-7-27T22:8:44Z</time></trkpt>
<trkpt lat="46.59969" lon="6.35196"><ele></ele><time>2020-7-27T22:8:47Z</time></trkpt>
<trkpt lat="46.59966" lon="6.35198"><ele></ele><time>2020-7-27T22:8:50Z</time></trkpt>
<trkpt lat="46.59961" lon="6.35203"><ele></ele><time>2020-7-27T22:8:53Z</time></trkpt>
<trkpt lat="46.59956" lon="6.35207"><ele></ele><time>2020-7-27T22:8:56Z</time></trkpt>
<trkpt lat="46.59939" lon="6.35213"><ele></ele><time>2020-7-27T22:8:59Z</time></trkpt>
<trkpt lat="46.59921" lon="6.35221"><ele></ele><time>2020-7-27T22:9:2Z</time></trkpt>
<trkpt lat="46.59903" lon="6.35228"><ele></ele><time>2020-7-27T22:9:5Z</time></trkpt>
<trkpt lat="46.59892" lon="6.35233"><ele></ele><time>2020-7-27T22:9:8Z</time></trkpt>
<trkpt lat="46.59873" lon="6.3524"><ele></ele><time>2020-7-27T22:9:11Z</time></trkpt>
<trkpt lat="46.59862" lon="6.35244"><ele></ele><time>2020-7-27T22:9:14Z</time></trkpt>
<trkpt lat="46.59848" lon="6.35252"><ele></ele><time>2020-7-27T22:9:17Z</time></trkpt>
<trkpt lat="46.5984" lon="6.35256"><ele></ele><time>2020-7-27T22:9:20Z</time></trkpt>
<trkpt lat="46.59824" lon="6.35269"><ele></ele><time>2020-7-27T22:9:23Z</time></trkpt>
<trkpt lat="46.59807" lon="6.35282"><ele></ele><time>2020-7-27T22:9:26Z</time></trkpt>
<trkpt lat="46.59798" lon="6.3529"><ele></ele><time>2020-7-27T22:9:29Z</time></trkpt>
<trkpt lat="46.59783" lon="6.35309"><ele></ele><time>2020-7-27T22:9:32Z</time></trkpt>
<trkpt lat="46.59768" lon="6.35322"><ele></ele><time>2020-7-27T22:9:35Z</time></trkpt>
<trkpt lat="46.59758" lon="6.35327"><ele></ele><time>2020-7-27T22:9:38Z</time></trkpt>
<trkpt lat="46.59752" lon="6.35329"><ele></ele><time>2020-7-27T22:9:41Z</time></trkpt>
<trkpt lat="46.59726" lon="6.35332"><ele></ele><time>2020-7-27T22:9:44Z</time></trkpt>
<trkpt lat="46.59714" lon="6.35328"><ele></ele><time>2020-7-27T22:9:47Z</time></trkpt>
<trkpt lat="46.59698" lon="6.35314"><ele></ele><time>2020-7-27T22:9:50Z</time></trkpt>
<trkpt lat="46.59684" lon="6.35302"><ele></ele><time>2020-7-27T22:9:53Z</time></trkpt>
<trkpt lat="46.59668" lon="6.35289"><ele></ele><time>2020-7-27T22:9:56Z</time></trkpt>
<trkpt lat="46.59651" lon="6.35267"><ele></ele><time>2020-7-27T22:9:59Z</time></trkpt>
<trkpt lat="46.59637" lon="6.35252"><ele></ele><time>2020-7-27T22:10:2Z</time></trkpt>
<trkpt lat="46.59621" lon="6.35239"><ele></ele><time>2020-7-27T22:10:5Z</time></trkpt>
<trkpt lat="46.59606" lon="6.35223"><ele></ele><time>2020-7-27T22:10:8Z</time></trkpt>
<trkpt lat="46.59603" lon="6.35221"><ele></ele><time>2020-7-27T22:10:11Z</time></trkpt>
<trkpt lat="46.59595" lon="6.35214"><ele></ele><time>2020-7-27T22:10:14Z</time></trkpt>
<trkpt lat="46.59583" lon="6.35202"><ele></ele><time>2020-7-27T22:10:17Z</time></trkpt>
<trkpt lat="46.59577" lon="6.35194"><ele></ele><time>2020-7-27T22:10:20Z</time></trkpt>
<trkpt lat="46.59566" lon="6.35181"><ele></ele><time>2020-7-27T22:10:23Z</time></trkpt>
<trkpt lat="46.59551" lon="6.35154"><ele></ele><time>2020-7-27T22:10:26Z</time></trkpt>
<trkpt lat="46.59538" lon="6.35135"><ele></ele><time>2020-7-27T22:10:29Z</time></trkpt>
<trkpt lat="46.5953" lon="6.35123"><ele></ele><time>2020-7-27T22:10:32Z</time></trkpt>
<trkpt lat="46.59519" lon="6.35103"><ele></ele><time>2020-7-27T22:10:35Z</time></trkpt>
<trkpt lat="46.59507" lon="6.35084"><ele></ele><time>2020-7-27T22:10:38Z</time></trkpt>
<trkpt lat="46.59504" lon="6.35079"><ele></ele><time>2020-7-27T22:10:41Z</time></trkpt>
<trkpt lat="46.59499" lon="6.35068"><ele></ele><time>2020-7-27T22:10:44Z</time></trkpt>
<trkpt lat="46.59496" lon="6.35061"><ele></ele><time>2020-7-27T22:10:47Z</time></trkpt>
<trkpt lat="46.59492" lon="6.35034"><ele></ele><time>2020-7-27T22:10:50Z</time></trkpt>
<trkpt lat="46.59485" lon="6.34998"><ele></ele><time>2020-7-27T22:10:53Z</time></trkpt>
<trkpt lat="46.59482" lon="6.34981"><ele></ele><time>2020-7-27T22:10:56Z</time></trkpt>
<trkpt lat="46.59478" lon="6.34956"><ele></ele><time>2020-7-27T22:10:59Z</time></trkpt>
<trkpt lat="46.59479" lon="6.3493"><ele></ele><time>2020-7-27T22:11:2Z</time></trkpt>
<trkpt lat="46.59476" lon="6.34909"><ele></ele><time>2020-7-27T22:11:5Z</time></trkpt>
<trkpt lat="46.5947" lon="6.34895"><ele></ele><time>2020-7-27T22:11:8Z</time></trkpt>
<trkpt lat="46.59458" lon="6.34861"><ele></ele><time>2020-7-27T22:11:11Z</time></trkpt>
<trkpt lat="46.59448" lon="6.34839"><ele></ele><time>2020-7-27T22:11:14Z</time></trkpt>
<trkpt lat="46.59446" lon="6.34835"><ele></ele><time>2020-7-27T22:11:17Z</time></trkpt>
<trkpt lat="46.59444" lon="6.34829"><ele></ele><time>2020-7-27T22:11:20Z</time></trkpt>
<trkpt lat="46.59436" lon="6.34811"><ele></ele><time>2020-7-27T22:11:23Z</time></trkpt>
<trkpt lat="46.59425" lon="6.3479"><ele></ele><time>2020-7-27T22:11:26Z</time></trkpt>
<trkpt lat="46.59404" lon="6.34772"><ele></ele><time>2020-7-27T22:11:29Z</time></trkpt>
<trkpt lat="46.59391" lon="6.34757"><ele></ele><time>2020-7-27T22:11:32Z</time></trkpt>
<trkpt lat="46.59381" lon="6.34734"><ele></ele><time>2020-7-27T22:11:35Z</time></trkpt>
<trkpt lat="46.59372" lon="6.34713"><ele></ele><time>2020-7-27T22:11:38Z</time></trkpt>
<trkpt lat="46.59367" lon="6.347"><ele></ele><time>2020-7-27T22:11:41Z</time></trkpt>
<trkpt lat="46.59362" lon="6.34689"><ele></ele><time>2020-7-27T22:11:44Z</time></trkpt>
<trkpt lat="46.59359" lon="6.34674"><ele></ele><time>2020-7-27T22:11:47Z</time></trkpt>
<trkpt lat="46.59357" lon="6.34669"><ele></ele><time>2020-7-27T22:11:50Z</time></trkpt>
<trkpt lat="46.59352" lon="6.3465"><ele></ele><time>2020-7-27T22:11:53Z</time></trkpt>
<trkpt lat="46.5934" lon="6.3463"><ele></ele><time>2020-7-27T22:11:56Z</time></trkpt>
<trkpt lat="46.59336" lon="6.34624"><ele></ele><time>2020-7-27T22:11:59Z</time></trkpt>
<trkpt lat="46.59323" lon="6.34604"><ele></ele><time>2020-7-27T22:12:2Z</time></trkpt>
<trkpt lat="46.59314" lon="6.34592"><ele></ele><time>2020-7-27T22:12:5Z</time></trkpt>
<trkpt lat="46.59308" lon="6.34583"><ele></ele><time>2020-7-27T22:12:8Z</time></trkpt>
<trkpt lat="46.59304" lon="6.34576"><ele></ele><time>2020-7-27T22:12:11Z</time></trkpt>
<trkpt lat="46.59303" lon="6.34575"><ele></ele><time>2020-7-27T22:12:14Z</time></trkpt>
<trkpt lat="46.59297" lon="6.34567"><ele></ele><time>2020-7-27T22:12:17Z</time></trkpt>
<trkpt lat="46.59292" lon="6.34543"><ele></ele><time>2020-7-27T22:12:20Z</time></trkpt>
<trkpt lat="46.59278" lon="6.34521"><ele></ele><time>2020-7-27T22:12:23Z</time></trkpt>
<trkpt lat="46.5927" lon="6.34503"><ele></ele><time>2020-7-27T22:12:26Z</time></trkpt>
<trkpt lat="46.59262" lon="6.34483"><ele></ele><time>2020-7-27T22:12:29Z</time></trkpt>
<trkpt lat="46.59252" lon="6.34461"><ele></ele><time>2020-7-27T22:12:32Z</time></trkpt>
<trkpt lat="46.59241" lon="6.3444"><ele></ele><time>2020-7-27T22:12:35Z</time></trkpt>
<trkpt lat="46.59229" lon="6.34419"><ele></ele><time>2020-7-27T22:12:38Z</time></trkpt>
<trkpt lat="46.59226" lon="6.34414"><ele></ele><time>2020-7-27T22:12:41Z</time></trkpt>
<trkpt lat="46.59215" lon="6.34384"><ele></ele><time>2020-7-27T22:12:44Z</time></trkpt>
<trkpt lat="46.59207" lon="6.34363"><ele></ele><time>2020-7-27T22:12:47Z</time></trkpt>
<trkpt lat="46.59197" lon="6.34346"><ele></ele><time>2020-7-27T22:12:50Z</time></trkpt>
<trkpt lat="46.59185" lon="6.34325"><ele></ele><time>2020-7-27T22:12:53Z</time></trkpt>
<trkpt lat="46.59181" lon="6.34314"><ele></ele><time>2020-7-27T22:12:56Z</time></trkpt>
<trkpt lat="46.59175" lon="6.34291"><ele></ele><time>2020-7-27T22:12:59Z</time></trkpt>
<trkpt lat="46.59172" lon="6.3428"><ele></ele><time>2020-7-27T22:13:2Z</time></trkpt>
<trkpt lat="46.59169" lon="6.3427"><ele></ele><time>2020-7-27T22:13:5Z</time></trkpt>
<trkpt lat="46.59164" lon="6.3426"><ele></ele><time>2020-7-27T22:13:8Z</time></trkpt>
<trkpt lat="46.59162" lon="6.34252"><ele></ele><time>2020-7-27T22:13:11Z</time></trkpt>
<trkpt lat="46.59162" lon="6.3425"><ele></ele><time>2020-7-27T22:13:14Z</time></trkpt>
<trkpt lat="46.59151" lon="6.34232"><ele></ele><time>2020-7-27T22:13:17Z</time></trkpt>
<trkpt lat="46.59144" lon="6.34219"><ele></ele><time>2020-7-27T22:13:20Z</time></trkpt>
<trkpt lat="46.59132" lon="6.34199"><ele></ele><time>2020-7-27T22:13:23Z</time></trkpt>
<trkpt lat="46.59113" lon="6.34177"><ele></ele><time>2020-7-27T22:13:26Z</time></trkpt>
<trkpt lat="46.59098" lon="6.34161"><ele></ele><time>2020-7-27T22:13:29Z</time></trkpt>
<trkpt lat="46.59081" lon="6.34149"><ele></ele><time>2020-7-27T22:13:32Z</time></trkpt>
<trkpt lat="46.59071" lon="6.34133"><ele></ele><time>2020-7-27T22:13:35Z</time></trkpt>
<trkpt lat="46.59063" lon="6.34116"><ele></ele><time>2020-7-27T22:13:38Z</time></trkpt>
<trkpt lat="46.5906" lon="6.34107"><ele></ele><time>2020-7-27T22:13:41Z</time></trkpt>
<trkpt lat="46.59058" lon="6.34103"><ele></ele><time>2020-7-27T22:13:44Z</time></trkpt>
<trkpt lat="46.5905" lon="6.3408"><ele></ele><time>2020-7-27T22:13:47Z</time></trkpt>
<trkpt lat="46.59043" lon="6.34063"><ele></ele><time>2020-7-27T22:13:50Z</time></trkpt>
<trkpt lat="46.59036" lon="6.3403"><ele></ele><time>2020-7-27T22:13:53Z</time></trkpt>
<trkpt lat="46.59037" lon="6.34027"><ele></ele><time>2020-7-27T22:13:56Z</time></trkpt>
<trkpt lat="46.59043" lon="6.34022"><ele></ele><time>2020-7-27T22:13:59Z</time></trkpt>
<trkpt lat="46.59051" lon="6.34025"><ele></ele><time>2020-7-27T22:14:2Z</time></trkpt>
<trkpt lat="46.59062" lon="6.34034"><ele></ele><time>2020-7-27T22:14:5Z</time></trkpt>
<trkpt lat="46.59079" lon="6.34034"><ele></ele><time>2020-7-27T22:14:8Z</time></trkpt>
<trkpt lat="46.59092" lon="6.34015"><ele></ele><time>2020-7-27T22:14:11Z</time></trkpt>
<trkpt lat="46.59102" lon="6.33996"><ele></ele><time>2020-7-27T22:14:14Z</time></trkpt>
<trkpt lat="46.59105" lon="6.33989"><ele></ele><time>2020-7-27T22:14:17Z</time></trkpt>
<trkpt lat="46.59115" lon="6.33956"><ele></ele><time>2020-7-27T22:14:20Z</time></trkpt>
<trkpt lat="46.59117" lon="6.33929"><ele></ele><time>2020-7-27T22:14:23Z</time></trkpt>
<trkpt lat="46.59117" lon="6.33926"><ele></ele><time>2020-7-27T22:14:26Z</time></trkpt>
<trkpt lat="46.59118" lon="6.33919"><ele></ele><time>2020-7-27T22:14:29Z</time></trkpt>
<trkpt lat="46.59111" lon="6.33909"><ele></ele><time>2020-7-27T22:14:32Z</time></trkpt>
<trkpt lat="46.59104" lon="6.33892"><ele></ele><time>2020-7-27T22:14:35Z</time></trkpt>
<trkpt lat="46.59101" lon="6.33884"><ele></ele><time>2020-7-27T22:14:38Z</time></trkpt>
<trkpt lat="46.5909" lon="6.33862"><ele></ele><time>2020-7-27T22:14:41Z</time></trkpt>
<trkpt lat="46.59084" lon="6.3384"><ele></ele><time>2020-7-27T22:14:44Z</time></trkpt>
<trkpt lat="46.59083" lon="6.33822"><ele></ele><time>2020-7-27T22:14:47Z</time></trkpt>
<trkpt lat="46.59085" lon="6.33787"><ele></ele><time>2020-7-27T22:14:50Z</time></trkpt>
<trkpt lat="46.5909" lon="6.33759"><ele></ele><time>2020-7-27T22:14:53Z</time></trkpt>
<trkpt lat="46.59094" lon="6.33735"><ele></ele><time>2020-7-27T22:14:56Z</time></trkpt>
<trkpt lat="46.59098" lon="6.33735"><ele></ele><time>2020-7-27T22:14:59Z</time></trkpt>
<trkpt lat="46.59099" lon="6.33735"><ele></ele><time>2020-7-27T22:15:2Z</time></trkpt>
<trkpt lat="46.591" lon="6.33734"><ele></ele><time>2020-7-27T22:15:5Z</time></trkpt>
<trkpt lat="46.591" lon="6.33735"><ele></ele><time>2020-7-27T22:15:8Z</time></trkpt>
<trkpt lat="46.591" lon="6.33734"><ele></ele><time>2020-7-27T22:15:11Z</time></trkpt>
<trkpt lat="46.59099" lon="6.33734"><ele></ele><time>2020-7-27T22:15:14Z</time></trkpt>
<trkpt lat="46.59099" lon="6.33734"><ele></ele><time>2020-7-27T22:15:17Z</time></trkpt>
<trkpt lat="46.59099" lon="6.33733"><ele></ele><time>2020-7-27T22:15:20Z</time></trkpt>
<trkpt lat="46.59099" lon="6.33733"><ele></ele><time>2020-7-27T22:15:23Z</time></trkpt>
<trkpt lat="46.59101" lon="6.3373"><ele></ele><time>2020-7-27T22:15:26Z</time></trkpt>
<trkpt lat="46.591" lon="6.33733"><ele></ele><time>2020-7-27T22:15:29Z</time></trkpt>
<trkpt lat="46.591" lon="6.33733"><ele></ele><time>2020-7-27T22:15:32Z</time></trkpt>
<trkpt lat="46.59101" lon="6.33733"><ele></ele><time>2020-7-27T22:15:35Z</time></trkpt>
<trkpt lat="46.59101" lon="6.33733"><ele></ele><time>2020-7-27T22:15:38Z</time></trkpt>
<trkpt lat="46.591" lon="6.33734"><ele></ele><time>2020-7-27T22:15:41Z</time></trkpt>
<trkpt lat="46.59099" lon="6.33733"><ele></ele><time>2020-7-27T22:15:44Z</time></trkpt>
<trkpt lat="46.59099" lon="6.33733"><ele></ele><time>2020-7-27T22:15:47Z</time></trkpt>
<trkpt lat="46.59098" lon="6.33733"><ele></ele><time>2020-7-27T22:15:50Z</time></trkpt>
<trkpt lat="46.59098" lon="6.33733"><ele></ele><time>2020-7-27T22:15:53Z</time></trkpt>
<trkpt lat="46.59099" lon="6.33735"><ele></ele><time>2020-7-27T22:15:56Z</time></trkpt>
<trkpt lat="46.59099" lon="6.33733"><ele></ele><time>2020-7-27T22:15:59Z</time></trkpt>
<trkpt lat="46.591" lon="6.33735"><ele></ele><time>2020-7-27T22:16:2Z</time></trkpt>
<trkpt lat="46.591" lon="6.33735"><ele></ele><time>2020-7-27T22:16:5Z</time></trkpt>
<trkpt lat="46.59101" lon="6.33735"><ele></ele><time>2020-7-27T22:16:8Z</time></trkpt>
<trkpt lat="46.59101" lon="6.33734"><ele></ele><time>2020-7-27T22:16:11Z</time></trkpt>
<trkpt lat="46.591" lon="6.33735"><ele></ele><time>2020-7-27T22:16:14Z</time></trkpt>
<trkpt lat="46.591" lon="6.33735"><ele></ele><time>2020-7-27T22:16:17Z</time></trkpt>
<trkpt lat="46.591" lon="6.33735"><ele></ele><time>2020-7-27T22:16:20Z</time></trkpt>
<trkpt lat="46.591" lon="6.33736"><ele></ele><time>2020-7-27T22:16:23Z</time></trkpt>
<trkpt lat="46.59101" lon="6.33736"><ele></ele><time>2020-7-27T22:16:26Z</time></trkpt>
<trkpt lat="46.59101" lon="6.33736"><ele></ele><time>2020-7-27T22:16:29Z</time></trkpt>
<trkpt lat="46.59101" lon="6.33737"><ele></ele><time>2020-7-27T22:16:32Z</time></trkpt>
<trkpt lat="46.59095" lon="6.33731"><ele></ele><time>2020-7-27T22:16:35Z</time></trkpt>
<trkpt lat="46.59096" lon="6.33717"><ele></ele><time>2020-7-27T22:16:38Z</time></trkpt>
<trkpt lat="46.59096" lon="6.33715"><ele></ele><time>2020-7-27T22:16:41Z</time></trkpt>
<trkpt lat="46.59098" lon="6.33704"><ele></ele><time>2020-7-27T22:16:44Z</time></trkpt>
<trkpt lat="46.59096" lon="6.33678"><ele></ele><time>2020-7-27T22:16:47Z</time></trkpt>
<trkpt lat="46.59094" lon="6.33659"><ele></ele><time>2020-7-27T22:16:50Z</time></trkpt>
<trkpt lat="46.59093" lon="6.33632"><ele></ele><time>2020-7-27T22:16:53Z</time></trkpt>
<trkpt lat="46.5909" lon="6.33616"><ele></ele><time>2020-7-27T22:16:56Z</time></trkpt>
<trkpt lat="46.59083" lon="6.33601"><ele></ele><time>2020-7-27T22:16:59Z</time></trkpt>
<trkpt lat="46.59074" lon="6.33577"><ele></ele><time>2020-7-27T22:17:2Z</time></trkpt>
<trkpt lat="46.59073" lon="6.33571"><ele></ele><time>2020-7-27T22:17:5Z</time></trkpt>
<trkpt lat="46.59066" lon="6.33553"><ele></ele><time>2020-7-27T22:17:8Z</time></trkpt>
<trkpt lat="46.59067" lon="6.3353"><ele></ele><time>2020-7-27T22:17:11Z</time></trkpt>
<trkpt lat="46.5907" lon="6.33509"><ele></ele><time>2020-7-27T22:17:14Z</time></trkpt>
<trkpt lat="46.59073" lon="6.33483"><ele></ele><time>2020-7-27T22:17:17Z</time></trkpt>
<trkpt lat="46.59071" lon="6.33473"><ele></ele><time>2020-7-27T22:17:20Z</time></trkpt>
<trkpt lat="46.59062" lon="6.33461"><ele></ele><time>2020-7-27T22:17:23Z</time></trkpt>
<trkpt lat="46.59054" lon="6.33447"><ele></ele><time>2020-7-27T22:17:26Z</time></trkpt>
<trkpt lat="46.59051" lon="6.33429"><ele></ele><time>2020-7-27T22:17:29Z</time></trkpt>
<trkpt lat="46.59053" lon="6.33411"><ele></ele><time>2020-7-27T22:17:32Z</time></trkpt>
<trkpt lat="46.59056" lon="6.33396"><ele></ele><time>2020-7-27T22:17:35Z</time></trkpt>
<trkpt lat="46.59058" lon="6.33378"><ele></ele><time>2020-7-27T22:17:38Z</time></trkpt>
<trkpt lat="46.59058" lon="6.33371"><ele></ele><time>2020-7-27T22:17:41Z</time></trkpt>
<trkpt lat="46.59058" lon="6.3335"><ele></ele><time>2020-7-27T22:17:44Z</time></trkpt>
<trkpt lat="46.59072" lon="6.33334"><ele></ele><time>2020-7-27T22:17:47Z</time></trkpt>
<trkpt lat="46.59089" lon="6.33319"><ele></ele><time>2020-7-27T22:17:50Z</time></trkpt>
<trkpt lat="46.59092" lon="6.33304"><ele></ele><time>2020-7-27T22:17:53Z</time></trkpt>
<trkpt lat="46.59082" lon="6.33281"><ele></ele><time>2020-7-27T22:17:56Z</time></trkpt>
<trkpt lat="46.59072" lon="6.33258"><ele></ele><time>2020-7-27T22:17:59Z</time></trkpt>
<trkpt lat="46.59059" lon="6.33226"><ele></ele><time>2020-7-27T22:18:2Z</time></trkpt>
<trkpt lat="46.5905" lon="6.33205"><ele></ele><time>2020-7-27T22:18:5Z</time></trkpt>
<trkpt lat="46.59045" lon="6.3318"><ele></ele><time>2020-7-27T22:18:8Z</time></trkpt>
<trkpt lat="46.59052" lon="6.33156"><ele></ele><time>2020-7-27T22:18:11Z</time></trkpt>
<trkpt lat="46.59061" lon="6.33147"><ele></ele><time>2020-7-27T22:18:14Z</time></trkpt>
<trkpt lat="46.59064" lon="6.33141"><ele></ele><time>2020-7-27T22:18:17Z</time></trkpt>
<trkpt lat="46.59068" lon="6.33134"><ele></ele><time>2020-7-27T22:18:20Z</time></trkpt>
<trkpt lat="46.59067" lon="6.33102"><ele></ele><time>2020-7-27T22:18:23Z</time></trkpt>
<trkpt lat="46.59072" lon="6.33075"><ele></ele><time>2020-7-27T22:18:26Z</time></trkpt>
<trkpt lat="46.59074" lon="6.33062"><ele></ele><time>2020-7-27T22:18:29Z</time></trkpt>
<trkpt lat="46.59072" lon="6.33037"><ele></ele><time>2020-7-27T22:18:32Z</time></trkpt>
<trkpt lat="46.59068" lon="6.33028"><ele></ele><time>2020-7-27T22:18:35Z</time></trkpt>
<trkpt lat="46.59069" lon="6.33018"><ele></ele><time>2020-7-27T22:18:38Z</time></trkpt>
<trkpt lat="46.5907" lon="6.33015"><ele></ele><time>2020-7-27T22:18:41Z</time></trkpt>
<trkpt lat="46.59078" lon="6.32997"><ele></ele><time>2020-7-27T22:18:44Z</time></trkpt>
<trkpt lat="46.59083" lon="6.32978"><ele></ele><time>2020-7-27T22:18:47Z</time></trkpt>
<trkpt lat="46.59093" lon="6.32962"><ele></ele><time>2020-7-27T22:18:50Z</time></trkpt>
<trkpt lat="46.59106" lon="6.32943"><ele></ele><time>2020-7-27T22:18:53Z</time></trkpt>
<trkpt lat="46.59121" lon="6.32924"><ele></ele><time>2020-7-27T22:18:56Z</time></trkpt>
<trkpt lat="46.59126" lon="6.32918"><ele></ele><time>2020-7-27T22:18:59Z</time></trkpt>
<trkpt lat="46.59136" lon="6.32895"><ele></ele><time>2020-7-27T22:19:2Z</time></trkpt>
<trkpt lat="46.59147" lon="6.32872"><ele></ele><time>2020-7-27T22:19:5Z</time></trkpt>
<trkpt lat="46.59156" lon="6.32855"><ele></ele><time>2020-7-27T22:19:8Z</time></trkpt>
<trkpt lat="46.59171" lon="6.32858"><ele></ele><time>2020-7-27T22:19:11Z</time></trkpt>
<trkpt lat="46.59173" lon="6.32869"><ele></ele><time>2020-7-27T22:19:14Z</time></trkpt>
<trkpt lat="46.59172" lon="6.32874"><ele></ele><time>2020-7-27T22:19:17Z</time></trkpt>
<trkpt lat="46.59164" lon="6.32898"><ele></ele><time>2020-7-27T22:19:20Z</time></trkpt>
<trkpt lat="46.59153" lon="6.3292"><ele></ele><time>2020-7-27T22:19:23Z</time></trkpt>
<trkpt lat="46.59145" lon="6.32946"><ele></ele><time>2020-7-27T22:19:26Z</time></trkpt>
<trkpt lat="46.5914" lon="6.32973"><ele></ele><time>2020-7-27T22:19:29Z</time></trkpt>
<trkpt lat="46.59149" lon="6.33003"><ele></ele><time>2020-7-27T22:19:32Z</time></trkpt>
<trkpt lat="46.59164" lon="6.33018"><ele></ele><time>2020-7-27T22:19:35Z</time></trkpt>
<trkpt lat="46.59176" lon="6.33029"><ele></ele><time>2020-7-27T22:19:38Z</time></trkpt>
<trkpt lat="46.59191" lon="6.33045"><ele></ele><time>2020-7-27T22:19:41Z</time></trkpt>
<trkpt lat="46.59208" lon="6.33058"><ele></ele><time>2020-7-27T22:19:44Z</time></trkpt>
<trkpt lat="46.59227" lon="6.33061"><ele></ele><time>2020-7-27T22:19:47Z</time></trkpt>
<trkpt lat="46.59236" lon="6.33054"><ele></ele><time>2020-7-27T22:19:50Z</time></trkpt>
<trkpt lat="46.59247" lon="6.33039"><ele></ele><time>2020-7-27T22:19:53Z</time></trkpt>
<trkpt lat="46.59248" lon="6.33038"><ele></ele><time>2020-7-27T22:19:56Z</time></trkpt>
<trkpt lat="46.59252" lon="6.33034"><ele></ele><time>2020-7-27T22:19:59Z</time></trkpt>
<trkpt lat="46.59269" lon="6.33044"><ele></ele><time>2020-7-27T22:20:2Z</time></trkpt>
<trkpt lat="46.59281" lon="6.33063"><ele></ele><time>2020-7-27T22:20:5Z</time></trkpt>
<trkpt lat="46.59296" lon="6.33079"><ele></ele><time>2020-7-27T22:20:8Z</time></trkpt>
<trkpt lat="46.59308" lon="6.33101"><ele></ele><time>2020-7-27T22:20:11Z</time></trkpt>
<trkpt lat="46.59313" lon="6.33111"><ele></ele><time>2020-7-27T22:20:14Z</time></trkpt>
<trkpt lat="46.59319" lon="6.33124"><ele></ele><time>2020-7-27T22:20:17Z</time></trkpt>
<trkpt lat="46.59338" lon="6.33134"><ele></ele><time>2020-7-27T22:20:20Z</time></trkpt>
<trkpt lat="46.59351" lon="6.33135"><ele></ele><time>2020-7-27T22:20:23Z</time></trkpt>
<trkpt lat="46.59352" lon="6.33135"><ele></ele><time>2020-7-27T22:20:26Z</time></trkpt>
<trkpt lat="46.59369" lon="6.33144"><ele></ele><time>2020-7-27T22:20:29Z</time></trkpt>
<trkpt lat="46.59379" lon="6.33146"><ele></ele><time>2020-7-27T22:20:32Z</time></trkpt>
<trkpt lat="46.59391" lon="6.33146"><ele></ele><time>2020-7-27T22:20:35Z</time></trkpt>
<trkpt lat="46.59397" lon="6.33147"><ele></ele><time>2020-7-27T22:20:38Z</time></trkpt>
<trkpt lat="46.5941" lon="6.33152"><ele></ele><time>2020-7-27T22:20:41Z</time></trkpt>
<trkpt lat="46.59421" lon="6.33161"><ele></ele><time>2020-7-27T22:20:44Z</time></trkpt>
<trkpt lat="46.59429" lon="6.33165"><ele></ele><time>2020-7-27T22:20:47Z</time></trkpt>
<trkpt lat="46.59446" lon="6.33175"><ele></ele><time>2020-7-27T22:20:50Z</time></trkpt>
<trkpt lat="46.59459" lon="6.33193"><ele></ele><time>2020-7-27T22:20:53Z</time></trkpt>
<trkpt lat="46.59464" lon="6.33213"><ele></ele><time>2020-7-27T22:20:56Z</time></trkpt>
<trkpt lat="46.59465" lon="6.33214"><ele></ele><time>2020-7-27T22:20:59Z</time></trkpt>
<trkpt lat="46.59481" lon="6.33227"><ele></ele><time>2020-7-27T22:21:2Z</time></trkpt>
<trkpt lat="46.59499" lon="6.33222"><ele></ele><time>2020-7-27T22:21:5Z</time></trkpt>
<trkpt lat="46.59521" lon="6.33233"><ele></ele><time>2020-7-27T22:21:8Z</time></trkpt>
<trkpt lat="46.59522" lon="6.33258"><ele></ele><time>2020-7-27T22:21:11Z</time></trkpt>
<trkpt lat="46.59518" lon="6.33285"><ele></ele><time>2020-7-27T22:21:14Z</time></trkpt>
<trkpt lat="46.59515" lon="6.33298"><ele></ele><time>2020-7-27T22:21:17Z</time></trkpt>
<trkpt lat="46.59512" lon="6.33324"><ele></ele><time>2020-7-27T22:21:20Z</time></trkpt>
<trkpt lat="46.59517" lon="6.33342"><ele></ele><time>2020-7-27T22:21:23Z</time></trkpt>
<trkpt lat="46.59518" lon="6.33345"><ele></ele><time>2020-7-27T22:21:26Z</time></trkpt>
<trkpt lat="46.59525" lon="6.33353"><ele></ele><time>2020-7-27T22:21:29Z</time></trkpt>
<trkpt lat="46.59541" lon="6.33346"><ele></ele><time>2020-7-27T22:21:32Z</time></trkpt>
<trkpt lat="46.59556" lon="6.33319"><ele></ele><time>2020-7-27T22:21:35Z</time></trkpt>
<trkpt lat="46.59562" lon="6.33307"><ele></ele><time>2020-7-27T22:21:38Z</time></trkpt>
<trkpt lat="46.59569" lon="6.33303"><ele></ele><time>2020-7-27T22:21:41Z</time></trkpt>
<trkpt lat="46.59571" lon="6.33302"><ele></ele><time>2020-7-27T22:21:44Z</time></trkpt>
<trkpt lat="46.59586" lon="6.33288"><ele></ele><time>2020-7-27T22:21:47Z</time></trkpt>
<trkpt lat="46.59589" lon="6.33285"><ele></ele><time>2020-7-27T22:21:50Z</time></trkpt>
<trkpt lat="46.59595" lon="6.3328"><ele></ele><time>2020-7-27T22:21:53Z</time></trkpt>
<trkpt lat="46.59599" lon="6.33278"><ele></ele><time>2020-7-27T22:21:56Z</time></trkpt>
<trkpt lat="46.59603" lon="6.33274"><ele></ele><time>2020-7-27T22:21:59Z</time></trkpt>
<trkpt lat="46.59611" lon="6.33268"><ele></ele><time>2020-7-27T22:22:2Z</time></trkpt>
<trkpt lat="46.59622" lon="6.33262"><ele></ele><time>2020-7-27T22:22:5Z</time></trkpt>
<trkpt lat="46.59623" lon="6.33261"><ele></ele><time>2020-7-27T22:22:8Z</time></trkpt>
<trkpt lat="46.59632" lon="6.33256"><ele></ele><time>2020-7-27T22:22:11Z</time></trkpt>
<trkpt lat="46.59645" lon="6.33241"><ele></ele><time>2020-7-27T22:22:14Z</time></trkpt>
<trkpt lat="46.59651" lon="6.33216"><ele></ele><time>2020-7-27T22:22:17Z</time></trkpt>
<trkpt lat="46.59651" lon="6.33189"><ele></ele><time>2020-7-27T22:22:20Z</time></trkpt>
<trkpt lat="46.59641" lon="6.33167"><ele></ele><time>2020-7-27T22:22:23Z</time></trkpt>
<trkpt lat="46.59634" lon="6.33143"><ele></ele><time>2020-7-27T22:22:26Z</time></trkpt>
<trkpt lat="46.59637" lon="6.33107"><ele></ele><time>2020-7-27T22:22:29Z</time></trkpt>
<trkpt lat="46.59642" lon="6.33091"><ele></ele><time>2020-7-27T22:22:32Z</time></trkpt>
<trkpt lat="46.59645" lon="6.33069"><ele></ele><time>2020-7-27T22:22:35Z</time></trkpt>
<trkpt lat="46.59646" lon="6.33042"><ele></ele><time>2020-7-27T22:22:38Z</time></trkpt>
<trkpt lat="46.59635" lon="6.33019"><ele></ele><time>2020-7-27T22:22:41Z</time></trkpt>
<trkpt lat="46.59629" lon="6.33004"><ele></ele><time>2020-7-27T22:22:44Z</time></trkpt>
<trkpt lat="46.59623" lon="6.32974"><ele></ele><time>2020-7-27T22:22:47Z</time></trkpt>
<trkpt lat="46.59627" lon="6.32947"><ele></ele><time>2020-7-27T22:22:50Z</time></trkpt>
<trkpt lat="46.59633" lon="6.32937"><ele></ele><time>2020-7-27T22:22:53Z</time></trkpt>
<trkpt lat="46.59639" lon="6.32923"><ele></ele><time>2020-7-27T22:22:56Z</time></trkpt>
<trkpt lat="46.59635" lon="6.32895"><ele></ele><time>2020-7-27T22:22:59Z</time></trkpt>
<trkpt lat="46.59629" lon="6.3287"><ele></ele><time>2020-7-27T22:23:2Z</time></trkpt>
<trkpt lat="46.59622" lon="6.32844"><ele></ele><time>2020-7-27T22:23:5Z</time></trkpt>
<trkpt lat="46.59618" lon="6.32817"><ele></ele><time>2020-7-27T22:23:8Z</time></trkpt>
<trkpt lat="46.59595" lon="6.32781"><ele></ele><time>2020-7-27T22:23:11Z</time></trkpt>
<trkpt lat="46.59579" lon="6.32785"><ele></ele><time>2020-7-27T22:23:14Z</time></trkpt>
<trkpt lat="46.59561" lon="6.32781"><ele></ele><time>2020-7-27T22:23:17Z</time></trkpt>
<trkpt lat="46.5956" lon="6.3278"><ele></ele><time>2020-7-27T22:23:20Z</time></trkpt>
<trkpt lat="46.59549" lon="6.32757"><ele></ele><time>2020-7-27T22:23:23Z</time></trkpt>
<trkpt lat="46.59541" lon="6.32733"><ele></ele><time>2020-7-27T22:23:26Z</time></trkpt>
<trkpt lat="46.59538" lon="6.32705"><ele></ele><time>2020-7-27T22:23:29Z</time></trkpt>
<trkpt lat="46.59539" lon="6.32677"><ele></ele><time>2020-7-27T22:23:32Z</time></trkpt>
<trkpt lat="46.59544" lon="6.32663"><ele></ele><time>2020-7-27T22:23:35Z</time></trkpt>
<trkpt lat="46.59557" lon="6.32642"><ele></ele><time>2020-7-27T22:23:38Z</time></trkpt>
<trkpt lat="46.59566" lon="6.3262"><ele></ele><time>2020-7-27T22:23:41Z</time></trkpt>
<trkpt lat="46.59562" lon="6.32594"><ele></ele><time>2020-7-27T22:23:44Z</time></trkpt>
<trkpt lat="46.59547" lon="6.32578"><ele></ele><time>2020-7-27T22:23:47Z</time></trkpt>
<trkpt lat="46.59542" lon="6.32574"><ele></ele><time>2020-7-27T22:23:50Z</time></trkpt>
<trkpt lat="46.59524" lon="6.32552"><ele></ele><time>2020-7-27T22:23:53Z</time></trkpt>
<trkpt lat="46.59516" lon="6.32528"><ele></ele><time>2020-7-27T22:23:56Z</time></trkpt>
<trkpt lat="46.59514" lon="6.32502"><ele></ele><time>2020-7-27T22:23:59Z</time></trkpt>
<trkpt lat="46.59525" lon="6.32479"><ele></ele><time>2020-7-27T22:24:2Z</time></trkpt>
<trkpt lat="46.59543" lon="6.3248"><ele></ele><time>2020-7-27T22:24:5Z</time></trkpt>
<trkpt lat="46.59559" lon="6.32497"><ele></ele><time>2020-7-27T22:24:8Z</time></trkpt>
<trkpt lat="46.59574" lon="6.32516"><ele></ele><time>2020-7-27T22:24:11Z</time></trkpt>
<trkpt lat="46.596" lon="6.32542"><ele></ele><time>2020-7-27T22:24:14Z</time></trkpt>
<trkpt lat="46.59619" lon="6.32554"><ele></ele><time>2020-7-27T22:24:17Z</time></trkpt>
<trkpt lat="46.59636" lon="6.32563"><ele></ele><time>2020-7-27T22:24:20Z</time></trkpt>
<trkpt lat="46.59652" lon="6.32568"><ele></ele><time>2020-7-27T22:24:23Z</time></trkpt>
<trkpt lat="46.59671" lon="6.32574"><ele></ele><time>2020-7-27T22:24:26Z</time></trkpt>
<trkpt lat="46.59691" lon="6.32574"><ele></ele><time>2020-7-27T22:24:29Z</time></trkpt>
<trkpt lat="46.5971" lon="6.32572"><ele></ele><time>2020-7-27T22:24:32Z</time></trkpt>
<trkpt lat="46.59739" lon="6.32571"><ele></ele><time>2020-7-27T22:24:35Z</time></trkpt>
<trkpt lat="46.59755" lon="6.32585"><ele></ele><time>2020-7-27T22:24:38Z</time></trkpt>
<trkpt lat="46.59769" lon="6.32604"><ele></ele><time>2020-7-27T22:24:41Z</time></trkpt>
<trkpt lat="46.59784" lon="6.3262"><ele></ele><time>2020-7-27T22:24:44Z</time></trkpt>
<trkpt lat="46.59785" lon="6.32622"><ele></ele><time>2020-7-27T22:24:47Z</time></trkpt>
<trkpt lat="46.59802" lon="6.32631"><ele></ele><time>2020-7-27T22:24:50Z</time></trkpt>
<trkpt lat="46.59811" lon="6.32635"><ele></ele><time>2020-7-27T22:24:53Z</time></trkpt>
<trkpt lat="46.59829" lon="6.32642"><ele></ele><time>2020-7-27T22:24:56Z</time></trkpt>
<trkpt lat="46.59839" lon="6.32646"><ele></ele><time>2020-7-27T22:24:59Z</time></trkpt>
<trkpt lat="46.59855" lon="6.32634"><ele></ele><time>2020-7-27T22:25:2Z</time></trkpt>
<trkpt lat="46.59861" lon="6.32626"><ele></ele><time>2020-7-27T22:25:5Z</time></trkpt>
<trkpt lat="46.59877" lon="6.32617"><ele></ele><time>2020-7-27T22:25:8Z</time></trkpt>
<trkpt lat="46.59895" lon="6.3262"><ele></ele><time>2020-7-27T22:25:11Z</time></trkpt>
<trkpt lat="46.59912" lon="6.32628"><ele></ele><time>2020-7-27T22:25:14Z</time></trkpt>
<trkpt lat="46.59928" lon="6.32645"><ele></ele><time>2020-7-27T22:25:17Z</time></trkpt>
<trkpt lat="46.59942" lon="6.32663"><ele></ele><time>2020-7-27T22:25:20Z</time></trkpt>
<trkpt lat="46.59957" lon="6.32679"><ele></ele><time>2020-7-27T22:25:23Z</time></trkpt>
<trkpt lat="46.59974" lon="6.32701"><ele></ele><time>2020-7-27T22:25:26Z</time></trkpt>
<trkpt lat="46.59978" lon="6.32705"><ele></ele><time>2020-7-27T22:25:29Z</time></trkpt>
<trkpt lat="46.59996" lon="6.32716"><ele></ele><time>2020-7-27T22:25:32Z</time></trkpt>
<trkpt lat="46.60014" lon="6.32717"><ele></ele><time>2020-7-27T22:25:35Z</time></trkpt>
<trkpt lat="46.6002" lon="6.32715"><ele></ele><time>2020-7-27T22:25:38Z</time></trkpt>
<trkpt lat="46.6003" lon="6.3271"><ele></ele><time>2020-7-27T22:25:41Z</time></trkpt>
<trkpt lat="46.60047" lon="6.32698"><ele></ele><time>2020-7-27T22:25:44Z</time></trkpt>
<trkpt lat="46.60064" lon="6.32685"><ele></ele><time>2020-7-27T22:25:47Z</time></trkpt>
<trkpt lat="46.60078" lon="6.32667"><ele></ele><time>2020-7-27T22:25:50Z</time></trkpt>
<trkpt lat="46.60085" lon="6.32656"><ele></ele><time>2020-7-27T22:25:53Z</time></trkpt>
<trkpt lat="46.60101" lon="6.32642"><ele></ele><time>2020-7-27T22:25:56Z</time></trkpt>
<trkpt lat="46.60105" lon="6.32622"><ele></ele><time>2020-7-27T22:25:59Z</time></trkpt>
<trkpt lat="46.60105" lon="6.32596"><ele></ele><time>2020-7-27T22:26:2Z</time></trkpt>
<trkpt lat="46.60099" lon="6.32582"><ele></ele><time>2020-7-27T22:26:5Z</time></trkpt>
<trkpt lat="46.60095" lon="6.32571"><ele></ele><time>2020-7-27T22:26:8Z</time></trkpt>
<trkpt lat="46.60086" lon="6.32547"><ele></ele><time>2020-7-27T22:26:11Z</time></trkpt>
<trkpt lat="46.60083" lon="6.32533"><ele></ele><time>2020-7-27T22:26:14Z</time></trkpt>
<trkpt lat="46.6008" lon="6.32507"><ele></ele><time>2020-7-27T22:26:17Z</time></trkpt>
<trkpt lat="46.60075" lon="6.32482"><ele></ele><time>2020-7-27T22:26:20Z</time></trkpt>
<trkpt lat="46.60053" lon="6.32457"><ele></ele><time>2020-7-27T22:26:23Z</time></trkpt>
<trkpt lat="46.60046" lon="6.32451"><ele></ele><time>2020-7-27T22:26:26Z</time></trkpt>
<trkpt lat="46.6003" lon="6.32439"><ele></ele><time>2020-7-27T22:26:29Z</time></trkpt>
<trkpt lat="46.60021" lon="6.32432"><ele></ele><time>2020-7-27T22:26:32Z</time></trkpt>
<trkpt lat="46.60007" lon="6.32412"><ele></ele><time>2020-7-27T22:26:35Z</time></trkpt>
<trkpt lat="46.60012" lon="6.32388"><ele></ele><time>2020-7-27T22:26:38Z</time></trkpt>
<trkpt lat="46.60016" lon="6.32372"><ele></ele><time>2020-7-27T22:26:41Z</time></trkpt>
<trkpt lat="46.6001" lon="6.32346"><ele></ele><time>2020-7-27T22:26:44Z</time></trkpt>
<trkpt lat="46.60001" lon="6.32332"><ele></ele><time>2020-7-27T22:26:47Z</time></trkpt>
<trkpt lat="46.5999" lon="6.32312"><ele></ele><time>2020-7-27T22:26:50Z</time></trkpt>
<trkpt lat="46.59977" lon="6.32291"><ele></ele><time>2020-7-27T22:26:53Z</time></trkpt>
<trkpt lat="46.59972" lon="6.32264"><ele></ele><time>2020-7-27T22:26:56Z</time></trkpt>
<trkpt lat="46.59971" lon="6.32239"><ele></ele><time>2020-7-27T22:26:59Z</time></trkpt>
<trkpt lat="46.59974" lon="6.32213"><ele></ele><time>2020-7-27T22:27:2Z</time></trkpt>
<trkpt lat="46.59976" lon="6.32208"><ele></ele><time>2020-7-27T22:27:5Z</time></trkpt>
<trkpt lat="46.59979" lon="6.32199"><ele></ele><time>2020-7-27T22:27:8Z</time></trkpt>
<trkpt lat="46.59985" lon="6.32186"><ele></ele><time>2020-7-27T22:27:11Z</time></trkpt>
<trkpt lat="46.5999" lon="6.32173"><ele></ele><time>2020-7-27T22:27:14Z</time></trkpt>
<trkpt lat="46.59991" lon="6.32162"><ele></ele><time>2020-7-27T22:27:17Z</time></trkpt>
<trkpt lat="46.59987" lon="6.32136"><ele></ele><time>2020-7-27T22:27:20Z</time></trkpt>
<trkpt lat="46.59983" lon="6.32126"><ele></ele><time>2020-7-27T22:27:23Z</time></trkpt>
<trkpt lat="46.59972" lon="6.32104"><ele></ele><time>2020-7-27T22:27:26Z</time></trkpt>
<trkpt lat="46.5997" lon="6.32102"><ele></ele><time>2020-7-27T22:27:29Z</time></trkpt>
<trkpt lat="46.59965" lon="6.32094"><ele></ele><time>2020-7-27T22:27:32Z</time></trkpt>
<trkpt lat="46.59954" lon="6.32079"><ele></ele><time>2020-7-27T22:27:35Z</time></trkpt>
<trkpt lat="46.59946" lon="6.32055"><ele></ele><time>2020-7-27T22:27:38Z</time></trkpt>
<trkpt lat="46.59946" lon="6.32052"><ele></ele><time>2020-7-27T22:27:41Z</time></trkpt>
<trkpt lat="46.59944" lon="6.32046"><ele></ele><time>2020-7-27T22:27:44Z</time></trkpt>
<trkpt lat="46.59943" lon="6.32042"><ele></ele><time>2020-7-27T22:27:47Z</time></trkpt>
<trkpt lat="46.59945" lon="6.32015"><ele></ele><time>2020-7-27T22:27:50Z</time></trkpt>
<trkpt lat="46.59944" lon="6.31979"><ele></ele><time>2020-7-27T22:27:53Z</time></trkpt>
<trkpt lat="46.59938" lon="6.31958"><ele></ele><time>2020-7-27T22:27:56Z</time></trkpt>
<trkpt lat="46.59933" lon="6.31942"><ele></ele><time>2020-7-27T22:27:59Z</time></trkpt>
<trkpt lat="46.5993" lon="6.31931"><ele></ele><time>2020-7-27T22:28:2Z</time></trkpt>
<trkpt lat="46.59927" lon="6.31904"><ele></ele><time>2020-7-27T22:28:5Z</time></trkpt>
<trkpt lat="46.5993" lon="6.31867"><ele></ele><time>2020-7-27T22:28:8Z</time></trkpt>
<trkpt lat="46.59942" lon="6.31848"><ele></ele><time>2020-7-27T22:28:11Z</time></trkpt>
<trkpt lat="46.59949" lon="6.31843"><ele></ele><time>2020-7-27T22:28:14Z</time></trkpt>
<trkpt lat="46.59958" lon="6.31852"><ele></ele><time>2020-7-27T22:28:17Z</time></trkpt>
<trkpt lat="46.59958" lon="6.31855"><ele></ele><time>2020-7-27T22:28:20Z</time></trkpt>
<trkpt lat="46.59954" lon="6.31868"><ele></ele><time>2020-7-27T22:28:23Z</time></trkpt>
<trkpt lat="46.59949" lon="6.31872"><ele></ele><time>2020-7-27T22:28:26Z</time></trkpt>
<trkpt lat="46.59949" lon="6.31873"><ele></ele><time>2020-7-27T22:28:29Z</time></trkpt>
<trkpt lat="46.5995" lon="6.31872"><ele></ele><time>2020-7-27T22:28:32Z</time></trkpt>
<trkpt lat="46.59949" lon="6.31873"><ele></ele><time>2020-7-27T22:28:35Z</time></trkpt>
<trkpt lat="46.59949" lon="6.31872"><ele></ele><time>2020-7-27T22:28:38Z</time></trkpt>
<trkpt lat="46.5995" lon="6.31872"><ele></ele><time>2020-7-27T22:28:41Z</time></trkpt>
<trkpt lat="46.5995" lon="6.31872"><ele></ele><time>2020-7-27T22:28:44Z</time></trkpt>
<trkpt lat="46.5995" lon="6.31872"><ele></ele><time>2020-7-27T22:28:47Z</time></trkpt>
<trkpt lat="46.5995" lon="6.31872"><ele></ele><time>2020-7-27T22:28:50Z</time></trkpt>
<trkpt lat="46.5995" lon="6.31873"><ele></ele><time>2020-7-27T22:28:53Z</time></trkpt>
<trkpt lat="46.5995" lon="6.31873"><ele></ele><time>2020-7-27T22:28:56Z</time></trkpt>
<trkpt lat="46.5995" lon="6.31873"><ele></ele><time>2020-7-27T22:28:59Z</time></trkpt>
<trkpt lat="46.59948" lon="6.31873"><ele></ele><time>2020-7-27T22:29:2Z</time></trkpt>
<trkpt lat="46.59949" lon="6.31874"><ele></ele><time>2020-7-27T22:29:5Z</time></trkpt>
<trkpt lat="46.5995" lon="6.31873"><ele></ele><time>2020-7-27T22:29:8Z</time></trkpt>
<trkpt lat="46.5995" lon="6.31873"><ele></ele><time>2020-7-27T22:29:11Z</time></trkpt>
<trkpt lat="46.59949" lon="6.31872"><ele></ele><time>2020-7-27T22:29:14Z</time></trkpt>
<trkpt lat="46.5995" lon="6.31872"><ele></ele><time>2020-7-27T22:29:17Z</time></trkpt>
<trkpt lat="46.5995" lon="6.31871"><ele></ele><time>2020-7-27T22:29:20Z</time></trkpt>
<trkpt lat="46.5995" lon="6.31871"><ele></ele><time>2020-7-27T22:29:23Z</time></trkpt>
<trkpt lat="46.5995" lon="6.31872"><ele></ele><time>2020-7-27T22:29:26Z</time></trkpt>
<trkpt lat="46.59949" lon="6.31873"><ele></ele><time>2020-7-27T22:29:29Z</time></trkpt>
<trkpt lat="46.59949" lon="6.31873"><ele></ele><time>2020-7-27T22:29:32Z</time></trkpt>
<trkpt lat="46.59949" lon="6.31873"><ele></ele><time>2020-7-27T22:29:35Z</time></trkpt>
<trkpt lat="46.59949" lon="6.31873"><ele></ele><time>2020-7-27T22:29:38Z</time></trkpt>
<trkpt lat="46.59949" lon="6.31873"><ele></ele><time>2020-7-27T22:29:41Z</time></trkpt>
<trkpt lat="46.59949" lon="6.31873"><ele></ele><time>2020-7-27T22:29:44Z</time></trkpt>
<trkpt lat="46.59949" lon="6.31873"><ele></ele><time>2020-7-27T22:29:47Z</time></trkpt>
<trkpt lat="46.59949" lon="6.31873"><ele></ele><time>2020-7-27T22:29:50Z</time></trkpt>
<trkpt lat="46.59949" lon="6.31873"><ele></ele><time>2020-7-27T22:29:53Z</time></trkpt>
<trkpt lat="46.59949" lon="6.31873"><ele></ele><time>2020-7-27T22:29:56Z</time></trkpt>
<trkpt lat="46.5995" lon="6.31873"><ele></ele><time>2020-7-27T22:29:59Z</time></trkpt>
<trkpt lat="46.5995" lon="6.31873"><ele></ele><time>2020-7-27T22:30:2Z</time></trkpt>
<trkpt lat="46.5995" lon="6.31873"><ele></ele><time>2020-7-27T22:30:5Z</time></trkpt>
<trkpt lat="46.5995" lon="6.31872"><ele></ele><time>2020-7-27T22:30:8Z</time></trkpt>
<trkpt lat="46.59949" lon="6.31874"><ele></ele><time>2020-7-27T22:30:11Z</time></trkpt>
<trkpt lat="46.59948" lon="6.31874"><ele></ele><time>2020-7-27T22:30:14Z</time></trkpt>
<trkpt lat="46.59948" lon="6.31874"><ele></ele><time>2020-7-27T22:30:17Z</time></trkpt>
<trkpt lat="46.59948" lon="6.31873"><ele></ele><time>2020-7-27T22:30:20Z</time></trkpt>
<trkpt lat="46.59948" lon="6.31874"><ele></ele><time>2020-7-27T22:30:23Z</time></trkpt>
<trkpt lat="46.59948" lon="6.31874"><ele></ele><time>2020-7-27T22:30:26Z</time></trkpt>
<trkpt lat="46.59948" lon="6.31874"><ele></ele><time>2020-7-27T22:30:29Z</time></trkpt>
<trkpt lat="46.59949" lon="6.31874"><ele></ele><time>2020-7-27T22:30:32Z</time></trkpt>
<trkpt lat="46.59949" lon="6.31873"><ele></ele><time>2020-7-27T22:30:35Z</time></trkpt>
<trkpt lat="46.59948" lon="6.31873"><ele></ele><time>2020-7-27T22:30:38Z</time></trkpt>
<trkpt lat="46.59948" lon="6.31873"><ele></ele><time>2020-7-27T22:30:41Z</time></trkpt>
<trkpt lat="46.59948" lon="6.31873"><ele></ele><time>2020-7-27T22:30:44Z</time></trkpt>
<trkpt lat="46.59948" lon="6.31873"><ele></ele><time>2020-7-27T22:30:47Z</time></trkpt>
<trkpt lat="46.59948" lon="6.31873"><ele></ele><time>2020-7-27T22:30:50Z</time></trkpt>
<trkpt lat="46.59947" lon="6.31873"><ele></ele><time>2020-7-27T22:30:53Z</time></trkpt>
<trkpt lat="46.59947" lon="6.31873"><ele></ele><time>2020-7-27T22:30:56Z</time></trkpt>
<trkpt lat="46.59947" lon="6.31873"><ele></ele><time>2020-7-27T22:30:59Z</time></trkpt>
<trkpt lat="46.59948" lon="6.31873"><ele></ele><time>2020-7-27T22:31:2Z</time></trkpt>
<trkpt lat="46.59948" lon="6.31874"><ele></ele><time>2020-7-27T22:31:5Z</time></trkpt>
<trkpt lat="46.59948" lon="6.31874"><ele></ele><time>2020-7-27T22:31:8Z</time></trkpt>
<trkpt lat="46.59948" lon="6.31874"><ele></ele><time>2020-7-27T22:31:11Z</time></trkpt>
<trkpt lat="46.59948" lon="6.31873"><ele></ele><time>2020-7-27T22:31:14Z</time></trkpt>
<trkpt lat="46.59948" lon="6.31873"><ele></ele><time>2020-7-27T22:31:17Z</time></trkpt>
<trkpt lat="46.59949" lon="6.31873"><ele></ele><time>2020-7-27T22:31:20Z</time></trkpt>
<trkpt lat="46.59949" lon="6.31873"><ele></ele><time>2020-7-27T22:31:23Z</time></trkpt>
<trkpt lat="46.59949" lon="6.31873"><ele></ele><time>2020-7-27T22:31:26Z</time></trkpt>
<trkpt lat="46.59949" lon="6.31873"><ele></ele><time>2020-7-27T22:31:29Z</time></trkpt>
<trkpt lat="46.59949" lon="6.31874"><ele></ele><time>2020-7-27T22:31:32Z</time></trkpt>
<trkpt lat="46.59949" lon="6.31874"><ele></ele><time>2020-7-27T22:31:35Z</time></trkpt>
<trkpt lat="46.59949" lon="6.31874"><ele></ele><time>2020-7-27T22:31:38Z</time></trkpt>
<trkpt lat="46.59948" lon="6.31874"><ele></ele><time>2020-7-27T22:31:41Z</time></trkpt>
<trkpt lat="46.59948" lon="6.31874"><ele></ele><time>2020-7-27T22:31:44Z</time></trkpt>
<trkpt lat="46.59949" lon="6.31873"><ele></ele><time>2020-7-27T22:31:47Z</time></trkpt>
<trkpt lat="46.59949" lon="6.31873"><ele></ele><time>2020-7-27T22:31:50Z</time></trkpt>
<trkpt lat="46.59948" lon="6.3187"><ele></ele><time>2020-7-27T22:31:53Z</time></trkpt>
<trkpt lat="46.59948" lon="6.3187"><ele></ele><time>2020-7-27T22:31:56Z</time></trkpt>
<trkpt lat="46.59948" lon="6.3187"><ele></ele><time>2020-7-27T22:31:59Z</time></trkpt>
<trkpt lat="46.59948" lon="6.31869"><ele></ele><time>2020-7-27T22:32:2Z</time></trkpt>
<trkpt lat="46.59947" lon="6.31868"><ele></ele><time>2020-7-27T22:32:5Z</time></trkpt>
<trkpt lat="46.59947" lon="6.31869"><ele></ele><time>2020-7-27T22:32:8Z</time></trkpt>
<trkpt lat="46.59947" lon="6.3187"><ele></ele><time>2020-7-27T22:32:11Z</time></trkpt>
<trkpt lat="46.59948" lon="6.31871"><ele></ele><time>2020-7-27T22:32:14Z</time></trkpt>
<trkpt lat="46.59948" lon="6.31871"><ele></ele><time>2020-7-27T22:32:17Z</time></trkpt>
<trkpt lat="46.59948" lon="6.31871"><ele></ele><time>2020-7-27T22:32:20Z</time></trkpt>
<trkpt lat="46.59948" lon="6.31871"><ele></ele><time>2020-7-27T22:32:23Z</time></trkpt>
<trkpt lat="46.59949" lon="6.31871"><ele></ele><time>2020-7-27T22:32:26Z</time></trkpt>
<trkpt lat="46.59949" lon="6.31871"><ele></ele><time>2020-7-27T22:32:29Z</time></trkpt>
<trkpt lat="46.59949" lon="6.31871"><ele></ele><time>2020-7-27T22:32:32Z</time></trkpt>
<trkpt lat="46.59949" lon="6.31871"><ele></ele><time>2020-7-27T22:32:35Z</time></trkpt>
<trkpt lat="46.59948" lon="6.31871"><ele></ele><time>2020-7-27T22:32:38Z</time></trkpt>
<trkpt lat="46.59949" lon="6.31871"><ele></ele><time>2020-7-27T22:32:41Z</time></trkpt>
<trkpt lat="46.59949" lon="6.31872"><ele></ele><time>2020-7-27T22:32:44Z</time></trkpt>
<trkpt lat="46.5995" lon="6.31872"><ele></ele><time>2020-7-27T22:32:47Z</time></trkpt>
<trkpt lat="46.59949" lon="6.31872"><ele></ele><time>2020-7-27T22:32:50Z</time></trkpt>
<trkpt lat="46.59949" lon="6.31872"><ele></ele><time>2020-7-27T22:32:53Z</time></trkpt>
<trkpt lat="46.59949" lon="6.31871"><ele></ele><time>2020-7-27T22:32:56Z</time></trkpt>
<trkpt lat="46.59949" lon="6.31871"><ele></ele><time>2020-7-27T22:32:59Z</time></trkpt>
<trkpt lat="46.5995" lon="6.31871"><ele></ele><time>2020-7-27T22:33:2Z</time></trkpt>
<trkpt lat="46.5995" lon="6.31871"><ele></ele><time>2020-7-27T22:33:5Z</time></trkpt>
<trkpt lat="46.59949" lon="6.31871"><ele></ele><time>2020-7-27T22:33:8Z</time></trkpt>
<trkpt lat="46.59949" lon="6.31871"><ele></ele><time>2020-7-27T22:33:11Z</time></trkpt>
<trkpt lat="46.5995" lon="6.31872"><ele></ele><time>2020-7-27T22:33:14Z</time></trkpt>
<trkpt lat="46.59949" lon="6.31872"><ele></ele><time>2020-7-27T22:33:17Z</time></trkpt>
<trkpt lat="46.59949" lon="6.31872"><ele></ele><time>2020-7-27T22:33:20Z</time></trkpt>
<trkpt lat="46.59949" lon="6.31872"><ele></ele><time>2020-7-27T22:33:23Z</time></trkpt>
<trkpt lat="46.59949" lon="6.31872"><ele></ele><time>2020-7-27T22:33:26Z</time></trkpt>
<trkpt lat="46.59949" lon="6.31872"><ele></ele><time>2020-7-27T22:33:29Z</time></trkpt>
<trkpt lat="46.59949" lon="6.31872"><ele></ele><time>2020-7-27T22:33:32Z</time></trkpt>
<trkpt lat="46.59948" lon="6.31871"><ele></ele><time>2020-7-27T22:33:35Z</time></trkpt>
<trkpt lat="46.59948" lon="6.31871"><ele></ele><time>2020-7-27T22:33:38Z</time></trkpt>
<trkpt lat="46.59948" lon="6.31871"><ele></ele><time>2020-7-27T22:33:41Z</time></trkpt>
<trkpt lat="46.59948" lon="6.31872"><ele></ele><time>2020-7-27T22:33:44Z</time></trkpt>
<trkpt lat="46.59949" lon="6.31872"><ele></ele><time>2020-7-27T22:33:47Z</time></trkpt>
<trkpt lat="46.59949" lon="6.31872"><ele></ele><time>2020-7-27T22:33:50Z</time></trkpt>
<trkpt lat="46.59949" lon="6.31872"><ele></ele><time>2020-7-27T22:33:53Z</time></trkpt>
<trkpt lat="46.59949" lon="6.31874"><ele></ele><time>2020-7-27T22:33:56Z</time></trkpt>
<trkpt lat="46.59949" lon="6.31874"><ele></ele><time>2020-7-27T22:33:59Z</time></trkpt>
<trkpt lat="46.59949" lon="6.31875"><ele></ele><time>2020-7-27T22:34:2Z</time></trkpt>
<trkpt lat="46.59949" lon="6.31875"><ele></ele><time>2020-7-27T22:34:5Z</time></trkpt>
<trkpt lat="46.59948" lon="6.31875"><ele></ele><time>2020-7-27T22:34:8Z</time></trkpt>
<trkpt lat="46.59948" lon="6.31875"><ele></ele><time>2020-7-27T22:34:11Z</time></trkpt>
<trkpt lat="46.59948" lon="6.31875"><ele></ele><time>2020-7-27T22:34:14Z</time></trkpt>
<trkpt lat="46.59947" lon="6.31876"><ele></ele><time>2020-7-27T22:34:17Z</time></trkpt>
<trkpt lat="46.59947" lon="6.31876"><ele></ele><time>2020-7-27T22:34:20Z</time></trkpt>
<trkpt lat="46.59947" lon="6.31876"><ele></ele><time>2020-7-27T22:34:23Z</time></trkpt>
<trkpt lat="46.59947" lon="6.31876"><ele></ele><time>2020-7-27T22:34:26Z</time></trkpt>
<trkpt lat="46.59947" lon="6.31876"><ele></ele><time>2020-7-27T22:34:29Z</time></trkpt>
<trkpt lat="46.59947" lon="6.31876"><ele></ele><time>2020-7-27T22:34:32Z</time></trkpt>
<trkpt lat="46.59947" lon="6.31876"><ele></ele><time>2020-7-27T22:34:35Z</time></trkpt>
<trkpt lat="46.59947" lon="6.31876"><ele></ele><time>2020-7-27T22:34:38Z</time></trkpt>
<trkpt lat="46.59947" lon="6.31876"><ele></ele><time>2020-7-27T22:34:41Z</time></trkpt>
<trkpt lat="46.59947" lon="6.31876"><ele></ele><time>2020-7-27T22:34:44Z</time></trkpt>
<trkpt lat="46.59947" lon="6.31873"><ele></ele><time>2020-7-27T22:34:47Z</time></trkpt>
<trkpt lat="46.59947" lon="6.31873"><ele></ele><time>2020-7-27T22:34:50Z</time></trkpt>
<trkpt lat="46.59947" lon="6.31873"><ele></ele><time>2020-7-27T22:34:53Z</time></trkpt>
<trkpt lat="46.59948" lon="6.31872"><ele></ele><time>2020-7-27T22:34:56Z</time></trkpt>
<trkpt lat="46.59948" lon="6.31872"><ele></ele><time>2020-7-27T22:34:59Z</time></trkpt>
<trkpt lat="46.59948" lon="6.31872"><ele></ele><time>2020-7-27T22:35:2Z</time></trkpt>
<trkpt lat="46.59949" lon="6.31872"><ele></ele><time>2020-7-27T22:35:5Z</time></trkpt>
<trkpt lat="46.5995" lon="6.31871"><ele></ele><time>2020-7-27T22:35:8Z</time></trkpt>
<trkpt lat="46.5995" lon="6.31871"><ele></ele><time>2020-7-27T22:35:11Z</time></trkpt>
<trkpt lat="46.59951" lon="6.31872"><ele></ele><time>2020-7-27T22:35:14Z</time></trkpt>
<trkpt lat="46.59952" lon="6.31872"><ele></ele><time>2020-7-27T22:35:17Z</time></trkpt>
<trkpt lat="46.59952" lon="6.31873"><ele></ele><time>2020-7-27T22:35:20Z</time></trkpt>
<trkpt lat="46.59952" lon="6.31871"><ele></ele><time>2020-7-27T22:35:23Z</time></trkpt>
<trkpt lat="46.59952" lon="6.31869"><ele></ele><time>2020-7-27T22:35:26Z</time></trkpt>
<trkpt lat="46.59958" lon="6.31851"><ele></ele><time>2020-7-27T22:35:29Z</time></trkpt>
<trkpt lat="46.5995" lon="6.31839"><ele></ele><time>2020-7-27T22:35:32Z</time></trkpt>
<trkpt lat="46.59938" lon="6.3182"><ele></ele><time>2020-7-27T22:35:35Z</time></trkpt>
<trkpt lat="46.59922" lon="6.31807"><ele></ele><time>2020-7-27T22:35:38Z</time></trkpt>
<trkpt lat="46.59917" lon="6.31802"><ele></ele><time>2020-7-27T22:35:41Z</time></trkpt>
<trkpt lat="46.59912" lon="6.31794"><ele></ele><time>2020-7-27T22:35:44Z</time></trkpt>
<trkpt lat="46.59904" lon="6.31778"><ele></ele><time>2020-7-27T22:35:47Z</time></trkpt>
<trkpt lat="46.59895" lon="6.31756"><ele></ele><time>2020-7-27T22:35:50Z</time></trkpt>
<trkpt lat="46.5989" lon="6.31744"><ele></ele><time>2020-7-27T22:35:53Z</time></trkpt>
<trkpt lat="46.59887" lon="6.31732"><ele></ele><time>2020-7-27T22:35:56Z</time></trkpt>
<trkpt lat="46.59885" lon="6.31723"><ele></ele><time>2020-7-27T22:35:59Z</time></trkpt>
<trkpt lat="46.59884" lon="6.31718"><ele></ele><time>2020-7-27T22:36:2Z</time></trkpt>
<trkpt lat="46.59876" lon="6.31701"><ele></ele><time>2020-7-27T22:36:5Z</time></trkpt>
<trkpt lat="46.5987" lon="6.31683"><ele></ele><time>2020-7-27T22:36:8Z</time></trkpt>
<trkpt lat="46.59868" lon="6.31656"><ele></ele><time>2020-7-27T22:36:11Z</time></trkpt>
<trkpt lat="46.59868" lon="6.31648"><ele></ele><time>2020-7-27T22:36:14Z</time></trkpt>
<trkpt lat="46.59856" lon="6.31626"><ele></ele><time>2020-7-27T22:36:17Z</time></trkpt>
<trkpt lat="46.5985" lon="6.31616"><ele></ele><time>2020-7-27T22:36:20Z</time></trkpt>
<trkpt lat="46.59843" lon="6.3159"><ele></ele><time>2020-7-27T22:36:23Z</time></trkpt>
<trkpt lat="46.59843" lon="6.3157"><ele></ele><time>2020-7-27T22:36:26Z</time></trkpt>
<trkpt lat="46.5984" lon="6.31543"><ele></ele><time>2020-7-27T22:36:29Z</time></trkpt>
<trkpt lat="46.59829" lon="6.31522"><ele></ele><time>2020-7-27T22:36:32Z</time></trkpt>
<trkpt lat="46.59814" lon="6.31504"><ele></ele><time>2020-7-27T22:36:35Z</time></trkpt>
<trkpt lat="46.59808" lon="6.31494"><ele></ele><time>2020-7-27T22:36:38Z</time></trkpt>
<trkpt lat="46.598" lon="6.31458"><ele></ele><time>2020-7-27T22:36:41Z</time></trkpt>
<trkpt lat="46.598" lon="6.31453"><ele></ele><time>2020-7-27T22:36:44Z</time></trkpt>
<trkpt lat="46.59797" lon="6.31426"><ele></ele><time>2020-7-27T22:36:47Z</time></trkpt>
<trkpt lat="46.59791" lon="6.314"><ele></ele><time>2020-7-27T22:36:50Z</time></trkpt>
<trkpt lat="46.59778" lon="6.31381"><ele></ele><time>2020-7-27T22:36:53Z</time></trkpt>
<trkpt lat="46.59777" lon="6.3138"><ele></ele><time>2020-7-27T22:36:56Z</time></trkpt>
<trkpt lat="46.59772" lon="6.31373"><ele></ele><time>2020-7-27T22:36:59Z</time></trkpt>
<trkpt lat="46.59762" lon="6.31361"><ele></ele><time>2020-7-27T22:37:2Z</time></trkpt>
<trkpt lat="46.5976" lon="6.31358"><ele></ele><time>2020-7-27T22:37:5Z</time></trkpt>
<trkpt lat="46.59751" lon="6.31342"><ele></ele><time>2020-7-27T22:37:8Z</time></trkpt>
<trkpt lat="46.59741" lon="6.31332"><ele></ele><time>2020-7-27T22:37:11Z</time></trkpt>
<trkpt lat="46.59737" lon="6.31327"><ele></ele><time>2020-7-27T22:37:14Z</time></trkpt>
<trkpt lat="46.59735" lon="6.31325"><ele></ele><time>2020-7-27T22:37:17Z</time></trkpt>
<trkpt lat="46.59718" lon="6.31316"><ele></ele><time>2020-7-27T22:37:20Z</time></trkpt>
<trkpt lat="46.59701" lon="6.31308"><ele></ele><time>2020-7-27T22:37:23Z</time></trkpt>
<trkpt lat="46.59682" lon="6.31302"><ele></ele><time>2020-7-27T22:37:26Z</time></trkpt>
<trkpt lat="46.59665" lon="6.31283"><ele></ele><time>2020-7-27T22:37:29Z</time></trkpt>
<trkpt lat="46.59651" lon="6.31264"><ele></ele><time>2020-7-27T22:37:32Z</time></trkpt>
<trkpt lat="46.59637" lon="6.31248"><ele></ele><time>2020-7-27T22:37:35Z</time></trkpt>
<trkpt lat="46.59625" lon="6.31244"><ele></ele><time>2020-7-27T22:37:38Z</time></trkpt>
<trkpt lat="46.5962" lon="6.31234"><ele></ele><time>2020-7-27T22:37:41Z</time></trkpt>
<trkpt lat="46.59619" lon="6.31224"><ele></ele><time>2020-7-27T22:37:44Z</time></trkpt>
<trkpt lat="46.59616" lon="6.31215"><ele></ele><time>2020-7-27T22:37:47Z</time></trkpt>
<trkpt lat="46.596" lon="6.31194"><ele></ele><time>2020-7-27T22:37:50Z</time></trkpt>
<trkpt lat="46.59594" lon="6.31186"><ele></ele><time>2020-7-27T22:37:53Z</time></trkpt>
<trkpt lat="46.59589" lon="6.3118"><ele></ele><time>2020-7-27T22:37:56Z</time></trkpt>
<trkpt lat="46.59586" lon="6.31176"><ele></ele><time>2020-7-27T22:37:59Z</time></trkpt>
<trkpt lat="46.59584" lon="6.31174"><ele></ele><time>2020-7-27T22:38:2Z</time></trkpt>
<trkpt lat="46.59581" lon="6.31171"><ele></ele><time>2020-7-27T22:38:5Z</time></trkpt>
<trkpt lat="46.5957" lon="6.31157"><ele></ele><time>2020-7-27T22:38:8Z</time></trkpt>
<trkpt lat="46.59564" lon="6.31155"><ele></ele><time>2020-7-27T22:38:11Z</time></trkpt>
<trkpt lat="46.59562" lon="6.31152"><ele></ele><time>2020-7-27T22:38:14Z</time></trkpt>
<trkpt lat="46.59554" lon="6.31134"><ele></ele><time>2020-7-27T22:38:17Z</time></trkpt>
<trkpt lat="46.59538" lon="6.31118"><ele></ele><time>2020-7-27T22:38:20Z</time></trkpt>
<trkpt lat="46.59526" lon="6.31099"><ele></ele><time>2020-7-27T22:38:23Z</time></trkpt>
<trkpt lat="46.59518" lon="6.31086"><ele></ele><time>2020-7-27T22:38:26Z</time></trkpt>
<trkpt lat="46.59516" lon="6.31082"><ele></ele><time>2020-7-27T22:38:29Z</time></trkpt>
<trkpt lat="46.59515" lon="6.3108"><ele></ele><time>2020-7-27T22:38:32Z</time></trkpt>
<trkpt lat="46.59514" lon="6.31078"><ele></ele><time>2020-7-27T22:38:35Z</time></trkpt>
<trkpt lat="46.59503" lon="6.31064"><ele></ele><time>2020-7-27T22:38:38Z</time></trkpt>
<trkpt lat="46.59503" lon="6.31044"><ele></ele><time>2020-7-27T22:38:41Z</time></trkpt>
<trkpt lat="46.59502" lon="6.31037"><ele></ele><time>2020-7-27T22:38:44Z</time></trkpt>
<trkpt lat="46.59496" lon="6.3102"><ele></ele><time>2020-7-27T22:38:47Z</time></trkpt>
<trkpt lat="46.59491" lon="6.31011"><ele></ele><time>2020-7-27T22:38:50Z</time></trkpt>
<trkpt lat="46.59488" lon="6.31007"><ele></ele><time>2020-7-27T22:38:53Z</time></trkpt>
<trkpt lat="46.5947" lon="6.30993"><ele></ele><time>2020-7-27T22:38:56Z</time></trkpt>
<trkpt lat="46.59468" lon="6.30988"><ele></ele><time>2020-7-27T22:38:59Z</time></trkpt>
<trkpt lat="46.59466" lon="6.3099"><ele></ele><time>2020-7-27T22:39:2Z</time></trkpt>
<trkpt lat="46.59466" lon="6.3099"><ele></ele><time>2020-7-27T22:39:5Z</time></trkpt>
<trkpt lat="46.59464" lon="6.30995"><ele></ele><time>2020-7-27T22:39:8Z</time></trkpt>
<trkpt lat="46.59465" lon="6.30998"><ele></ele><time>2020-7-27T22:39:11Z</time></trkpt>
<trkpt lat="46.59465" lon="6.30997"><ele></ele><time>2020-7-27T22:39:14Z</time></trkpt>
<trkpt lat="46.59465" lon="6.30997"><ele></ele><time>2020-7-27T22:39:17Z</time></trkpt>
<trkpt lat="46.59465" lon="6.30998"><ele></ele><time>2020-7-27T22:39:20Z</time></trkpt>
<trkpt lat="46.59465" lon="6.30995"><ele></ele><time>2020-7-27T22:39:23Z</time></trkpt>
<trkpt lat="46.59465" lon="6.30994"><ele></ele><time>2020-7-27T22:39:26Z</time></trkpt>
<trkpt lat="46.59465" lon="6.30996"><ele></ele><time>2020-7-27T22:39:29Z</time></trkpt>
<trkpt lat="46.59465" lon="6.30994"><ele></ele><time>2020-7-27T22:39:32Z</time></trkpt>
<trkpt lat="46.59465" lon="6.30993"><ele></ele><time>2020-7-27T22:39:35Z</time></trkpt>
<trkpt lat="46.59464" lon="6.30995"><ele></ele><time>2020-7-27T22:39:38Z</time></trkpt>
<trkpt lat="46.59464" lon="6.30995"><ele></ele><time>2020-7-27T22:39:41Z</time></trkpt>
<trkpt lat="46.59464" lon="6.30995"><ele></ele><time>2020-7-27T22:39:44Z</time></trkpt>
<trkpt lat="46.59464" lon="6.30995"><ele></ele><time>2020-7-27T22:39:47Z</time></trkpt>
<trkpt lat="46.59464" lon="6.30995"><ele></ele><time>2020-7-27T22:39:50Z</time></trkpt>
<trkpt lat="46.59464" lon="6.30995"><ele></ele><time>2020-7-27T22:39:53Z</time></trkpt>
<trkpt lat="46.59464" lon="6.30995"><ele></ele><time>2020-7-27T22:39:56Z</time></trkpt>
<trkpt lat="46.59464" lon="6.30995"><ele></ele><time>2020-7-27T22:39:59Z</time></trkpt>
<trkpt lat="46.59464" lon="6.30995"><ele></ele><time>2020-7-27T22:40:2Z</time></trkpt>
<trkpt lat="46.59464" lon="6.30996"><ele></ele><time>2020-7-27T22:40:5Z</time></trkpt>
<trkpt lat="46.59466" lon="6.30994"><ele></ele><time>2020-7-27T22:40:8Z</time></trkpt>
<trkpt lat="46.59466" lon="6.30994"><ele></ele><time>2020-7-27T22:40:11Z</time></trkpt>
<trkpt lat="46.59466" lon="6.30996"><ele></ele><time>2020-7-27T22:40:14Z</time></trkpt>
<trkpt lat="46.59466" lon="6.30996"><ele></ele><time>2020-7-27T22:40:17Z</time></trkpt>
<trkpt lat="46.59465" lon="6.30994"><ele></ele><time>2020-7-27T22:40:20Z</time></trkpt>
<trkpt lat="46.59465" lon="6.30994"><ele></ele><time>2020-7-27T22:40:23Z</time></trkpt>
<trkpt lat="46.59465" lon="6.30994"><ele></ele><time>2020-7-27T22:40:26Z</time></trkpt>
<trkpt lat="46.59465" lon="6.30993"><ele></ele><time>2020-7-27T22:40:29Z</time></trkpt>
<trkpt lat="46.59465" lon="6.30993"><ele></ele><time>2020-7-27T22:40:32Z</time></trkpt>
<trkpt lat="46.59465" lon="6.30993"><ele></ele><time>2020-7-27T22:40:35Z</time></trkpt>
<trkpt lat="46.59465" lon="6.30992"><ele></ele><time>2020-7-27T22:40:38Z</time></trkpt>
<trkpt lat="46.59465" lon="6.30992"><ele></ele><time>2020-7-27T22:40:41Z</time></trkpt>
<trkpt lat="46.59465" lon="6.30993"><ele></ele><time>2020-7-27T22:40:44Z</time></trkpt>
<trkpt lat="46.59465" lon="6.30994"><ele></ele><time>2020-7-27T22:40:47Z</time></trkpt>
<trkpt lat="46.59465" lon="6.30994"><ele></ele><time>2020-7-27T22:40:50Z</time></trkpt>
<trkpt lat="46.59465" lon="6.30994"><ele></ele><time>2020-7-27T22:40:53Z</time></trkpt>
<trkpt lat="46.59465" lon="6.30995"><ele></ele><time>2020-7-27T22:40:56Z</time></trkpt>
<trkpt lat="46.59465" lon="6.30995"><ele></ele><time>2020-7-27T22:40:59Z</time></trkpt>
<trkpt lat="46.59465" lon="6.30995"><ele></ele><time>2020-7-27T22:41:2Z</time></trkpt>
<trkpt lat="46.59465" lon="6.30995"><ele></ele><time>2020-7-27T22:41:5Z</time></trkpt>
<trkpt lat="46.59464" lon="6.30996"><ele></ele><time>2020-7-27T22:41:8Z</time></trkpt>
<trkpt lat="46.59464" lon="6.30996"><ele></ele><time>2020-7-27T22:41:11Z</time></trkpt>
<trkpt lat="46.59464" lon="6.30995"><ele></ele><time>2020-7-27T22:41:14Z</time></trkpt>
<trkpt lat="46.59465" lon="6.30995"><ele></ele><time>2020-7-27T22:41:17Z</time></trkpt>
<trkpt lat="46.59466" lon="6.30993"><ele></ele><time>2020-7-27T22:41:20Z</time></trkpt>
<trkpt lat="46.59466" lon="6.30992"><ele></ele><time>2020-7-27T22:41:23Z</time></trkpt>
<trkpt lat="46.59466" lon="6.3099"><ele></ele><time>2020-7-27T22:41:26Z</time></trkpt>
<trkpt lat="46.59467" lon="6.30989"><ele></ele><time>2020-7-27T22:41:29Z</time></trkpt>
<trkpt lat="46.59465" lon="6.30992"><ele></ele><time>2020-7-27T22:41:32Z</time></trkpt>
<trkpt lat="46.59465" lon="6.30992"><ele></ele><time>2020-7-27T22:41:35Z</time></trkpt>
<trkpt lat="46.59465" lon="6.30992"><ele></ele><time>2020-7-27T22:41:38Z</time></trkpt>
<trkpt lat="46.59465" lon="6.30992"><ele></ele><time>2020-7-27T22:41:41Z</time></trkpt>
<trkpt lat="46.59465" lon="6.30993"><ele></ele><time>2020-7-27T22:41:44Z</time></trkpt>
<trkpt lat="46.59465" lon="6.30993"><ele></ele><time>2020-7-27T22:41:47Z</time></trkpt>
<trkpt lat="46.59465" lon="6.30993"><ele></ele><time>2020-7-27T22:41:50Z</time></trkpt>
<trkpt lat="46.59464" lon="6.30994"><ele></ele><time>2020-7-27T22:41:53Z</time></trkpt>
<trkpt lat="46.59464" lon="6.30994"><ele></ele><time>2020-7-27T22:41:56Z</time></trkpt>
<trkpt lat="46.59464" lon="6.30994"><ele></ele><time>2020-7-27T22:41:59Z</time></trkpt>
<trkpt lat="46.59464" lon="6.30995"><ele></ele><time>2020-7-27T22:42:2Z</time></trkpt>
<trkpt lat="46.59464" lon="6.30995"><ele></ele><time>2020-7-27T22:42:5Z</time></trkpt>
<trkpt lat="46.59464" lon="6.30995"><ele></ele><time>2020-7-27T22:42:8Z</time></trkpt>
<trkpt lat="46.59465" lon="6.30997"><ele></ele><time>2020-7-27T22:42:11Z</time></trkpt>
<trkpt lat="46.59465" lon="6.30994"><ele></ele><time>2020-7-27T22:42:14Z</time></trkpt>
<trkpt lat="46.59463" lon="6.30994"><ele></ele><time>2020-7-27T22:42:17Z</time></trkpt>
<trkpt lat="46.59464" lon="6.30992"><ele></ele><time>2020-7-27T22:42:20Z</time></trkpt>
<trkpt lat="46.59465" lon="6.30992"><ele></ele><time>2020-7-27T22:42:23Z</time></trkpt>
<trkpt lat="46.59465" lon="6.30994"><ele></ele><time>2020-7-27T22:42:26Z</time></trkpt>
<trkpt lat="46.59466" lon="6.30994"><ele></ele><time>2020-7-27T22:42:29Z</time></trkpt>
<trkpt lat="46.59465" lon="6.30994"><ele></ele><time>2020-7-27T22:42:32Z</time></trkpt>
<trkpt lat="46.59464" lon="6.30995"><ele></ele><time>2020-7-27T22:42:35Z</time></trkpt>
<trkpt lat="46.59464" lon="6.30995"><ele></ele><time>2020-7-27T22:42:38Z</time></trkpt>
<trkpt lat="46.59464" lon="6.30995"><ele></ele><time>2020-7-27T22:42:41Z</time></trkpt>
<trkpt lat="46.59463" lon="6.30995"><ele></ele><time>2020-7-27T22:42:44Z</time></trkpt>
<trkpt lat="46.59463" lon="6.30995"><ele></ele><time>2020-7-27T22:42:47Z</time></trkpt>
<trkpt lat="46.59464" lon="6.30995"><ele></ele><time>2020-7-27T22:42:50Z</time></trkpt>
<trkpt lat="46.59464" lon="6.30995"><ele></ele><time>2020-7-27T22:42:53Z</time></trkpt>
<trkpt lat="46.59464" lon="6.30995"><ele></ele><time>2020-7-27T22:42:56Z</time></trkpt>
<trkpt lat="46.59464" lon="6.30994"><ele></ele><time>2020-7-27T22:42:59Z</time></trkpt>
<trkpt lat="46.59464" lon="6.30995"><ele></ele><time>2020-7-27T22:43:2Z</time></trkpt>
<trkpt lat="46.59464" lon="6.30994"><ele></ele><time>2020-7-27T22:43:5Z</time></trkpt>
<trkpt lat="46.59464" lon="6.30994"><ele></ele><time>2020-7-27T22:43:8Z</time></trkpt>
<trkpt lat="46.59464" lon="6.30994"><ele></ele><time>2020-7-27T22:43:11Z</time></trkpt>
<trkpt lat="46.59465" lon="6.30992"><ele></ele><time>2020-7-27T22:43:14Z</time></trkpt>
<trkpt lat="46.59465" lon="6.3099"><ele></ele><time>2020-7-27T22:43:17Z</time></trkpt>
<trkpt lat="46.59465" lon="6.3099"><ele></ele><time>2020-7-27T22:43:20Z</time></trkpt>
<trkpt lat="46.59465" lon="6.3099"><ele></ele><time>2020-7-27T22:43:23Z</time></trkpt>
<trkpt lat="46.59465" lon="6.30992"><ele></ele><time>2020-7-27T22:43:26Z</time></trkpt>
<trkpt lat="46.59464" lon="6.30994"><ele></ele><time>2020-7-27T22:43:29Z</time></trkpt>
<trkpt lat="46.59464" lon="6.30995"><ele></ele><time>2020-7-27T22:43:32Z</time></trkpt>
<trkpt lat="46.59464" lon="6.30994"><ele></ele><time>2020-7-27T22:43:35Z</time></trkpt>
<trkpt lat="46.59464" lon="6.30995"><ele></ele><time>2020-7-27T22:43:38Z</time></trkpt>
<trkpt lat="46.59464" lon="6.30995"><ele></ele><time>2020-7-27T22:43:41Z</time></trkpt>
<trkpt lat="46.59464" lon="6.30995"><ele></ele><time>2020-7-27T22:43:44Z</time></trkpt>
<trkpt lat="46.59465" lon="6.30994"><ele></ele><time>2020-7-27T22:43:47Z</time></trkpt>
<trkpt lat="46.59464" lon="6.30995"><ele></ele><time>2020-7-27T22:43:50Z</time></trkpt>
<trkpt lat="46.59464" lon="6.30995"><ele></ele><time>2020-7-27T22:43:53Z</time></trkpt>
<trkpt lat="46.59465" lon="6.30994"><ele></ele><time>2020-7-27T22:43:56Z</time></trkpt>
<trkpt lat="46.59464" lon="6.30994"><ele></ele><time>2020-7-27T22:43:59Z</time></trkpt>
<trkpt lat="46.59465" lon="6.30991"><ele></ele><time>2020-7-27T22:44:2Z</time></trkpt>
<trkpt lat="46.59464" lon="6.30991"><ele></ele><time>2020-7-27T22:44:5Z</time></trkpt>
<trkpt lat="46.59464" lon="6.30991"><ele></ele><time>2020-7-27T22:44:8Z</time></trkpt>
<trkpt lat="46.59464" lon="6.30991"><ele></ele><time>2020-7-27T22:44:11Z</time></trkpt>
<trkpt lat="46.59464" lon="6.30991"><ele></ele><time>2020-7-27T22:44:14Z</time></trkpt>
<trkpt lat="46.59463" lon="6.30992"><ele></ele><time>2020-7-27T22:44:17Z</time></trkpt>
<trkpt lat="46.59464" lon="6.30993"><ele></ele><time>2020-7-27T22:44:20Z</time></trkpt>
<trkpt lat="46.59464" lon="6.30993"><ele></ele><time>2020-7-27T22:44:23Z</time></trkpt>
<trkpt lat="46.59464" lon="6.30993"><ele></ele><time>2020-7-27T22:44:26Z</time></trkpt>
<trkpt lat="46.59466" lon="6.30991"><ele></ele><time>2020-7-27T22:44:29Z</time></trkpt>
<trkpt lat="46.59465" lon="6.30992"><ele></ele><time>2020-7-27T22:44:32Z</time></trkpt>
<trkpt lat="46.59466" lon="6.30991"><ele></ele><time>2020-7-27T22:44:35Z</time></trkpt>
<trkpt lat="46.59467" lon="6.30989"><ele></ele><time>2020-7-27T22:44:38Z</time></trkpt>
<trkpt lat="46.59467" lon="6.3099"><ele></ele><time>2020-7-27T22:44:41Z</time></trkpt>
<trkpt lat="46.59466" lon="6.30993"><ele></ele><time>2020-7-27T22:44:44Z</time></trkpt>
<trkpt lat="46.59465" lon="6.30992"><ele></ele><time>2020-7-27T22:44:47Z</time></trkpt>
<trkpt lat="46.59465" lon="6.30992"><ele></ele><time>2020-7-27T22:44:50Z</time></trkpt>
<trkpt lat="46.59465" lon="6.30991"><ele></ele><time>2020-7-27T22:44:53Z</time></trkpt>
<trkpt lat="46.59464" lon="6.30992"><ele></ele><time>2020-7-27T22:44:56Z</time></trkpt>
<trkpt lat="46.59464" lon="6.30992"><ele></ele><time>2020-7-27T22:44:59Z</time></trkpt>
<trkpt lat="46.59464" lon="6.30992"><ele></ele><time>2020-7-27T22:45:2Z</time></trkpt>
<trkpt lat="46.59464" lon="6.30992"><ele></ele><time>2020-7-27T22:45:5Z</time></trkpt>
<trkpt lat="46.59464" lon="6.30992"><ele></ele><time>2020-7-27T22:45:8Z</time></trkpt>
<trkpt lat="46.59464" lon="6.30992"><ele></ele><time>2020-7-27T22:45:11Z</time></trkpt>
<trkpt lat="46.59464" lon="6.30992"><ele></ele><time>2020-7-27T22:45:14Z</time></trkpt>
<trkpt lat="46.59464" lon="6.30992"><ele></ele><time>2020-7-27T22:45:17Z</time></trkpt>
<trkpt lat="46.59464" lon="6.30992"><ele></ele><time>2020-7-27T22:45:20Z</time></trkpt>
<trkpt lat="46.59464" lon="6.30992"><ele></ele><time>2020-7-27T22:45:23Z</time></trkpt>
<trkpt lat="46.59464" lon="6.30992"><ele></ele><time>2020-7-27T22:45:26Z</time></trkpt>
<trkpt lat="46.59465" lon="6.30992"><ele></ele><time>2020-7-27T22:45:29Z</time></trkpt>
<trkpt lat="46.59465" lon="6.30992"><ele></ele><time>2020-7-27T22:45:32Z</time></trkpt>
<trkpt lat="46.59464" lon="6.30992"><ele></ele><time>2020-7-27T22:45:35Z</time></trkpt>
<trkpt lat="46.59464" lon="6.30992"><ele></ele><time>2020-7-27T22:45:38Z</time></trkpt>
<trkpt lat="46.59464" lon="6.30992"><ele></ele><time>2020-7-27T22:45:41Z</time></trkpt>
<trkpt lat="46.59464" lon="6.30992"><ele></ele><time>2020-7-27T22:45:44Z</time></trkpt>
<trkpt lat="46.59464" lon="6.30992"><ele></ele><time>2020-7-27T22:45:47Z</time></trkpt>
<trkpt lat="46.59464" lon="6.30992"><ele></ele><time>2020-7-27T22:45:50Z</time></trkpt>
<trkpt lat="46.59464" lon="6.30992"><ele></ele><time>2020-7-27T22:45:53Z</time></trkpt>
<trkpt lat="46.59464" lon="6.30992"><ele></ele><time>2020-7-27T22:45:56Z</time></trkpt>
<trkpt lat="46.59464" lon="6.30992"><ele></ele><time>2020-7-27T22:45:59Z</time></trkpt>
<trkpt lat="46.59464" lon="6.30993"><ele></ele><time>2020-7-27T22:46:2Z</time></trkpt>
<trkpt lat="46.59464" lon="6.30992"><ele></ele><time>2020-7-27T22:46:5Z</time></trkpt>
<trkpt lat="46.59464" lon="6.30991"><ele></ele><time>2020-7-27T22:46:8Z</time></trkpt>
<trkpt lat="46.59464" lon="6.30991"><ele></ele><time>2020-7-27T22:46:11Z</time></trkpt>
<trkpt lat="46.59464" lon="6.30991"><ele></ele><time>2020-7-27T22:46:14Z</time></trkpt>
<trkpt lat="46.59464" lon="6.30991"><ele></ele><time>2020-7-27T22:46:17Z</time></trkpt>
<trkpt lat="46.59463" lon="6.30993"><ele></ele><time>2020-7-27T22:46:20Z</time></trkpt>
<trkpt lat="46.59463" lon="6.30993"><ele></ele><time>2020-7-27T22:46:23Z</time></trkpt>
<trkpt lat="46.59463" lon="6.30993"><ele></ele><time>2020-7-27T22:46:26Z</time></trkpt>
<trkpt lat="46.59463" lon="6.30993"><ele></ele><time>2020-7-27T22:46:29Z</time></trkpt>
<trkpt lat="46.59463" lon="6.30992"><ele></ele><time>2020-7-27T22:46:32Z</time></trkpt>
<trkpt lat="46.59463" lon="6.30992"><ele></ele><time>2020-7-27T22:46:35Z</time></trkpt>
<trkpt lat="46.59463" lon="6.30992"><ele></ele><time>2020-7-27T22:46:38Z</time></trkpt>
<trkpt lat="46.59463" lon="6.30992"><ele></ele><time>2020-7-27T22:46:41Z</time></trkpt>
<trkpt lat="46.59463" lon="6.30992"><ele></ele><time>2020-7-27T22:46:44Z</time></trkpt>
<trkpt lat="46.59463" lon="6.30992"><ele></ele><time>2020-7-27T22:46:47Z</time></trkpt>
<trkpt lat="46.59463" lon="6.30992"><ele></ele><time>2020-7-27T22:46:50Z</time></trkpt>
<trkpt lat="46.59464" lon="6.30992"><ele></ele><time>2020-7-27T22:46:53Z</time></trkpt>
<trkpt lat="46.59464" lon="6.30992"><ele></ele><time>2020-7-27T22:46:56Z</time></trkpt>
<trkpt lat="46.59464" lon="6.30992"><ele></ele><time>2020-7-27T22:46:59Z</time></trkpt>
<trkpt lat="46.59464" lon="6.30991"><ele></ele><time>2020-7-27T22:47:2Z</time></trkpt>
<trkpt lat="46.59464" lon="6.30991"><ele></ele><time>2020-7-27T22:47:5Z</time></trkpt>
<trkpt lat="46.59464" lon="6.30991"><ele></ele><time>2020-7-27T22:47:8Z</time></trkpt>
<trkpt lat="46.59464" lon="6.30991"><ele></ele><time>2020-7-27T22:47:11Z</time></trkpt>
<trkpt lat="46.59464" lon="6.30991"><ele></ele><time>2020-7-27T22:47:14Z</time></trkpt>
<trkpt lat="46.59463" lon="6.30991"><ele></ele><time>2020-7-27T22:47:17Z</time></trkpt>
<trkpt lat="46.59463" lon="6.30991"><ele></ele><time>2020-7-27T22:47:20Z</time></trkpt>
<trkpt lat="46.59464" lon="6.30991"><ele></ele><time>2020-7-27T22:47:23Z</time></trkpt>
<trkpt lat="46.59464" lon="6.3099"><ele></ele><time>2020-7-27T22:47:26Z</time></trkpt>
<trkpt lat="46.59464" lon="6.30991"><ele></ele><time>2020-7-27T22:47:29Z</time></trkpt>
<trkpt lat="46.59464" lon="6.30991"><ele></ele><time>2020-7-27T22:47:32Z</time></trkpt>
<trkpt lat="46.59464" lon="6.30991"><ele></ele><time>2020-7-27T22:47:35Z</time></trkpt>
<trkpt lat="46.59466" lon="6.30986"><ele></ele><time>2020-7-27T22:47:38Z</time></trkpt>
<trkpt lat="46.59466" lon="6.30986"><ele></ele><time>2020-7-27T22:47:41Z</time></trkpt>
<trkpt lat="46.59464" lon="6.30991"><ele></ele><time>2020-7-27T22:47:44Z</time></trkpt>
<trkpt lat="46.59464" lon="6.30991"><ele></ele><time>2020-7-27T22:47:47Z</time></trkpt>
<trkpt lat="46.59464" lon="6.30991"><ele></ele><time>2020-7-27T22:47:50Z</time></trkpt>
<trkpt lat="46.59464" lon="6.30991"><ele></ele><time>2020-7-27T22:47:53Z</time></trkpt>
<trkpt lat="46.59464" lon="6.30991"><ele></ele><time>2020-7-27T22:47:56Z</time></trkpt>
<trkpt lat="46.59464" lon="6.30991"><ele></ele><time>2020-7-27T22:47:59Z</time></trkpt>
<trkpt lat="46.59463" lon="6.30992"><ele></ele><time>2020-7-27T22:48:2Z</time></trkpt>
<trkpt lat="46.59463" lon="6.30992"><ele></ele><time>2020-7-27T22:48:5Z</time></trkpt>
<trkpt lat="46.59463" lon="6.30993"><ele></ele><time>2020-7-27T22:48:8Z</time></trkpt>
<trkpt lat="46.59463" lon="6.30993"><ele></ele><time>2020-7-27T22:48:11Z</time></trkpt>
<trkpt lat="46.59463" lon="6.30992"><ele></ele><time>2020-7-27T22:48:14Z</time></trkpt>
<trkpt lat="46.59463" lon="6.30992"><ele></ele><time>2020-7-27T22:48:17Z</time></trkpt>
<trkpt lat="46.59463" lon="6.30992"><ele></ele><time>2020-7-27T22:48:20Z</time></trkpt>
<trkpt lat="46.59463" lon="6.30992"><ele></ele><time>2020-7-27T22:48:23Z</time></trkpt>
<trkpt lat="46.59463" lon="6.30992"><ele></ele><time>2020-7-27T22:48:26Z</time></trkpt>
<trkpt lat="46.59463" lon="6.30992"><ele></ele><time>2020-7-27T22:48:29Z</time></trkpt>
<trkpt lat="46.59463" lon="6.30992"><ele></ele><time>2020-7-27T22:48:32Z</time></trkpt>
<trkpt lat="46.59462" lon="6.30992"><ele></ele><time>2020-7-27T22:48:35Z</time></trkpt>
<trkpt lat="46.59462" lon="6.30992"><ele></ele><time>2020-7-27T22:48:38Z</time></trkpt>
<trkpt lat="46.59462" lon="6.30992"><ele></ele><time>2020-7-27T22:48:41Z</time></trkpt>
<trkpt lat="46.59462" lon="6.30992"><ele></ele><time>2020-7-27T22:48:44Z</time></trkpt>
<trkpt lat="46.59462" lon="6.30992"><ele></ele><time>2020-7-27T22:48:47Z</time></trkpt>
<trkpt lat="46.59462" lon="6.30992"><ele></ele><time>2020-7-27T22:48:50Z</time></trkpt>
<trkpt lat="46.59463" lon="6.30993"><ele></ele><time>2020-7-27T22:48:53Z</time></trkpt>
<trkpt lat="46.59462" lon="6.30993"><ele></ele><time>2020-7-27T22:48:56Z</time></trkpt>
<trkpt lat="46.59463" lon="6.30993"><ele></ele><time>2020-7-27T22:48:59Z</time></trkpt>
<trkpt lat="46.59463" lon="6.30992"><ele></ele><time>2020-7-27T22:49:2Z</time></trkpt>
<trkpt lat="46.59463" lon="6.30993"><ele></ele><time>2020-7-27T22:49:5Z</time></trkpt>
<trkpt lat="46.59462" lon="6.30992"><ele></ele><time>2020-7-27T22:49:8Z</time></trkpt>
<trkpt lat="46.59462" lon="6.30993"><ele></ele><time>2020-7-27T22:49:11Z</time></trkpt>
<trkpt lat="46.59462" lon="6.30993"><ele></ele><time>2020-7-27T22:49:14Z</time></trkpt>
<trkpt lat="46.59462" lon="6.30993"><ele></ele><time>2020-7-27T22:49:17Z</time></trkpt>
<trkpt lat="46.59462" lon="6.30993"><ele></ele><time>2020-7-27T22:49:20Z</time></trkpt>
<trkpt lat="46.59462" lon="6.30992"><ele></ele><time>2020-7-27T22:49:23Z</time></trkpt>
<trkpt lat="46.59462" lon="6.30992"><ele></ele><time>2020-7-27T22:49:26Z</time></trkpt>
<trkpt lat="46.59462" lon="6.30992"><ele></ele><time>2020-7-27T22:49:29Z</time></trkpt>
<trkpt lat="46.59462" lon="6.30991"><ele></ele><time>2020-7-27T22:49:32Z</time></trkpt>
<trkpt lat="46.59462" lon="6.30991"><ele></ele><time>2020-7-27T22:49:35Z</time></trkpt>
<trkpt lat="46.59462" lon="6.30991"><ele></ele><time>2020-7-27T22:49:38Z</time></trkpt>
<trkpt lat="46.59462" lon="6.30991"><ele></ele><time>2020-7-27T22:49:41Z</time></trkpt>
<trkpt lat="46.59462" lon="6.30991"><ele></ele><time>2020-7-27T22:49:44Z</time></trkpt>
<trkpt lat="46.59463" lon="6.30989"><ele></ele><time>2020-7-27T22:49:47Z</time></trkpt>
<trkpt lat="46.59462" lon="6.30991"><ele></ele><time>2020-7-27T22:49:50Z</time></trkpt>
<trkpt lat="46.59462" lon="6.30991"><ele></ele><time>2020-7-27T22:49:53Z</time></trkpt>
<trkpt lat="46.59462" lon="6.30991"><ele></ele><time>2020-7-27T22:49:56Z</time></trkpt>
<trkpt lat="46.59463" lon="6.3099"><ele></ele><time>2020-7-27T22:49:59Z</time></trkpt>
<trkpt lat="46.59463" lon="6.3099"><ele></ele><time>2020-7-27T22:50:2Z</time></trkpt>
<trkpt lat="46.59464" lon="6.3099"><ele></ele><time>2020-7-27T22:50:5Z</time></trkpt>
<trkpt lat="46.59466" lon="6.30986"><ele></ele><time>2020-7-27T22:50:8Z</time></trkpt>
<trkpt lat="46.59466" lon="6.30985"><ele></ele><time>2020-7-27T22:50:11Z</time></trkpt>
<trkpt lat="46.59465" lon="6.30985"><ele></ele><time>2020-7-27T22:50:14Z</time></trkpt>
<trkpt lat="46.59465" lon="6.30985"><ele></ele><time>2020-7-27T22:50:17Z</time></trkpt>
<trkpt lat="46.59464" lon="6.30984"><ele></ele><time>2020-7-27T22:50:20Z</time></trkpt>
<trkpt lat="46.59464" lon="6.30984"><ele></ele><time>2020-7-27T22:50:23Z</time></trkpt>
<trkpt lat="46.59465" lon="6.30984"><ele></ele><time>2020-7-27T22:50:26Z</time></trkpt>
<trkpt lat="46.59465" lon="6.30984"><ele></ele><time>2020-7-27T22:50:29Z</time></trkpt>
<trkpt lat="46.59466" lon="6.30983"><ele></ele><time>2020-7-27T22:50:32Z</time></trkpt>
<trkpt lat="46.59466" lon="6.30983"><ele></ele><time>2020-7-27T22:50:35Z</time></trkpt>
<trkpt lat="46.59467" lon="6.30984"><ele></ele><time>2020-7-27T22:50:38Z</time></trkpt>
<trkpt lat="46.59463" lon="6.30992"><ele></ele><time>2020-7-27T22:50:41Z</time></trkpt>
<trkpt lat="46.59463" lon="6.30991"><ele></ele><time>2020-7-27T22:50:44Z</time></trkpt>
<trkpt lat="46.59463" lon="6.3099"><ele></ele><time>2020-7-27T22:50:47Z</time></trkpt>
<trkpt lat="46.59464" lon="6.30991"><ele></ele><time>2020-7-27T22:50:50Z</time></trkpt>
<trkpt lat="46.59466" lon="6.30991"><ele></ele><time>2020-7-27T22:50:53Z</time></trkpt>
<trkpt lat="46.59466" lon="6.30991"><ele></ele><time>2020-7-27T22:50:56Z</time></trkpt>
<trkpt lat="46.59466" lon="6.30991"><ele></ele><time>2020-7-27T22:50:59Z</time></trkpt>
<trkpt lat="46.59464" lon="6.30992"><ele></ele><time>2020-7-27T22:51:2Z</time></trkpt>
<trkpt lat="46.59466" lon="6.30991"><ele></ele><time>2020-7-27T22:51:5Z</time></trkpt>
<trkpt lat="46.59464" lon="6.3099"><ele></ele><time>2020-7-27T22:51:8Z</time></trkpt>
<trkpt lat="46.59465" lon="6.30991"><ele></ele><time>2020-7-27T22:51:11Z</time></trkpt>
<trkpt lat="46.59463" lon="6.3099"><ele></ele><time>2020-7-27T22:51:14Z</time></trkpt>
<trkpt lat="46.59463" lon="6.30991"><ele></ele><time>2020-7-27T22:51:17Z</time></trkpt>
<trkpt lat="46.59464" lon="6.3099"><ele></ele><time>2020-7-27T22:51:20Z</time></trkpt>
<trkpt lat="46.59462" lon="6.30991"><ele></ele><time>2020-7-27T22:51:23Z</time></trkpt>
<trkpt lat="46.59462" lon="6.30991"><ele></ele><time>2020-7-27T22:51:26Z</time></trkpt>
<trkpt lat="46.59462" lon="6.3099"><ele></ele><time>2020-7-27T22:51:29Z</time></trkpt>
<trkpt lat="46.59462" lon="6.3099"><ele></ele><time>2020-7-27T22:51:32Z</time></trkpt>
<trkpt lat="46.59462" lon="6.3099"><ele></ele><time>2020-7-27T22:51:35Z</time></trkpt>
<trkpt lat="46.59462" lon="6.30991"><ele></ele><time>2020-7-27T22:51:38Z</time></trkpt>
<trkpt lat="46.59462" lon="6.30991"><ele></ele><time>2020-7-27T22:51:41Z</time></trkpt>
<trkpt lat="46.59462" lon="6.30991"><ele></ele><time>2020-7-27T22:51:44Z</time></trkpt>
<trkpt lat="46.59462" lon="6.30991"><ele></ele><time>2020-7-27T22:51:47Z</time></trkpt>
<trkpt lat="46.59462" lon="6.30991"><ele></ele><time>2020-7-27T22:51:50Z</time></trkpt>
<trkpt lat="46.59463" lon="6.30991"><ele></ele><time>2020-7-27T22:51:53Z</time></trkpt>
<trkpt lat="46.59463" lon="6.30991"><ele></ele><time>2020-7-27T22:51:56Z</time></trkpt>
<trkpt lat="46.59463" lon="6.30991"><ele></ele><time>2020-7-27T22:51:59Z</time></trkpt>
<trkpt lat="46.59462" lon="6.30991"><ele></ele><time>2020-7-27T22:52:2Z</time></trkpt>
<trkpt lat="46.59463" lon="6.30992"><ele></ele><time>2020-7-27T22:52:5Z</time></trkpt>
<trkpt lat="46.59463" lon="6.30992"><ele></ele><time>2020-7-27T22:52:8Z</time></trkpt>
<trkpt lat="46.59463" lon="6.30992"><ele></ele><time>2020-7-27T22:52:11Z</time></trkpt>
<trkpt lat="46.59463" lon="6.30992"><ele></ele><time>2020-7-27T22:52:14Z</time></trkpt>
<trkpt lat="46.59463" lon="6.30992"><ele></ele><time>2020-7-27T22:52:17Z</time></trkpt>
<trkpt lat="46.59464" lon="6.30992"><ele></ele><time>2020-7-27T22:52:20Z</time></trkpt>
<trkpt lat="46.59464" lon="6.30991"><ele></ele><time>2020-7-27T22:52:23Z</time></trkpt>
<trkpt lat="46.59465" lon="6.30989"><ele></ele><time>2020-7-27T22:52:26Z</time></trkpt>
<trkpt lat="46.59465" lon="6.30989"><ele></ele><time>2020-7-27T22:52:29Z</time></trkpt>
<trkpt lat="46.59465" lon="6.30989"><ele></ele><time>2020-7-27T22:52:32Z</time></trkpt>
<trkpt lat="46.59465" lon="6.30989"><ele></ele><time>2020-7-27T22:52:35Z</time></trkpt>
<trkpt lat="46.59465" lon="6.30989"><ele></ele><time>2020-7-27T22:52:38Z</time></trkpt>
<trkpt lat="46.59465" lon="6.30988"><ele></ele><time>2020-7-27T22:52:41Z</time></trkpt>
<trkpt lat="46.59465" lon="6.30989"><ele></ele><time>2020-7-27T22:52:44Z</time></trkpt>
<trkpt lat="46.59465" lon="6.30989"><ele></ele><time>2020-7-27T22:52:47Z</time></trkpt>
<trkpt lat="46.59465" lon="6.30989"><ele></ele><time>2020-7-27T22:52:50Z</time></trkpt>
<trkpt lat="46.59464" lon="6.30992"><ele></ele><time>2020-7-27T22:52:53Z</time></trkpt>
<trkpt lat="46.59463" lon="6.30994"><ele></ele><time>2020-7-27T22:52:56Z</time></trkpt>
<trkpt lat="46.59463" lon="6.30993"><ele></ele><time>2020-7-27T22:52:59Z</time></trkpt>
<trkpt lat="46.59463" lon="6.30993"><ele></ele><time>2020-7-27T22:53:2Z</time></trkpt>
<trkpt lat="46.59463" lon="6.30993"><ele></ele><time>2020-7-27T22:53:5Z</time></trkpt>
<trkpt lat="46.59464" lon="6.3099"><ele></ele><time>2020-7-27T22:53:8Z</time></trkpt>
<trkpt lat="46.59464" lon="6.3099"><ele></ele><time>2020-7-27T22:53:11Z</time></trkpt>
<trkpt lat="46.59464" lon="6.30989"><ele></ele><time>2020-7-27T22:53:14Z</time></trkpt>
<trkpt lat="46.59463" lon="6.3099"><ele></ele><time>2020-7-27T22:53:17Z</time></trkpt>
<trkpt lat="46.59463" lon="6.3099"><ele></ele><time>2020-7-27T22:53:20Z</time></trkpt>
<trkpt lat="46.59464" lon="6.3099"><ele></ele><time>2020-7-27T22:53:23Z</time></trkpt>
<trkpt lat="46.59464" lon="6.30989"><ele></ele><time>2020-7-27T22:53:26Z</time></trkpt>
<trkpt lat="46.59465" lon="6.3099"><ele></ele><time>2020-7-27T22:53:29Z</time></trkpt>
<trkpt lat="46.59465" lon="6.3099"><ele></ele><time>2020-7-27T22:53:32Z</time></trkpt>
<trkpt lat="46.59463" lon="6.3099"><ele></ele><time>2020-7-27T22:53:35Z</time></trkpt>
<trkpt lat="46.59463" lon="6.3099"><ele></ele><time>2020-7-27T22:53:38Z</time></trkpt>
<trkpt lat="46.59462" lon="6.30991"><ele></ele><time>2020-7-27T22:53:41Z</time></trkpt>
<trkpt lat="46.59463" lon="6.30991"><ele></ele><time>2020-7-27T22:53:44Z</time></trkpt>
<trkpt lat="46.59462" lon="6.30991"><ele></ele><time>2020-7-27T22:53:47Z</time></trkpt>
<trkpt lat="46.59462" lon="6.30991"><ele></ele><time>2020-7-27T22:53:50Z</time></trkpt>
<trkpt lat="46.59462" lon="6.30991"><ele></ele><time>2020-7-27T22:53:53Z</time></trkpt>
<trkpt lat="46.59462" lon="6.30991"><ele></ele><time>2020-7-27T22:53:56Z</time></trkpt>
<trkpt lat="46.59462" lon="6.30991"><ele></ele><time>2020-7-27T22:53:59Z</time></trkpt>
<trkpt lat="46.59461" lon="6.30991"><ele></ele><time>2020-7-27T22:54:2Z</time></trkpt>
<trkpt lat="46.59462" lon="6.30991"><ele></ele><time>2020-7-27T22:54:5Z</time></trkpt>
<trkpt lat="46.59463" lon="6.30991"><ele></ele><time>2020-7-27T22:54:8Z</time></trkpt>
<trkpt lat="46.59464" lon="6.30984"><ele></ele><time>2020-7-27T22:54:11Z</time></trkpt>
<trkpt lat="46.59464" lon="6.30984"><ele></ele><time>2020-7-27T22:54:14Z</time></trkpt>
<trkpt lat="46.59464" lon="6.30985"><ele></ele><time>2020-7-27T22:54:17Z</time></trkpt>
<trkpt lat="46.59465" lon="6.30984"><ele></ele><time>2020-7-27T22:54:20Z</time></trkpt>
<trkpt lat="46.59468" lon="6.3098"><ele></ele><time>2020-7-27T22:54:23Z</time></trkpt>
<trkpt lat="46.59468" lon="6.3098"><ele></ele><time>2020-7-27T22:54:26Z</time></trkpt>
<trkpt lat="46.59467" lon="6.30983"><ele></ele><time>2020-7-27T22:54:29Z</time></trkpt>
<trkpt lat="46.59466" lon="6.30985"><ele></ele><time>2020-7-27T22:54:32Z</time></trkpt>
<trkpt lat="46.59466" lon="6.30985"><ele></ele><time>2020-7-27T22:54:35Z</time></trkpt>
<trkpt lat="46.59466" lon="6.30986"><ele></ele><time>2020-7-27T22:54:38Z</time></trkpt>
<trkpt lat="46.59466" lon="6.30986"><ele></ele><time>2020-7-27T22:54:41Z</time></trkpt>
<trkpt lat="46.59465" lon="6.30987"><ele></ele><time>2020-7-27T22:54:44Z</time></trkpt>
<trkpt lat="46.59465" lon="6.30988"><ele></ele><time>2020-7-27T22:54:47Z</time></trkpt>
<trkpt lat="46.59465" lon="6.30988"><ele></ele><time>2020-7-27T22:54:50Z</time></trkpt>
<trkpt lat="46.59465" lon="6.30988"><ele></ele><time>2020-7-27T22:54:53Z</time></trkpt>
<trkpt lat="46.59465" lon="6.30987"><ele></ele><time>2020-7-27T22:54:56Z</time></trkpt>
<trkpt lat="46.59463" lon="6.3099"><ele></ele><time>2020-7-27T22:54:59Z</time></trkpt>
<trkpt lat="46.59462" lon="6.3099"><ele></ele><time>2020-7-27T22:55:2Z</time></trkpt>
<trkpt lat="46.59462" lon="6.3099"><ele></ele><time>2020-7-27T22:55:5Z</time></trkpt>
<trkpt lat="46.59462" lon="6.30991"><ele></ele><time>2020-7-27T22:55:8Z</time></trkpt>
<trkpt lat="46.59462" lon="6.30992"><ele></ele><time>2020-7-27T22:55:11Z</time></trkpt>
<trkpt lat="46.59462" lon="6.30992"><ele></ele><time>2020-7-27T22:55:14Z</time></trkpt>
<trkpt lat="46.59463" lon="6.30991"><ele></ele><time>2020-7-27T22:55:17Z</time></trkpt>
<trkpt lat="46.59464" lon="6.30988"><ele></ele><time>2020-7-27T22:55:20Z</time></trkpt>
<trkpt lat="46.59464" lon="6.30988"><ele></ele><time>2020-7-27T22:55:23Z</time></trkpt>
<trkpt lat="46.59464" lon="6.3099"><ele></ele><time>2020-7-27T22:55:26Z</time></trkpt>
<trkpt lat="46.59463" lon="6.30991"><ele></ele><time>2020-7-27T22:55:29Z</time></trkpt>
<trkpt lat="46.59463" lon="6.30992"><ele></ele><time>2020-7-27T22:55:32Z</time></trkpt>
<trkpt lat="46.59464" lon="6.30991"><ele></ele><time>2020-7-27T22:55:35Z</time></trkpt>
<trkpt lat="46.59464" lon="6.3099"><ele></ele><time>2020-7-27T22:55:38Z</time></trkpt>
<trkpt lat="46.59464" lon="6.3099"><ele></ele><time>2020-7-27T22:55:41Z</time></trkpt>
<trkpt lat="46.59464" lon="6.3099"><ele></ele><time>2020-7-27T22:55:44Z</time></trkpt>
<trkpt lat="46.59464" lon="6.3099"><ele></ele><time>2020-7-27T22:55:47Z</time></trkpt>
<trkpt lat="46.59464" lon="6.3099"><ele></ele><time>2020-7-27T22:55:50Z</time></trkpt>
<trkpt lat="46.59463" lon="6.30992"><ele></ele><time>2020-7-27T22:55:53Z</time></trkpt>
<trkpt lat="46.59462" lon="6.30992"><ele></ele><time>2020-7-27T22:55:56Z</time></trkpt>
<trkpt lat="46.59462" lon="6.30991"><ele></ele><time>2020-7-27T22:55:59Z</time></trkpt>
<trkpt lat="46.59461" lon="6.30989"><ele></ele><time>2020-7-27T22:56:2Z</time></trkpt>
<trkpt lat="46.59465" lon="6.30981"><ele></ele><time>2020-7-27T22:56:5Z</time></trkpt>
<trkpt lat="46.59464" lon="6.30981"><ele></ele><time>2020-7-27T22:56:8Z</time></trkpt>
<trkpt lat="46.59464" lon="6.30981"><ele></ele><time>2020-7-27T22:56:11Z</time></trkpt>
<trkpt lat="46.59465" lon="6.30983"><ele></ele><time>2020-7-27T22:56:14Z</time></trkpt>
<trkpt lat="46.59462" lon="6.30992"><ele></ele><time>2020-7-27T22:56:17Z</time></trkpt>
<trkpt lat="46.59463" lon="6.30993"><ele></ele><time>2020-7-27T22:56:20Z</time></trkpt>
<trkpt lat="46.59464" lon="6.3099"><ele></ele><time>2020-7-27T22:56:23Z</time></trkpt>
<trkpt lat="46.59464" lon="6.3099"><ele></ele><time>2020-7-27T22:56:26Z</time></trkpt>
<trkpt lat="46.59464" lon="6.30991"><ele></ele><time>2020-7-27T22:56:29Z</time></trkpt>
<trkpt lat="46.59464" lon="6.30991"><ele></ele><time>2020-7-27T22:56:32Z</time></trkpt>
<trkpt lat="46.59463" lon="6.30992"><ele></ele><time>2020-7-27T22:56:35Z</time></trkpt>
<trkpt lat="46.59464" lon="6.30992"><ele></ele><time>2020-7-27T22:56:38Z</time></trkpt>
<trkpt lat="46.59462" lon="6.3099"><ele></ele><time>2020-7-27T22:56:41Z</time></trkpt>
<trkpt lat="46.5946" lon="6.30989"><ele></ele><time>2020-7-27T22:56:44Z</time></trkpt>
<trkpt lat="46.5946" lon="6.30989"><ele></ele><time>2020-7-27T22:56:47Z</time></trkpt>
<trkpt lat="46.5946" lon="6.3099"><ele></ele><time>2020-7-27T22:56:50Z</time></trkpt>
<trkpt lat="46.5946" lon="6.3099"><ele></ele><time>2020-7-27T22:56:53Z</time></trkpt>
<trkpt lat="46.59461" lon="6.30989"><ele></ele><time>2020-7-27T22:56:56Z</time></trkpt>
<trkpt lat="46.59463" lon="6.30984"><ele></ele><time>2020-7-27T22:56:59Z</time></trkpt>
<trkpt lat="46.59464" lon="6.30983"><ele></ele><time>2020-7-27T22:57:2Z</time></trkpt>
<trkpt lat="46.59466" lon="6.30982"><ele></ele><time>2020-7-27T22:57:5Z</time></trkpt>
<trkpt lat="46.59467" lon="6.30981"><ele></ele><time>2020-7-27T22:57:8Z</time></trkpt>
<trkpt lat="46.59472" lon="6.30975"><ele></ele><time>2020-7-27T22:57:11Z</time></trkpt>
<trkpt lat="46.59472" lon="6.30973"><ele></ele><time>2020-7-27T22:57:14Z</time></trkpt>
<trkpt lat="46.59471" lon="6.30972"><ele></ele><time>2020-7-27T22:57:17Z</time></trkpt>
<trkpt lat="46.59471" lon="6.30971"><ele></ele><time>2020-7-27T22:57:20Z</time></trkpt>
<trkpt lat="46.59472" lon="6.30971"><ele></ele><time>2020-7-27T22:57:23Z</time></trkpt>
<trkpt lat="46.59472" lon="6.30971"><ele></ele><time>2020-7-27T22:57:26Z</time></trkpt>
<trkpt lat="46.59472" lon="6.30971"><ele></ele><time>2020-7-27T22:57:29Z</time></trkpt>
<trkpt lat="46.59472" lon="6.30973"><ele></ele><time>2020-7-27T22:57:32Z</time></trkpt>
<trkpt lat="46.59472" lon="6.30973"><ele></ele><time>2020-7-27T22:57:35Z</time></trkpt>
<trkpt lat="46.59473" lon="6.30973"><ele></ele><time>2020-7-27T22:57:38Z</time></trkpt>
<trkpt lat="46.59473" lon="6.30973"><ele></ele><time>2020-7-27T22:57:41Z</time></trkpt>
<trkpt lat="46.59469" lon="6.30975"><ele></ele><time>2020-7-27T22:57:44Z</time></trkpt>
<trkpt lat="46.59466" lon="6.30971"><ele></ele><time>2020-7-27T22:57:47Z</time></trkpt>
<trkpt lat="46.59451" lon="6.30949"><ele></ele><time>2020-7-27T22:57:50Z</time></trkpt>
<trkpt lat="46.59449" lon="6.30942"><ele></ele><time>2020-7-27T22:57:53Z</time></trkpt>
<trkpt lat="46.59448" lon="6.30941"><ele></ele><time>2020-7-27T22:57:56Z</time></trkpt>
<trkpt lat="46.59441" lon="6.30927"><ele></ele><time>2020-7-27T22:57:59Z</time></trkpt>
<trkpt lat="46.59435" lon="6.30916"><ele></ele><time>2020-7-27T22:58:2Z</time></trkpt>
<trkpt lat="46.59434" lon="6.30913"><ele></ele><time>2020-7-27T22:58:5Z</time></trkpt>
<trkpt lat="46.59433" lon="6.30912"><ele></ele><time>2020-7-27T22:58:8Z</time></trkpt>
<trkpt lat="46.59431" lon="6.30905"><ele></ele><time>2020-7-27T22:58:11Z</time></trkpt>
<trkpt lat="46.59429" lon="6.30903"><ele></ele><time>2020-7-27T22:58:14Z</time></trkpt>
<trkpt lat="46.59423" lon="6.30905"><ele></ele><time>2020-7-27T22:58:17Z</time></trkpt>
<trkpt lat="46.59419" lon="6.30905"><ele></ele><time>2020-7-27T22:58:20Z</time></trkpt>
<trkpt lat="46.59419" lon="6.30905"><ele></ele><time>2020-7-27T22:58:23Z</time></trkpt>
<trkpt lat="46.59409" lon="6.30894"><ele></ele><time>2020-7-27T22:58:26Z</time></trkpt>
<trkpt lat="46.59399" lon="6.30877"><ele></ele><time>2020-7-27T22:58:29Z</time></trkpt>
<trkpt lat="46.59396" lon="6.30871"><ele></ele><time>2020-7-27T22:58:32Z</time></trkpt>
<trkpt lat="46.59389" lon="6.30858"><ele></ele><time>2020-7-27T22:58:35Z</time></trkpt>
<trkpt lat="46.59387" lon="6.3085"><ele></ele><time>2020-7-27T22:58:38Z</time></trkpt>
<trkpt lat="46.59389" lon="6.30841"><ele></ele><time>2020-7-27T22:58:41Z</time></trkpt>
<trkpt lat="46.59391" lon="6.30835"><ele></ele><time>2020-7-27T22:58:44Z</time></trkpt>
<trkpt lat="46.59391" lon="6.30829"><ele></ele><time>2020-7-27T22:58:47Z</time></trkpt>
<trkpt lat="46.59393" lon="6.30827"><ele></ele><time>2020-7-27T22:58:50Z</time></trkpt>
<trkpt lat="46.59392" lon="6.30822"><ele></ele><time>2020-7-27T22:58:53Z</time></trkpt>
<trkpt lat="46.59392" lon="6.30821"><ele></ele><time>2020-7-27T22:58:56Z</time></trkpt>
<trkpt lat="46.59397" lon="6.3081"><ele></ele><time>2020-7-27T22:58:59Z</time></trkpt>
<trkpt lat="46.59395" lon="6.30804"><ele></ele><time>2020-7-27T22:59:2Z</time></trkpt>
<trkpt lat="46.59395" lon="6.30801"><ele></ele><time>2020-7-27T22:59:5Z</time></trkpt>
<trkpt lat="46.59397" lon="6.30797"><ele></ele><time>2020-7-27T22:59:8Z</time></trkpt>
<trkpt lat="46.59396" lon="6.30785"><ele></ele><time>2020-7-27T22:59:11Z</time></trkpt>
<trkpt lat="46.59394" lon="6.3077"><ele></ele><time>2020-7-27T22:59:14Z</time></trkpt>
<trkpt lat="46.59392" lon="6.30765"><ele></ele><time>2020-7-27T22:59:17Z</time></trkpt>
<trkpt lat="46.59392" lon="6.3076"><ele></ele><time>2020-7-27T22:59:20Z</time></trkpt>
<trkpt lat="46.59389" lon="6.30739"><ele></ele><time>2020-7-27T22:59:23Z</time></trkpt>
<trkpt lat="46.59389" lon="6.30736"><ele></ele><time>2020-7-27T22:59:26Z</time></trkpt>
<trkpt lat="46.59386" lon="6.30729"><ele></ele><time>2020-7-27T22:59:29Z</time></trkpt>
<trkpt lat="46.59385" lon="6.30728"><ele></ele><time>2020-7-27T22:59:32Z</time></trkpt>
<trkpt lat="46.59385" lon="6.30718"><ele></ele><time>2020-7-27T22:59:35Z</time></trkpt>
<trkpt lat="46.59384" lon="6.30715"><ele></ele><time>2020-7-27T22:59:38Z</time></trkpt>
<trkpt lat="46.59383" lon="6.30709"><ele></ele><time>2020-7-27T22:59:41Z</time></trkpt>
<trkpt lat="46.59377" lon="6.30697"><ele></ele><time>2020-7-27T22:59:44Z</time></trkpt>
<trkpt lat="46.59364" lon="6.30684"><ele></ele><time>2020-7-27T22:59:47Z</time></trkpt>
<trkpt lat="46.59363" lon="6.30681"><ele></ele><time>2020-7-27T22:59:50Z</time></trkpt>
<trkpt lat="46.59362" lon="6.30677"><ele></ele><time>2020-7-27T22:59:53Z</time></trkpt>
<trkpt lat="46.5936" lon="6.30669"><ele></ele><time>2020-7-27T22:59:56Z</time></trkpt>
<trkpt lat="46.5936" lon="6.30661"><ele></ele><time>2020-7-27T22:59:59Z</time></trkpt>
<trkpt lat="46.59361" lon="6.30658"><ele></ele><time>2020-7-27T23:0:2Z</time></trkpt>
<trkpt lat="46.5936" lon="6.30651"><ele></ele><time>2020-7-27T23:0:5Z</time></trkpt>
<trkpt lat="46.59356" lon="6.30649"><ele></ele><time>2020-7-27T23:0:8Z</time></trkpt>
<trkpt lat="46.59345" lon="6.3063"><ele></ele><time>2020-7-27T23:0:11Z</time></trkpt>
<trkpt lat="46.59344" lon="6.30628"><ele></ele><time>2020-7-27T23:0:14Z</time></trkpt>
<trkpt lat="46.59341" lon="6.30621"><ele></ele><time>2020-7-27T23:0:17Z</time></trkpt>
<trkpt lat="46.5934" lon="6.30619"><ele></ele><time>2020-7-27T23:0:20Z</time></trkpt>
<trkpt lat="46.5934" lon="6.30616"><ele></ele><time>2020-7-27T23:0:23Z</time></trkpt>
<trkpt lat="46.5934" lon="6.30614"><ele></ele><time>2020-7-27T23:0:26Z</time></trkpt>
<trkpt lat="46.59337" lon="6.30607"><ele></ele><time>2020-7-27T23:0:29Z</time></trkpt>
<trkpt lat="46.59336" lon="6.30605"><ele></ele><time>2020-7-27T23:0:32Z</time></trkpt>
<trkpt lat="46.59336" lon="6.30604"><ele></ele><time>2020-7-27T23:0:35Z</time></trkpt>
<trkpt lat="46.59334" lon="6.30597"><ele></ele><time>2020-7-27T23:0:38Z</time></trkpt>
<trkpt lat="46.59336" lon="6.30583"><ele></ele><time>2020-7-27T23:0:41Z</time></trkpt>
<trkpt lat="46.59336" lon="6.30572"><ele></ele><time>2020-7-27T23:0:44Z</time></trkpt>
<trkpt lat="46.59336" lon="6.30568"><ele></ele><time>2020-7-27T23:0:47Z</time></trkpt>
<trkpt lat="46.59335" lon="6.30567"><ele></ele><time>2020-7-27T23:0:50Z</time></trkpt>
<trkpt lat="46.59335" lon="6.30563"><ele></ele><time>2020-7-27T23:0:53Z</time></trkpt>
<trkpt lat="46.59335" lon="6.30562"><ele></ele><time>2020-7-27T23:0:56Z</time></trkpt>
<trkpt lat="46.59333" lon="6.30559"><ele></ele><time>2020-7-27T23:0:59Z</time></trkpt>
<trkpt lat="46.59332" lon="6.30554"><ele></ele><time>2020-7-27T23:1:2Z</time></trkpt>
<trkpt lat="46.5933" lon="6.30547"><ele></ele><time>2020-7-27T23:1:5Z</time></trkpt>
<trkpt lat="46.59329" lon="6.30526"><ele></ele><time>2020-7-27T23:1:8Z</time></trkpt>
<trkpt lat="46.5933" lon="6.30524"><ele></ele><time>2020-7-27T23:1:11Z</time></trkpt>
<trkpt lat="46.59329" lon="6.3051"><ele></ele><time>2020-7-27T23:1:14Z</time></trkpt>
<trkpt lat="46.59327" lon="6.30504"><ele></ele><time>2020-7-27T23:1:17Z</time></trkpt>
<trkpt lat="46.59323" lon="6.3048"><ele></ele><time>2020-7-27T23:1:20Z</time></trkpt>
<trkpt lat="46.5932" lon="6.30467"><ele></ele><time>2020-7-27T23:1:23Z</time></trkpt>
<trkpt lat="46.59319" lon="6.30465"><ele></ele><time>2020-7-27T23:1:26Z</time></trkpt>
<trkpt lat="46.59318" lon="6.30461"><ele></ele><time>2020-7-27T23:1:29Z</time></trkpt>
<trkpt lat="46.59318" lon="6.3044"><ele></ele><time>2020-7-27T23:1:32Z</time></trkpt>
<trkpt lat="46.59319" lon="6.30428"><ele></ele><time>2020-7-27T23:1:35Z</time></trkpt>
<trkpt lat="46.59315" lon="6.3041"><ele></ele><time>2020-7-27T23:1:38Z</time></trkpt>
<trkpt lat="46.59315" lon="6.30404"><ele></ele><time>2020-7-27T23:1:41Z</time></trkpt>
<trkpt lat="46.59316" lon="6.30392"><ele></ele><time>2020-7-27T23:1:44Z</time></trkpt>
<trkpt lat="46.59314" lon="6.30386"><ele></ele><time>2020-7-27T23:1:47Z</time></trkpt>
<trkpt lat="46.59313" lon="6.30385"><ele></ele><time>2020-7-27T23:1:50Z</time></trkpt>
<trkpt lat="46.59308" lon="6.30359"><ele></ele><time>2020-7-27T23:1:53Z</time></trkpt>
<trkpt lat="46.59305" lon="6.30351"><ele></ele><time>2020-7-27T23:1:56Z</time></trkpt>
<trkpt lat="46.59303" lon="6.30345"><ele></ele><time>2020-7-27T23:1:59Z</time></trkpt>
<trkpt lat="46.59301" lon="6.30337"><ele></ele><time>2020-7-27T23:2:2Z</time></trkpt>
<trkpt lat="46.593" lon="6.30323"><ele></ele><time>2020-7-27T23:2:5Z</time></trkpt>
<trkpt lat="46.59299" lon="6.30322"><ele></ele><time>2020-7-27T23:2:8Z</time></trkpt>
<trkpt lat="46.59298" lon="6.3032"><ele></ele><time>2020-7-27T23:2:11Z</time></trkpt>
<trkpt lat="46.59298" lon="6.3032"><ele></ele><time>2020-7-27T23:2:14Z</time></trkpt>
<trkpt lat="46.59295" lon="6.30304"><ele></ele><time>2020-7-27T23:2:17Z</time></trkpt>
<trkpt lat="46.59294" lon="6.30292"><ele></ele><time>2020-7-27T23:2:20Z</time></trkpt>
<trkpt lat="46.59296" lon="6.30293"><ele></ele><time>2020-7-27T23:2:23Z</time></trkpt>
<trkpt lat="46.59296" lon="6.30278"><ele></ele><time>2020-7-27T23:2:26Z</time></trkpt>
<trkpt lat="46.59291" lon="6.30269"><ele></ele><time>2020-7-27T23:2:29Z</time></trkpt>
<trkpt lat="46.5929" lon="6.30266"><ele></ele><time>2020-7-27T23:2:32Z</time></trkpt>
<trkpt lat="46.59287" lon="6.30261"><ele></ele><time>2020-7-27T23:2:35Z</time></trkpt>
<trkpt lat="46.59281" lon="6.30248"><ele></ele><time>2020-7-27T23:2:38Z</time></trkpt>
<trkpt lat="46.5928" lon="6.30245"><ele></ele><time>2020-7-27T23:2:41Z</time></trkpt>
<trkpt lat="46.5928" lon="6.30244"><ele></ele><time>2020-7-27T23:2:44Z</time></trkpt>
<trkpt lat="46.5928" lon="6.30244"><ele></ele><time>2020-7-27T23:2:47Z</time></trkpt>
<trkpt lat="46.5928" lon="6.30244"><ele></ele><time>2020-7-27T23:2:50Z</time></trkpt>
<trkpt lat="46.5928" lon="6.30244"><ele></ele><time>2020-7-27T23:2:53Z</time></trkpt>
<trkpt lat="46.5928" lon="6.30244"><ele></ele><time>2020-7-27T23:2:56Z</time></trkpt>
<trkpt lat="46.5928" lon="6.30244"><ele></ele><time>2020-7-27T23:2:59Z</time></trkpt>
<trkpt lat="46.5928" lon="6.30244"><ele></ele><time>2020-7-27T23:3:2Z</time></trkpt>
<trkpt lat="46.5928" lon="6.30244"><ele></ele><time>2020-7-27T23:3:5Z</time></trkpt>
<trkpt lat="46.5928" lon="6.30244"><ele></ele><time>2020-7-27T23:3:8Z</time></trkpt>
<trkpt lat="46.5928" lon="6.30244"><ele></ele><time>2020-7-27T23:3:11Z</time></trkpt>
<trkpt lat="46.59279" lon="6.30247"><ele></ele><time>2020-7-27T23:3:14Z</time></trkpt>
<trkpt lat="46.59279" lon="6.30248"><ele></ele><time>2020-7-27T23:3:17Z</time></trkpt>
<trkpt lat="46.59279" lon="6.30247"><ele></ele><time>2020-7-27T23:3:20Z</time></trkpt>
<trkpt lat="46.59278" lon="6.30248"><ele></ele><time>2020-7-27T23:3:23Z</time></trkpt>
<trkpt lat="46.59278" lon="6.30247"><ele></ele><time>2020-7-27T23:3:26Z</time></trkpt>
<trkpt lat="46.59278" lon="6.30247"><ele></ele><time>2020-7-27T23:3:29Z</time></trkpt>
<trkpt lat="46.59279" lon="6.30247"><ele></ele><time>2020-7-27T23:3:32Z</time></trkpt>
<trkpt lat="46.59283" lon="6.30221"><ele></ele><time>2020-7-27T23:3:35Z</time></trkpt>
<trkpt lat="46.59284" lon="6.3019"><ele></ele><time>2020-7-27T23:3:38Z</time></trkpt>
<trkpt lat="46.59281" lon="6.30167"><ele></ele><time>2020-7-27T23:3:41Z</time></trkpt>
<trkpt lat="46.59274" lon="6.30141"><ele></ele><time>2020-7-27T23:3:44Z</time></trkpt>
<trkpt lat="46.59268" lon="6.30128"><ele></ele><time>2020-7-27T23:3:47Z</time></trkpt>
<trkpt lat="46.59263" lon="6.3012"><ele></ele><time>2020-7-27T23:3:50Z</time></trkpt>
<trkpt lat="46.59256" lon="6.30108"><ele></ele><time>2020-7-27T23:3:53Z</time></trkpt>
<trkpt lat="46.5925" lon="6.30097"><ele></ele><time>2020-7-27T23:3:56Z</time></trkpt>
<trkpt lat="46.59234" lon="6.3007"><ele></ele><time>2020-7-27T23:3:59Z</time></trkpt>
<trkpt lat="46.59229" lon="6.30059"><ele></ele><time>2020-7-27T23:4:2Z</time></trkpt>
<trkpt lat="46.59215" lon="6.30036"><ele></ele><time>2020-7-27T23:4:5Z</time></trkpt>
<trkpt lat="46.59207" lon="6.30025"><ele></ele><time>2020-7-27T23:4:8Z</time></trkpt>
<trkpt lat="46.59191" lon="6.30012"><ele></ele><time>2020-7-27T23:4:11Z</time></trkpt>
<trkpt lat="46.5918" lon="6.30003"><ele></ele><time>2020-7-27T23:4:14Z</time></trkpt>
<trkpt lat="46.59192" lon="6.29985"><ele></ele><time>2020-7-27T23:4:17Z</time></trkpt>
<trkpt lat="46.592" lon="6.29978"><ele></ele><time>2020-7-27T23:4:20Z</time></trkpt>
<trkpt lat="46.592" lon="6.29975"><ele></ele><time>2020-7-27T23:4:23Z</time></trkpt>
<trkpt lat="46.59188" lon="6.29968"><ele></ele><time>2020-7-27T23:4:26Z</time></trkpt>
<trkpt lat="46.59167" lon="6.29957"><ele></ele><time>2020-7-27T23:4:29Z</time></trkpt>
<trkpt lat="46.59153" lon="6.29938"><ele></ele><time>2020-7-27T23:4:32Z</time></trkpt>
<trkpt lat="46.59145" lon="6.29914"><ele></ele><time>2020-7-27T23:4:35Z</time></trkpt>
<trkpt lat="46.59144" lon="6.29913"><ele></ele><time>2020-7-27T23:4:38Z</time></trkpt>
<trkpt lat="46.59137" lon="6.2991"><ele></ele><time>2020-7-27T23:4:41Z</time></trkpt>
<trkpt lat="46.59122" lon="6.29896"><ele></ele><time>2020-7-27T23:4:44Z</time></trkpt>
<trkpt lat="46.59106" lon="6.29882"><ele></ele><time>2020-7-27T23:4:47Z</time></trkpt>
<trkpt lat="46.59096" lon="6.29873"><ele></ele><time>2020-7-27T23:4:50Z</time></trkpt>
<trkpt lat="46.59092" lon="6.29869"><ele></ele><time>2020-7-27T23:4:53Z</time></trkpt>
<trkpt lat="46.59077" lon="6.29853"><ele></ele><time>2020-7-27T23:4:56Z</time></trkpt>
<trkpt lat="46.59065" lon="6.2984"><ele></ele><time>2020-7-27T23:4:59Z</time></trkpt>
<trkpt lat="46.59049" lon="6.29822"><ele></ele><time>2020-7-27T23:5:2Z</time></trkpt>
<trkpt lat="46.59035" lon="6.29803"><ele></ele><time>2020-7-27T23:5:5Z</time></trkpt>
<trkpt lat="46.59024" lon="6.2979"><ele></ele><time>2020-7-27T23:5:8Z</time></trkpt>
<trkpt lat="46.5901" lon="6.29771"><ele></ele><time>2020-7-27T23:5:11Z</time></trkpt>
<trkpt lat="46.58994" lon="6.29754"><ele></ele><time>2020-7-27T23:5:14Z</time></trkpt>
<trkpt lat="46.58985" lon="6.29751"><ele></ele><time>2020-7-27T23:5:17Z</time></trkpt>
<trkpt lat="46.58983" lon="6.29749"><ele></ele><time>2020-7-27T23:5:20Z</time></trkpt>
<trkpt lat="46.58973" lon="6.29737"><ele></ele><time>2020-7-27T23:5:23Z</time></trkpt>
<trkpt lat="46.58958" lon="6.29719"><ele></ele><time>2020-7-27T23:5:26Z</time></trkpt>
<trkpt lat="46.58943" lon="6.29704"><ele></ele><time>2020-7-27T23:5:29Z</time></trkpt>
<trkpt lat="46.5893" lon="6.29694"><ele></ele><time>2020-7-27T23:5:32Z</time></trkpt>
<trkpt lat="46.58927" lon="6.29691"><ele></ele><time>2020-7-27T23:5:35Z</time></trkpt>
<trkpt lat="46.58911" lon="6.29674"><ele></ele><time>2020-7-27T23:5:38Z</time></trkpt>
<trkpt lat="46.58888" lon="6.29657"><ele></ele><time>2020-7-27T23:5:41Z</time></trkpt>
<trkpt lat="46.58874" lon="6.29641"><ele></ele><time>2020-7-27T23:5:44Z</time></trkpt>
<trkpt lat="46.58864" lon="6.29627"><ele></ele><time>2020-7-27T23:5:47Z</time></trkpt>
<trkpt lat="46.58855" lon="6.29618"><ele></ele><time>2020-7-27T23:5:50Z</time></trkpt>
<trkpt lat="46.58848" lon="6.29608"><ele></ele><time>2020-7-27T23:5:53Z</time></trkpt>
<trkpt lat="46.5884" lon="6.29584"><ele></ele><time>2020-7-27T23:5:56Z</time></trkpt>
<trkpt lat="46.58824" lon="6.29563"><ele></ele><time>2020-7-27T23:5:59Z</time></trkpt>
<trkpt lat="46.58808" lon="6.2954"><ele></ele><time>2020-7-27T23:6:2Z</time></trkpt>
<trkpt lat="46.58792" lon="6.29522"><ele></ele><time>2020-7-27T23:6:5Z</time></trkpt>
<trkpt lat="46.58777" lon="6.29505"><ele></ele><time>2020-7-27T23:6:8Z</time></trkpt>
<trkpt lat="46.58761" lon="6.29492"><ele></ele><time>2020-7-27T23:6:11Z</time></trkpt>
<trkpt lat="46.58755" lon="6.29469"><ele></ele><time>2020-7-27T23:6:14Z</time></trkpt>
<trkpt lat="46.58754" lon="6.29442"><ele></ele><time>2020-7-27T23:6:17Z</time></trkpt>
<trkpt lat="46.58766" lon="6.29421"><ele></ele><time>2020-7-27T23:6:20Z</time></trkpt>
<trkpt lat="46.58782" lon="6.29406"><ele></ele><time>2020-7-27T23:6:23Z</time></trkpt>
<trkpt lat="46.58784" lon="6.29406"><ele></ele><time>2020-7-27T23:6:26Z</time></trkpt>
<trkpt lat="46.58786" lon="6.29405"><ele></ele><time>2020-7-27T23:6:29Z</time></trkpt>
<trkpt lat="46.58798" lon="6.29394"><ele></ele><time>2020-7-27T23:6:32Z</time></trkpt>
<trkpt lat="46.58813" lon="6.29393"><ele></ele><time>2020-7-27T23:6:35Z</time></trkpt>
<trkpt lat="46.58833" lon="6.29398"><ele></ele><time>2020-7-27T23:6:38Z</time></trkpt>
<trkpt lat="46.58852" lon="6.29398"><ele></ele><time>2020-7-27T23:6:41Z</time></trkpt>
<trkpt lat="46.5887" lon="6.29405"><ele></ele><time>2020-7-27T23:6:44Z</time></trkpt>
<trkpt lat="46.58883" lon="6.29413"><ele></ele><time>2020-7-27T23:6:47Z</time></trkpt>
<trkpt lat="46.58895" lon="6.29416"><ele></ele><time>2020-7-27T23:6:50Z</time></trkpt>
<trkpt lat="46.58918" lon="6.29423"><ele></ele><time>2020-7-27T23:6:53Z</time></trkpt>
<trkpt lat="46.58932" lon="6.29428"><ele></ele><time>2020-7-27T23:6:56Z</time></trkpt>
<trkpt lat="46.5895" lon="6.29437"><ele></ele><time>2020-7-27T23:6:59Z</time></trkpt>
<trkpt lat="46.5896" lon="6.29441"><ele></ele><time>2020-7-27T23:7:2Z</time></trkpt>
<trkpt lat="46.58976" lon="6.29454"><ele></ele><time>2020-7-27T23:7:5Z</time></trkpt>
<trkpt lat="46.58984" lon="6.29461"><ele></ele><time>2020-7-27T23:7:8Z</time></trkpt>
<trkpt lat="46.59" lon="6.29475"><ele></ele><time>2020-7-27T23:7:11Z</time></trkpt>
<trkpt lat="46.59009" lon="6.29482"><ele></ele><time>2020-7-27T23:7:14Z</time></trkpt>
<trkpt lat="46.59025" lon="6.29491"><ele></ele><time>2020-7-27T23:7:17Z</time></trkpt>
<trkpt lat="46.59036" lon="6.29496"><ele></ele><time>2020-7-27T23:7:20Z</time></trkpt>
<trkpt lat="46.59046" lon="6.29501"><ele></ele><time>2020-7-27T23:7:23Z</time></trkpt>
<trkpt lat="46.5907" lon="6.29517"><ele></ele><time>2020-7-27T23:7:26Z</time></trkpt>
<trkpt lat="46.59075" lon="6.29522"><ele></ele><time>2020-7-27T23:7:29Z</time></trkpt>
<trkpt lat="46.59079" lon="6.29526"><ele></ele><time>2020-7-27T23:7:32Z</time></trkpt>
<trkpt lat="46.59089" lon="6.29534"><ele></ele><time>2020-7-27T23:7:35Z</time></trkpt>
<trkpt lat="46.59092" lon="6.29537"><ele></ele><time>2020-7-27T23:7:38Z</time></trkpt>
<trkpt lat="46.59107" lon="6.29543"><ele></ele><time>2020-7-27T23:7:41Z</time></trkpt>
<trkpt lat="46.59124" lon="6.29547"><ele></ele><time>2020-7-27T23:7:44Z</time></trkpt>
<trkpt lat="46.59135" lon="6.29552"><ele></ele><time>2020-7-27T23:7:47Z</time></trkpt>
<trkpt lat="46.59152" lon="6.29552"><ele></ele><time>2020-7-27T23:7:50Z</time></trkpt>
<trkpt lat="46.59166" lon="6.29529"><ele></ele><time>2020-7-27T23:7:53Z</time></trkpt>
<trkpt lat="46.59173" lon="6.2952"><ele></ele><time>2020-7-27T23:7:56Z</time></trkpt>
<trkpt lat="46.59192" lon="6.29512"><ele></ele><time>2020-7-27T23:7:59Z</time></trkpt>
<trkpt lat="46.59213" lon="6.2951"><ele></ele><time>2020-7-27T23:8:2Z</time></trkpt>
<trkpt lat="46.59229" lon="6.2952"><ele></ele><time>2020-7-27T23:8:5Z</time></trkpt>
<trkpt lat="46.59247" lon="6.29529"><ele></ele><time>2020-7-27T23:8:8Z</time></trkpt>
<trkpt lat="46.59266" lon="6.29545"><ele></ele><time>2020-7-27T23:8:11Z</time></trkpt>
<trkpt lat="46.59276" lon="6.29561"><ele></ele><time>2020-7-27T23:8:14Z</time></trkpt>
<trkpt lat="46.59282" lon="6.29573"><ele></ele><time>2020-7-27T23:8:17Z</time></trkpt>
<trkpt lat="46.5929" lon="6.29585"><ele></ele><time>2020-7-27T23:8:20Z</time></trkpt>
<trkpt lat="46.59305" lon="6.296"><ele></ele><time>2020-7-27T23:8:23Z</time></trkpt>
<trkpt lat="46.59322" lon="6.29611"><ele></ele><time>2020-7-27T23:8:26Z</time></trkpt>
<trkpt lat="46.59334" lon="6.29616"><ele></ele><time>2020-7-27T23:8:29Z</time></trkpt>
<trkpt lat="46.59357" lon="6.2961"><ele></ele><time>2020-7-27T23:8:32Z</time></trkpt>
<trkpt lat="46.59366" lon="6.29598"><ele></ele><time>2020-7-27T23:8:35Z</time></trkpt>
<trkpt lat="46.59368" lon="6.29596"><ele></ele><time>2020-7-27T23:8:38Z</time></trkpt>
<trkpt lat="46.59369" lon="6.29596"><ele></ele><time>2020-7-27T23:8:41Z</time></trkpt>
<trkpt lat="46.59369" lon="6.29596"><ele></ele><time>2020-7-27T23:8:44Z</time></trkpt>
<trkpt lat="46.59368" lon="6.29596"><ele></ele><time>2020-7-27T23:8:47Z</time></trkpt>
<trkpt lat="46.59369" lon="6.29594"><ele></ele><time>2020-7-27T23:8:50Z</time></trkpt>
<trkpt lat="46.59377" lon="6.29596"><ele></ele><time>2020-7-27T23:8:53Z</time></trkpt>
<trkpt lat="46.5938" lon="6.29603"><ele></ele><time>2020-7-27T23:8:56Z</time></trkpt>
<trkpt lat="46.59382" lon="6.29605"><ele></ele><time>2020-7-27T23:8:59Z</time></trkpt>
<trkpt lat="46.59384" lon="6.29608"><ele></ele><time>2020-7-27T23:9:2Z</time></trkpt>
<trkpt lat="46.59388" lon="6.29613"><ele></ele><time>2020-7-27T23:9:5Z</time></trkpt>
<trkpt lat="46.59391" lon="6.29616"><ele></ele><time>2020-7-27T23:9:8Z</time></trkpt>
<trkpt lat="46.59403" lon="6.29635"><ele></ele><time>2020-7-27T23:9:11Z</time></trkpt>
<trkpt lat="46.59416" lon="6.29656"><ele></ele><time>2020-7-27T23:9:14Z</time></trkpt>
<trkpt lat="46.59425" lon="6.29669"><ele></ele><time>2020-7-27T23:9:17Z</time></trkpt>
<trkpt lat="46.59437" lon="6.2969"><ele></ele><time>2020-7-27T23:9:20Z</time></trkpt>
<trkpt lat="46.59447" lon="6.29713"><ele></ele><time>2020-7-27T23:9:23Z</time></trkpt>
<trkpt lat="46.59458" lon="6.29733"><ele></ele><time>2020-7-27T23:9:26Z</time></trkpt>
<trkpt lat="46.59468" lon="6.29747"><ele></ele><time>2020-7-27T23:9:29Z</time></trkpt>
<trkpt lat="46.5947" lon="6.2975"><ele></ele><time>2020-7-27T23:9:32Z</time></trkpt>
<trkpt lat="46.59471" lon="6.29751"><ele></ele><time>2020-7-27T23:9:35Z</time></trkpt>
<trkpt lat="46.59482" lon="6.29763"><ele></ele><time>2020-7-27T23:9:38Z</time></trkpt>
<trkpt lat="46.59486" lon="6.29767"><ele></ele><time>2020-7-27T23:9:41Z</time></trkpt>
<trkpt lat="46.59493" lon="6.29775"><ele></ele><time>2020-7-27T23:9:44Z</time></trkpt>
<trkpt lat="46.59506" lon="6.29796"><ele></ele><time>2020-7-27T23:9:47Z</time></trkpt>
<trkpt lat="46.59518" lon="6.29818"><ele></ele><time>2020-7-27T23:9:50Z</time></trkpt>
<trkpt lat="46.59527" lon="6.2983"><ele></ele><time>2020-7-27T23:9:53Z</time></trkpt>
<trkpt lat="46.5953" lon="6.29834"><ele></ele><time>2020-7-27T23:9:56Z</time></trkpt>
<trkpt lat="46.59538" lon="6.29847"><ele></ele><time>2020-7-27T23:9:59Z</time></trkpt>
<trkpt lat="46.5954" lon="6.29874"><ele></ele><time>2020-7-27T23:10:2Z</time></trkpt>
<trkpt lat="46.59536" lon="6.299"><ele></ele><time>2020-7-27T23:10:5Z</time></trkpt>
<trkpt lat="46.59533" lon="6.29922"><ele></ele><time>2020-7-27T23:10:8Z</time></trkpt>
<trkpt lat="46.59538" lon="6.29941"><ele></ele><time>2020-7-27T23:10:11Z</time></trkpt>
<trkpt lat="46.5955" lon="6.29961"><ele></ele><time>2020-7-27T23:10:14Z</time></trkpt>
<trkpt lat="46.59563" lon="6.29979"><ele></ele><time>2020-7-27T23:10:17Z</time></trkpt>
<trkpt lat="46.59564" lon="6.29981"><ele></ele><time>2020-7-27T23:10:20Z</time></trkpt>
<trkpt lat="46.59581" lon="6.3"><ele></ele><time>2020-7-27T23:10:23Z</time></trkpt>
<trkpt lat="46.59591" lon="6.30012"><ele></ele><time>2020-7-27T23:10:26Z</time></trkpt>
<trkpt lat="46.59594" lon="6.30016"><ele></ele><time>2020-7-27T23:10:29Z</time></trkpt>
<trkpt lat="46.59605" lon="6.30038"><ele></ele><time>2020-7-27T23:10:32Z</time></trkpt>
<trkpt lat="46.59607" lon="6.30044"><ele></ele><time>2020-7-27T23:10:35Z</time></trkpt>
<trkpt lat="46.59613" lon="6.30054"><ele></ele><time>2020-7-27T23:10:38Z</time></trkpt>
<trkpt lat="46.59629" lon="6.3007"><ele></ele><time>2020-7-27T23:10:41Z</time></trkpt>
<trkpt lat="46.5964" lon="6.30082"><ele></ele><time>2020-7-27T23:10:44Z</time></trkpt>
<trkpt lat="46.59652" lon="6.30106"><ele></ele><time>2020-7-27T23:10:47Z</time></trkpt>
<trkpt lat="46.59654" lon="6.30113"><ele></ele><time>2020-7-27T23:10:50Z</time></trkpt>
<trkpt lat="46.59659" lon="6.30139"><ele></ele><time>2020-7-27T23:10:53Z</time></trkpt>
<trkpt lat="46.59658" lon="6.30157"><ele></ele><time>2020-7-27T23:10:56Z</time></trkpt>
<trkpt lat="46.59658" lon="6.30166"><ele></ele><time>2020-7-27T23:10:59Z</time></trkpt>
<trkpt lat="46.59658" lon="6.30174"><ele></ele><time>2020-7-27T23:11:2Z</time></trkpt>
<trkpt lat="46.59661" lon="6.30188"><ele></ele><time>2020-7-27T23:11:5Z</time></trkpt>
<trkpt lat="46.59663" lon="6.30194"><ele></ele><time>2020-7-27T23:11:8Z</time></trkpt>
<trkpt lat="46.59666" lon="6.30205"><ele></ele><time>2020-7-27T23:11:11Z</time></trkpt>
<trkpt lat="46.59676" lon="6.3022"><ele></ele><time>2020-7-27T23:11:14Z</time></trkpt>
<trkpt lat="46.5969" lon="6.30239"><ele></ele><time>2020-7-27T23:11:17Z</time></trkpt>
<trkpt lat="46.59704" lon="6.3026"><ele></ele><time>2020-7-27T23:11:20Z</time></trkpt>
<trkpt lat="46.59713" lon="6.30282"><ele></ele><time>2020-7-27T23:11:23Z</time></trkpt>
<trkpt lat="46.59716" lon="6.30288"><ele></ele><time>2020-7-27T23:11:26Z</time></trkpt>
<trkpt lat="46.59717" lon="6.30291"><ele></ele><time>2020-7-27T23:11:29Z</time></trkpt>
<trkpt lat="46.59737" lon="6.30323"><ele></ele><time>2020-7-27T23:11:32Z</time></trkpt>
<trkpt lat="46.59741" lon="6.30327"><ele></ele><time>2020-7-27T23:11:35Z</time></trkpt>
<trkpt lat="46.59755" lon="6.30343"><ele></ele><time>2020-7-27T23:11:38Z</time></trkpt>
<trkpt lat="46.59772" lon="6.30357"><ele></ele><time>2020-7-27T23:11:41Z</time></trkpt>
<trkpt lat="46.59781" lon="6.30374"><ele></ele><time>2020-7-27T23:11:44Z</time></trkpt>
<trkpt lat="46.59799" lon="6.30406"><ele></ele><time>2020-7-27T23:11:47Z</time></trkpt>
<trkpt lat="46.59811" lon="6.30425"><ele></ele><time>2020-7-27T23:11:50Z</time></trkpt>
<trkpt lat="46.59816" lon="6.30432"><ele></ele><time>2020-7-27T23:11:53Z</time></trkpt>
<trkpt lat="46.59827" lon="6.30454"><ele></ele><time>2020-7-27T23:11:56Z</time></trkpt>
<trkpt lat="46.59832" lon="6.30462"><ele></ele><time>2020-7-27T23:11:59Z</time></trkpt>
<trkpt lat="46.59844" lon="6.30483"><ele></ele><time>2020-7-27T23:12:2Z</time></trkpt>
<trkpt lat="46.59856" lon="6.30505"><ele></ele><time>2020-7-27T23:12:5Z</time></trkpt>
<trkpt lat="46.59867" lon="6.30528"><ele></ele><time>2020-7-27T23:12:8Z</time></trkpt>
<trkpt lat="46.5988" lon="6.30552"><ele></ele><time>2020-7-27T23:12:11Z</time></trkpt>
<trkpt lat="46.59888" lon="6.30562"><ele></ele><time>2020-7-27T23:12:14Z</time></trkpt>
<trkpt lat="46.59916" lon="6.30592"><ele></ele><time>2020-7-27T23:12:17Z</time></trkpt>
<trkpt lat="46.59928" lon="6.30607"><ele></ele><time>2020-7-27T23:12:20Z</time></trkpt>
<trkpt lat="46.59944" lon="6.30626"><ele></ele><time>2020-7-27T23:12:23Z</time></trkpt>
<trkpt lat="46.5996" lon="6.30641"><ele></ele><time>2020-7-27T23:12:26Z</time></trkpt>
<trkpt lat="46.59976" lon="6.30658"><ele></ele><time>2020-7-27T23:12:29Z</time></trkpt>
<trkpt lat="46.59992" lon="6.30673"><ele></ele><time>2020-7-27T23:12:32Z</time></trkpt>
<trkpt lat="46.60006" lon="6.30692"><ele></ele><time>2020-7-27T23:12:35Z</time></trkpt>
<trkpt lat="46.60012" lon="6.30703"><ele></ele><time>2020-7-27T23:12:38Z</time></trkpt>
<trkpt lat="46.60016" lon="6.30709"><ele></ele><time>2020-7-27T23:12:41Z</time></trkpt>
<trkpt lat="46.60025" lon="6.30724"><ele></ele><time>2020-7-27T23:12:44Z</time></trkpt>
<trkpt lat="46.60031" lon="6.30732"><ele></ele><time>2020-7-27T23:12:47Z</time></trkpt>
<trkpt lat="46.60038" lon="6.30741"><ele></ele><time>2020-7-27T23:12:50Z</time></trkpt>
<trkpt lat="46.60045" lon="6.30749"><ele></ele><time>2020-7-27T23:12:53Z</time></trkpt>
<trkpt lat="46.60057" lon="6.3077"><ele></ele><time>2020-7-27T23:12:56Z</time></trkpt>
<trkpt lat="46.60073" lon="6.30792"><ele></ele><time>2020-7-27T23:12:59Z</time></trkpt>
<trkpt lat="46.60085" lon="6.30814"><ele></ele><time>2020-7-27T23:13:2Z</time></trkpt>
<trkpt lat="46.60098" lon="6.30839"><ele></ele><time>2020-7-27T23:13:5Z</time></trkpt>
<trkpt lat="46.60103" lon="6.30858"><ele></ele><time>2020-7-27T23:13:8Z</time></trkpt>
<trkpt lat="46.60113" lon="6.30888"><ele></ele><time>2020-7-27T23:13:11Z</time></trkpt>
<trkpt lat="46.60128" lon="6.30904"><ele></ele><time>2020-7-27T23:13:14Z</time></trkpt>
<trkpt lat="46.60147" lon="6.30919"><ele></ele><time>2020-7-27T23:13:17Z</time></trkpt>
<trkpt lat="46.60162" lon="6.30939"><ele></ele><time>2020-7-27T23:13:20Z</time></trkpt>
<trkpt lat="46.60177" lon="6.30958"><ele></ele><time>2020-7-27T23:13:23Z</time></trkpt>
<trkpt lat="46.60191" lon="6.3098"><ele></ele><time>2020-7-27T23:13:26Z</time></trkpt>
<trkpt lat="46.60205" lon="6.31"><ele></ele><time>2020-7-27T23:13:29Z</time></trkpt>
<trkpt lat="46.60219" lon="6.31024"><ele></ele><time>2020-7-27T23:13:32Z</time></trkpt>
<trkpt lat="46.60231" lon="6.31044"><ele></ele><time>2020-7-27T23:13:35Z</time></trkpt>
<trkpt lat="46.60241" lon="6.31057"><ele></ele><time>2020-7-27T23:13:38Z</time></trkpt>
<trkpt lat="46.60257" lon="6.31071"><ele></ele><time>2020-7-27T23:13:41Z</time></trkpt>
<trkpt lat="46.60272" lon="6.31085"><ele></ele><time>2020-7-27T23:13:44Z</time></trkpt>
<trkpt lat="46.60283" lon="6.31093"><ele></ele><time>2020-7-27T23:13:47Z</time></trkpt>
<trkpt lat="46.603" lon="6.31113"><ele></ele><time>2020-7-27T23:13:50Z</time></trkpt>
<trkpt lat="46.60315" lon="6.31133"><ele></ele><time>2020-7-27T23:13:53Z</time></trkpt>
<trkpt lat="46.60321" lon="6.31143"><ele></ele><time>2020-7-27T23:13:56Z</time></trkpt>
<trkpt lat="46.60336" lon="6.31162"><ele></ele><time>2020-7-27T23:13:59Z</time></trkpt>
<trkpt lat="46.60339" lon="6.31167"><ele></ele><time>2020-7-27T23:14:2Z</time></trkpt>
<trkpt lat="46.60351" lon="6.31183"><ele></ele><time>2020-7-27T23:14:5Z</time></trkpt>
<trkpt lat="46.60363" lon="6.31188"><ele></ele><time>2020-7-27T23:14:8Z</time></trkpt>
<trkpt lat="46.60369" lon="6.31187"><ele></ele><time>2020-7-27T23:14:11Z</time></trkpt>
<trkpt lat="46.60371" lon="6.31186"><ele></ele><time>2020-7-27T23:14:14Z</time></trkpt>
<trkpt lat="46.60402" lon="6.312"><ele></ele><time>2020-7-27T23:14:17Z</time></trkpt>
<trkpt lat="46.6042" lon="6.31209"><ele></ele><time>2020-7-27T23:14:20Z</time></trkpt>
<trkpt lat="46.60435" lon="6.31224"><ele></ele><time>2020-7-27T23:14:23Z</time></trkpt>
<trkpt lat="46.6045" lon="6.31246"><ele></ele><time>2020-7-27T23:14:26Z</time></trkpt>
<trkpt lat="46.60453" lon="6.31251"><ele></ele><time>2020-7-27T23:14:29Z</time></trkpt>
<trkpt lat="46.60459" lon="6.31263"><ele></ele><time>2020-7-27T23:14:32Z</time></trkpt>
<trkpt lat="46.60475" lon="6.31281"><ele></ele><time>2020-7-27T23:14:35Z</time></trkpt>
<trkpt lat="46.6049" lon="6.313"><ele></ele><time>2020-7-27T23:14:38Z</time></trkpt>
<trkpt lat="46.60502" lon="6.31323"><ele></ele><time>2020-7-27T23:14:41Z</time></trkpt>
<trkpt lat="46.60512" lon="6.31343"><ele></ele><time>2020-7-27T23:14:44Z</time></trkpt>
<trkpt lat="46.60523" lon="6.31362"><ele></ele><time>2020-7-27T23:14:47Z</time></trkpt>
<trkpt lat="46.60528" lon="6.31369"><ele></ele><time>2020-7-27T23:14:50Z</time></trkpt>
<trkpt lat="46.6054" lon="6.31388"><ele></ele><time>2020-7-27T23:14:53Z</time></trkpt>
<trkpt lat="46.60549" lon="6.31398"><ele></ele><time>2020-7-27T23:14:56Z</time></trkpt>
<trkpt lat="46.60562" lon="6.31417"><ele></ele><time>2020-7-27T23:14:59Z</time></trkpt>
<trkpt lat="46.60578" lon="6.3144"><ele></ele><time>2020-7-27T23:15:2Z</time></trkpt>
<trkpt lat="46.60584" lon="6.31448"><ele></ele><time>2020-7-27T23:15:5Z</time></trkpt>
<trkpt lat="46.60601" lon="6.31469"><ele></ele><time>2020-7-27T23:15:8Z</time></trkpt>
<trkpt lat="46.60615" lon="6.31489"><ele></ele><time>2020-7-27T23:15:11Z</time></trkpt>
<trkpt lat="46.60624" lon="6.31504"><ele></ele><time>2020-7-27T23:15:14Z</time></trkpt>
<trkpt lat="46.6064" lon="6.31524"><ele></ele><time>2020-7-27T23:15:17Z</time></trkpt>
<trkpt lat="46.60646" lon="6.3153"><ele></ele><time>2020-7-27T23:15:20Z</time></trkpt>
<trkpt lat="46.6066" lon="6.31551"><ele></ele><time>2020-7-27T23:15:23Z</time></trkpt>
<trkpt lat="46.6067" lon="6.31564"><ele></ele><time>2020-7-27T23:15:26Z</time></trkpt>
<trkpt lat="46.60673" lon="6.31567"><ele></ele><time>2020-7-27T23:15:29Z</time></trkpt>
<trkpt lat="46.60686" lon="6.31587"><ele></ele><time>2020-7-27T23:15:32Z</time></trkpt>
<trkpt lat="46.60696" lon="6.31603"><ele></ele><time>2020-7-27T23:15:35Z</time></trkpt>
<trkpt lat="46.60708" lon="6.31626"><ele></ele><time>2020-7-27T23:15:38Z</time></trkpt>
<trkpt lat="46.60724" lon="6.31645"><ele></ele><time>2020-7-27T23:15:41Z</time></trkpt>
<trkpt lat="46.60732" lon="6.31654"><ele></ele><time>2020-7-27T23:15:44Z</time></trkpt>
<trkpt lat="46.60743" lon="6.31675"><ele></ele><time>2020-7-27T23:15:47Z</time></trkpt>
<trkpt lat="46.60755" lon="6.31696"><ele></ele><time>2020-7-27T23:15:50Z</time></trkpt>
<trkpt lat="46.60765" lon="6.31711"><ele></ele><time>2020-7-27T23:15:53Z</time></trkpt>
<trkpt lat="46.60776" lon="6.31732"><ele></ele><time>2020-7-27T23:15:56Z</time></trkpt>
<trkpt lat="46.60789" lon="6.31752"><ele></ele><time>2020-7-27T23:15:59Z</time></trkpt>
<trkpt lat="46.60801" lon="6.31775"><ele></ele><time>2020-7-27T23:16:2Z</time></trkpt>
<trkpt lat="46.60811" lon="6.318"><ele></ele><time>2020-7-27T23:16:5Z</time></trkpt>
<trkpt lat="46.60823" lon="6.31819"><ele></ele><time>2020-7-27T23:16:8Z</time></trkpt>
<trkpt lat="46.60832" lon="6.31827"><ele></ele><time>2020-7-27T23:16:11Z</time></trkpt>
<trkpt lat="46.60842" lon="6.31836"><ele></ele><time>2020-7-27T23:16:14Z</time></trkpt>
<trkpt lat="46.60852" lon="6.31852"><ele></ele><time>2020-7-27T23:16:17Z</time></trkpt>
<trkpt lat="46.60864" lon="6.31871"><ele></ele><time>2020-7-27T23:16:20Z</time></trkpt>
<trkpt lat="46.60877" lon="6.3189"><ele></ele><time>2020-7-27T23:16:23Z</time></trkpt>
<trkpt lat="46.60886" lon="6.319"><ele></ele><time>2020-7-27T23:16:26Z</time></trkpt>
<trkpt lat="46.60904" lon="6.31907"><ele></ele><time>2020-7-27T23:16:29Z</time></trkpt>
<trkpt lat="46.60911" lon="6.31908"><ele></ele><time>2020-7-27T23:16:32Z</time></trkpt>
<trkpt lat="46.60931" lon="6.31904"><ele></ele><time>2020-7-27T23:16:35Z</time></trkpt>
<trkpt lat="46.60949" lon="6.31905"><ele></ele><time>2020-7-27T23:16:38Z</time></trkpt>
<trkpt lat="46.60953" lon="6.31908"><ele></ele><time>2020-7-27T23:16:41Z</time></trkpt>
<trkpt lat="46.60975" lon="6.31923"><ele></ele><time>2020-7-27T23:16:44Z</time></trkpt>
<trkpt lat="46.60981" lon="6.31941"><ele></ele><time>2020-7-27T23:16:47Z</time></trkpt>
<trkpt lat="46.60988" lon="6.31966"><ele></ele><time>2020-7-27T23:16:50Z</time></trkpt>
<trkpt lat="46.61002" lon="6.31987"><ele></ele><time>2020-7-27T23:16:53Z</time></trkpt>
<trkpt lat="46.61018" lon="6.32005"><ele></ele><time>2020-7-27T23:16:56Z</time></trkpt>
<trkpt lat="46.61028" lon="6.32018"><ele></ele><time>2020-7-27T23:16:59Z</time></trkpt>
<trkpt lat="46.61033" lon="6.32024"><ele></ele><time>2020-7-27T23:17:2Z</time></trkpt>
<trkpt lat="46.61046" lon="6.32044"><ele></ele><time>2020-7-27T23:17:5Z</time></trkpt>
<trkpt lat="46.61058" lon="6.32066"><ele></ele><time>2020-7-27T23:17:8Z</time></trkpt>
<trkpt lat="46.61074" lon="6.32085"><ele></ele><time>2020-7-27T23:17:11Z</time></trkpt>
<trkpt lat="46.61088" lon="6.32103"><ele></ele><time>2020-7-27T23:17:14Z</time></trkpt>
<trkpt lat="46.61091" lon="6.32107"><ele></ele><time>2020-7-27T23:17:17Z</time></trkpt>
<trkpt lat="46.61104" lon="6.32127"><ele></ele><time>2020-7-27T23:17:20Z</time></trkpt>
<trkpt lat="46.61116" lon="6.32146"><ele></ele><time>2020-7-27T23:17:23Z</time></trkpt>
<trkpt lat="46.61119" lon="6.32151"><ele></ele><time>2020-7-27T23:17:26Z</time></trkpt>
<trkpt lat="46.61121" lon="6.32178"><ele></ele><time>2020-7-27T23:17:29Z</time></trkpt>
<trkpt lat="46.61106" lon="6.32192"><ele></ele><time>2020-7-27T23:17:32Z</time></trkpt>
<trkpt lat="46.61094" lon="6.32184"><ele></ele><time>2020-7-27T23:17:35Z</time></trkpt>
<trkpt lat="46.61079" lon="6.32168"><ele></ele><time>2020-7-27T23:17:38Z</time></trkpt>
<trkpt lat="46.61061" lon="6.3216"><ele></ele><time>2020-7-27T23:17:41Z</time></trkpt>
<trkpt lat="46.61044" lon="6.32169"><ele></ele><time>2020-7-27T23:17:44Z</time></trkpt>
<trkpt lat="46.61028" lon="6.32204"><ele></ele><time>2020-7-27T23:17:47Z</time></trkpt>
<trkpt lat="46.61025" lon="6.32233"><ele></ele><time>2020-7-27T23:17:50Z</time></trkpt>
<trkpt lat="46.61024" lon="6.32253"><ele></ele><time>2020-7-27T23:17:53Z</time></trkpt>
<trkpt lat="46.61033" lon="6.32282"><ele></ele><time>2020-7-27T23:17:56Z</time></trkpt>
<trkpt lat="46.61039" lon="6.32291"><ele></ele><time>2020-7-27T23:17:59Z</time></trkpt>
<trkpt lat="46.61054" lon="6.32315"><ele></ele><time>2020-7-27T23:18:2Z</time></trkpt>
<trkpt lat="46.61069" lon="6.32338"><ele></ele><time>2020-7-27T23:18:5Z</time></trkpt>
<trkpt lat="46.61082" lon="6.32358"><ele></ele><time>2020-7-27T23:18:8Z</time></trkpt>
<trkpt lat="46.61098" lon="6.32377"><ele></ele><time>2020-7-27T23:18:11Z</time></trkpt>
<trkpt lat="46.61113" lon="6.3239"><ele></ele><time>2020-7-27T23:18:14Z</time></trkpt>
<trkpt lat="46.61116" lon="6.32393"><ele></ele><time>2020-7-27T23:18:17Z</time></trkpt>
<trkpt lat="46.61126" lon="6.32419"><ele></ele><time>2020-7-27T23:18:20Z</time></trkpt>
<trkpt lat="46.61127" lon="6.32435"><ele></ele><time>2020-7-27T23:18:23Z</time></trkpt>
<trkpt lat="46.6113" lon="6.32462"><ele></ele><time>2020-7-27T23:18:26Z</time></trkpt>
<trkpt lat="46.61131" lon="6.32481"><ele></ele><time>2020-7-27T23:18:29Z</time></trkpt>
<trkpt lat="46.61128" lon="6.32511"><ele></ele><time>2020-7-27T23:18:32Z</time></trkpt>
<trkpt lat="46.61129" lon="6.32522"><ele></ele><time>2020-7-27T23:18:35Z</time></trkpt>
<trkpt lat="46.61135" lon="6.32555"><ele></ele><time>2020-7-27T23:18:38Z</time></trkpt>
<trkpt lat="46.61144" lon="6.3259"><ele></ele><time>2020-7-27T23:18:41Z</time></trkpt>
<trkpt lat="46.61155" lon="6.32622"><ele></ele><time>2020-7-27T23:18:44Z</time></trkpt>
<trkpt lat="46.61168" lon="6.32652"><ele></ele><time>2020-7-27T23:18:47Z</time></trkpt>
<trkpt lat="46.6118" lon="6.32683"><ele></ele><time>2020-7-27T23:18:50Z</time></trkpt>
<trkpt lat="46.61188" lon="6.32702"><ele></ele><time>2020-7-27T23:18:53Z</time></trkpt>
<trkpt lat="46.61204" lon="6.32726"><ele></ele><time>2020-7-27T23:18:56Z</time></trkpt>
<trkpt lat="46.6122" lon="6.32745"><ele></ele><time>2020-7-27T23:18:59Z</time></trkpt>
<trkpt lat="46.61236" lon="6.32759"><ele></ele><time>2020-7-27T23:19:2Z</time></trkpt>
<trkpt lat="46.61241" lon="6.32762"><ele></ele><time>2020-7-27T23:19:5Z</time></trkpt>
<trkpt lat="46.61251" lon="6.32768"><ele></ele><time>2020-7-27T23:19:8Z</time></trkpt>
<trkpt lat="46.6127" lon="6.3278"><ele></ele><time>2020-7-27T23:19:11Z</time></trkpt>
<trkpt lat="46.61289" lon="6.32791"><ele></ele><time>2020-7-27T23:19:14Z</time></trkpt>
<trkpt lat="46.61309" lon="6.32803"><ele></ele><time>2020-7-27T23:19:17Z</time></trkpt>
<trkpt lat="46.6133" lon="6.32817"><ele></ele><time>2020-7-27T23:19:20Z</time></trkpt>
<trkpt lat="46.61352" lon="6.32828"><ele></ele><time>2020-7-27T23:19:23Z</time></trkpt>
<trkpt lat="46.61362" lon="6.32833"><ele></ele><time>2020-7-27T23:19:26Z</time></trkpt>
<trkpt lat="46.61383" lon="6.32843"><ele></ele><time>2020-7-27T23:19:29Z</time></trkpt>
<trkpt lat="46.61397" lon="6.32852"><ele></ele><time>2020-7-27T23:19:32Z</time></trkpt>
<trkpt lat="46.61402" lon="6.32855"><ele></ele><time>2020-7-27T23:19:35Z</time></trkpt>
<trkpt lat="46.61411" lon="6.32861"><ele></ele><time>2020-7-27T23:19:38Z</time></trkpt>
<trkpt lat="46.61427" lon="6.32878"><ele></ele><time>2020-7-27T23:19:41Z</time></trkpt>
<trkpt lat="46.61443" lon="6.32899"><ele></ele><time>2020-7-27T23:19:44Z</time></trkpt>
<trkpt lat="46.61456" lon="6.32922"><ele></ele><time>2020-7-27T23:19:47Z</time></trkpt>
<trkpt lat="46.61464" lon="6.3294"><ele></ele><time>2020-7-27T23:19:50Z</time></trkpt>
<trkpt lat="46.61477" lon="6.3297"><ele></ele><time>2020-7-27T23:19:53Z</time></trkpt>
<trkpt lat="46.61482" lon="6.3298"><ele></ele><time>2020-7-27T23:19:56Z</time></trkpt>
<trkpt lat="46.61501" lon="6.33004"><ele></ele><time>2020-7-27T23:19:59Z</time></trkpt>
<trkpt lat="46.61513" lon="6.33017"><ele></ele><time>2020-7-27T23:20:2Z</time></trkpt>
<trkpt lat="46.61527" lon="6.33035"><ele></ele><time>2020-7-27T23:20:5Z</time></trkpt>
<trkpt lat="46.61536" lon="6.33061"><ele></ele><time>2020-7-27T23:20:8Z</time></trkpt>
<trkpt lat="46.61542" lon="6.33079"><ele></ele><time>2020-7-27T23:20:11Z</time></trkpt>
<trkpt lat="46.61545" lon="6.33085"><ele></ele><time>2020-7-27T23:20:14Z</time></trkpt>
<trkpt lat="46.61551" lon="6.33097"><ele></ele><time>2020-7-27T23:20:17Z</time></trkpt>
<trkpt lat="46.61555" lon="6.33103"><ele></ele><time>2020-7-27T23:20:20Z</time></trkpt>
<trkpt lat="46.61569" lon="6.33124"><ele></ele><time>2020-7-27T23:20:23Z</time></trkpt>
<trkpt lat="46.61585" lon="6.33147"><ele></ele><time>2020-7-27T23:20:26Z</time></trkpt>
<trkpt lat="46.61604" lon="6.33171"><ele></ele><time>2020-7-27T23:20:29Z</time></trkpt>
<trkpt lat="46.61625" lon="6.33191"><ele></ele><time>2020-7-27T23:20:32Z</time></trkpt>
<trkpt lat="46.61648" lon="6.3321"><ele></ele><time>2020-7-27T23:20:35Z</time></trkpt>
<trkpt lat="46.61663" lon="6.33224"><ele></ele><time>2020-7-27T23:20:38Z</time></trkpt>
<trkpt lat="46.61686" lon="6.33239"><ele></ele><time>2020-7-27T23:20:41Z</time></trkpt>
<trkpt lat="46.61701" lon="6.33244"><ele></ele><time>2020-7-27T23:20:44Z</time></trkpt>
<trkpt lat="46.6172" lon="6.33242"><ele></ele><time>2020-7-27T23:20:47Z</time></trkpt>
<trkpt lat="46.61737" lon="6.33236"><ele></ele><time>2020-7-27T23:20:50Z</time></trkpt>
<trkpt lat="46.61758" lon="6.33222"><ele></ele><time>2020-7-27T23:20:53Z</time></trkpt>
<trkpt lat="46.61781" lon="6.33214"><ele></ele><time>2020-7-27T23:20:56Z</time></trkpt>
<trkpt lat="46.61793" lon="6.33213"><ele></ele><time>2020-7-27T23:20:59Z</time></trkpt>
<trkpt lat="46.61811" lon="6.33218"><ele></ele><time>2020-7-27T23:21:2Z</time></trkpt>
<trkpt lat="46.61828" lon="6.33235"><ele></ele><time>2020-7-27T23:21:5Z</time></trkpt>
<trkpt lat="46.61837" lon="6.33252"><ele></ele><time>2020-7-27T23:21:8Z</time></trkpt>
<trkpt lat="46.61849" lon="6.3328"><ele></ele><time>2020-7-27T23:21:11Z</time></trkpt>
<trkpt lat="46.61866" lon="6.33301"><ele></ele><time>2020-7-27T23:21:14Z</time></trkpt>
<trkpt lat="46.61875" lon="6.33327"><ele></ele><time>2020-7-27T23:21:17Z</time></trkpt>
<trkpt lat="46.61877" lon="6.33337"><ele></ele><time>2020-7-27T23:21:20Z</time></trkpt>
<trkpt lat="46.6188" lon="6.33365"><ele></ele><time>2020-7-27T23:21:23Z</time></trkpt>
<trkpt lat="46.61882" lon="6.33373"><ele></ele><time>2020-7-27T23:21:26Z</time></trkpt>
<trkpt lat="46.61884" lon="6.3338"><ele></ele><time>2020-7-27T23:21:29Z</time></trkpt>
<trkpt lat="46.619" lon="6.33399"><ele></ele><time>2020-7-27T23:21:32Z</time></trkpt>
<trkpt lat="46.61915" lon="6.33416"><ele></ele><time>2020-7-27T23:21:35Z</time></trkpt>
<trkpt lat="46.61929" lon="6.33431"><ele></ele><time>2020-7-27T23:21:38Z</time></trkpt>
<trkpt lat="46.61936" lon="6.33439"><ele></ele><time>2020-7-27T23:21:41Z</time></trkpt>
<trkpt lat="46.61939" lon="6.33443"><ele></ele><time>2020-7-27T23:21:44Z</time></trkpt>
<trkpt lat="46.6195" lon="6.33472"><ele></ele><time>2020-7-27T23:21:47Z</time></trkpt>
<trkpt lat="46.61962" lon="6.33489"><ele></ele><time>2020-7-27T23:21:50Z</time></trkpt>
<trkpt lat="46.61967" lon="6.33495"><ele></ele><time>2020-7-27T23:21:53Z</time></trkpt>
<trkpt lat="46.61972" lon="6.33501"><ele></ele><time>2020-7-27T23:21:56Z</time></trkpt>
<trkpt lat="46.61983" lon="6.33512"><ele></ele><time>2020-7-27T23:21:59Z</time></trkpt>
<trkpt lat="46.61999" lon="6.33532"><ele></ele><time>2020-7-27T23:22:2Z</time></trkpt>
<trkpt lat="46.62003" lon="6.33537"><ele></ele><time>2020-7-27T23:22:5Z</time></trkpt>
<trkpt lat="46.62005" lon="6.33541"><ele></ele><time>2020-7-27T23:22:8Z</time></trkpt>
<trkpt lat="46.62013" lon="6.33559"><ele></ele><time>2020-7-27T23:22:11Z</time></trkpt>
<trkpt lat="46.62019" lon="6.33572"><ele></ele><time>2020-7-27T23:22:14Z</time></trkpt>
<trkpt lat="46.62025" lon="6.33581"><ele></ele><time>2020-7-27T23:22:17Z</time></trkpt>
<trkpt lat="46.62039" lon="6.33598"><ele></ele><time>2020-7-27T23:22:20Z</time></trkpt>
<trkpt lat="46.62049" lon="6.33612"><ele></ele><time>2020-7-27T23:22:23Z</time></trkpt>
<trkpt lat="46.62057" lon="6.33626"><ele></ele><time>2020-7-27T23:22:26Z</time></trkpt>
<trkpt lat="46.62061" lon="6.33635"><ele></ele><time>2020-7-27T23:22:29Z</time></trkpt>
<trkpt lat="46.62067" lon="6.33654"><ele></ele><time>2020-7-27T23:22:32Z</time></trkpt>
<trkpt lat="46.6207" lon="6.33664"><ele></ele><time>2020-7-27T23:22:35Z</time></trkpt>
<trkpt lat="46.62077" lon="6.33694"><ele></ele><time>2020-7-27T23:22:38Z</time></trkpt>
<trkpt lat="46.6208" lon="6.33703"><ele></ele><time>2020-7-27T23:22:41Z</time></trkpt>
<trkpt lat="46.62083" lon="6.33711"><ele></ele><time>2020-7-27T23:22:44Z</time></trkpt>
<trkpt lat="46.62087" lon="6.33718"><ele></ele><time>2020-7-27T23:22:47Z</time></trkpt>
<trkpt lat="46.62097" lon="6.33732"><ele></ele><time>2020-7-27T23:22:50Z</time></trkpt>
<trkpt lat="46.62103" lon="6.33737"><ele></ele><time>2020-7-27T23:22:53Z</time></trkpt>
<trkpt lat="46.62121" lon="6.33754"><ele></ele><time>2020-7-27T23:22:56Z</time></trkpt>
<trkpt lat="46.62139" lon="6.3377"><ele></ele><time>2020-7-27T23:22:59Z</time></trkpt>
<trkpt lat="46.62156" lon="6.33791"><ele></ele><time>2020-7-27T23:23:2Z</time></trkpt>
<trkpt lat="46.62175" lon="6.33817"><ele></ele><time>2020-7-27T23:23:5Z</time></trkpt>
<trkpt lat="46.62187" lon="6.33836"><ele></ele><time>2020-7-27T23:23:8Z</time></trkpt>
<trkpt lat="46.62205" lon="6.33865"><ele></ele><time>2020-7-27T23:23:11Z</time></trkpt>
<trkpt lat="46.6221" lon="6.33875"><ele></ele><time>2020-7-27T23:23:14Z</time></trkpt>
<trkpt lat="46.62226" lon="6.33901"><ele></ele><time>2020-7-27T23:23:17Z</time></trkpt>
<trkpt lat="46.62238" lon="6.33926"><ele></ele><time>2020-7-27T23:23:20Z</time></trkpt>
<trkpt lat="46.62243" lon="6.33944"><ele></ele><time>2020-7-27T23:23:23Z</time></trkpt>
<trkpt lat="46.6225" lon="6.33971"><ele></ele><time>2020-7-27T23:23:26Z</time></trkpt>
<trkpt lat="46.62255" lon="6.33988"><ele></ele><time>2020-7-27T23:23:29Z</time></trkpt>
<trkpt lat="46.62265" lon="6.34011"><ele></ele><time>2020-7-27T23:23:32Z</time></trkpt>
<trkpt lat="46.62268" lon="6.34017"><ele></ele><time>2020-7-27T23:23:35Z</time></trkpt>
<trkpt lat="46.62274" lon="6.34028"><ele></ele><time>2020-7-27T23:23:38Z</time></trkpt>
<trkpt lat="46.62287" lon="6.3404"><ele></ele><time>2020-7-27T23:23:41Z</time></trkpt>
<trkpt lat="46.62291" lon="6.34044"><ele></ele><time>2020-7-27T23:23:44Z</time></trkpt>
<trkpt lat="46.62301" lon="6.3405"><ele></ele><time>2020-7-27T23:23:47Z</time></trkpt>
<trkpt lat="46.62321" lon="6.34053"><ele></ele><time>2020-7-27T23:23:50Z</time></trkpt>
<trkpt lat="46.62326" lon="6.34053"><ele></ele><time>2020-7-27T23:23:53Z</time></trkpt>
<trkpt lat="46.6233" lon="6.34053"><ele></ele><time>2020-7-27T23:23:56Z</time></trkpt>
<trkpt lat="46.62334" lon="6.34052"><ele></ele><time>2020-7-27T23:23:59Z</time></trkpt>
<trkpt lat="46.62352" lon="6.34054"><ele></ele><time>2020-7-27T23:24:2Z</time></trkpt>
<trkpt lat="46.62371" lon="6.34063"><ele></ele><time>2020-7-27T23:24:5Z</time></trkpt>
<trkpt lat="46.62389" lon="6.34075"><ele></ele><time>2020-7-27T23:24:8Z</time></trkpt>
<trkpt lat="46.6241" lon="6.34091"><ele></ele><time>2020-7-27T23:24:11Z</time></trkpt>
<trkpt lat="46.62426" lon="6.34102"><ele></ele><time>2020-7-27T23:24:14Z</time></trkpt>
<trkpt lat="46.62439" lon="6.34121"><ele></ele><time>2020-7-27T23:24:17Z</time></trkpt>
<trkpt lat="46.62447" lon="6.34145"><ele></ele><time>2020-7-27T23:24:20Z</time></trkpt>
<trkpt lat="46.62457" lon="6.34166"><ele></ele><time>2020-7-27T23:24:23Z</time></trkpt>
<trkpt lat="46.62479" lon="6.3419"><ele></ele><time>2020-7-27T23:24:26Z</time></trkpt>
<trkpt lat="46.62492" lon="6.34209"><ele></ele><time>2020-7-27T23:24:29Z</time></trkpt>
<trkpt lat="46.625" lon="6.3423"><ele></ele><time>2020-7-27T23:24:32Z</time></trkpt>
<trkpt lat="46.6251" lon="6.34259"><ele></ele><time>2020-7-27T23:24:35Z</time></trkpt>
<trkpt lat="46.62518" lon="6.34284"><ele></ele><time>2020-7-27T23:24:38Z</time></trkpt>
<trkpt lat="46.62526" lon="6.34312"><ele></ele><time>2020-7-27T23:24:41Z</time></trkpt>
<trkpt lat="46.62531" lon="6.34326"><ele></ele><time>2020-7-27T23:24:44Z</time></trkpt>
<trkpt lat="46.62537" lon="6.34354"><ele></ele><time>2020-7-27T23:24:47Z</time></trkpt>
<trkpt lat="46.62541" lon="6.34375"><ele></ele><time>2020-7-27T23:24:50Z</time></trkpt>
<trkpt lat="46.62542" lon="6.34382"><ele></ele><time>2020-7-27T23:24:53Z</time></trkpt>
<trkpt lat="46.62546" lon="6.34413"><ele></ele><time>2020-7-27T23:24:56Z</time></trkpt>
<trkpt lat="46.62548" lon="6.34426"><ele></ele><time>2020-7-27T23:24:59Z</time></trkpt>
<trkpt lat="46.62552" lon="6.34451"><ele></ele><time>2020-7-27T23:25:2Z</time></trkpt>
<trkpt lat="46.62559" lon="6.34476"><ele></ele><time>2020-7-27T23:25:5Z</time></trkpt>
<trkpt lat="46.62577" lon="6.34494"><ele></ele><time>2020-7-27T23:25:8Z</time></trkpt>
<trkpt lat="46.62581" lon="6.34497"><ele></ele><time>2020-7-27T23:25:11Z</time></trkpt>
<trkpt lat="46.62604" lon="6.34508"><ele></ele><time>2020-7-27T23:25:14Z</time></trkpt>
<trkpt lat="46.62625" lon="6.34522"><ele></ele><time>2020-7-27T23:25:17Z</time></trkpt>
<trkpt lat="46.62636" lon="6.34533"><ele></ele><time>2020-7-27T23:25:20Z</time></trkpt>
<trkpt lat="46.62653" lon="6.3455"><ele></ele><time>2020-7-27T23:25:23Z</time></trkpt>
<trkpt lat="46.62669" lon="6.34568"><ele></ele><time>2020-7-27T23:25:26Z</time></trkpt>
<trkpt lat="46.62685" lon="6.34587"><ele></ele><time>2020-7-27T23:25:29Z</time></trkpt>
<trkpt lat="46.62702" lon="6.34605"><ele></ele><time>2020-7-27T23:25:32Z</time></trkpt>
<trkpt lat="46.62718" lon="6.34623"><ele></ele><time>2020-7-27T23:25:35Z</time></trkpt>
<trkpt lat="46.62734" lon="6.34641"><ele></ele><time>2020-7-27T23:25:38Z</time></trkpt>
<trkpt lat="46.62751" lon="6.3466"><ele></ele><time>2020-7-27T23:25:41Z</time></trkpt>
<trkpt lat="46.62764" lon="6.34673"><ele></ele><time>2020-7-27T23:25:44Z</time></trkpt>
<trkpt lat="46.62779" lon="6.3469"><ele></ele><time>2020-7-27T23:25:47Z</time></trkpt>
<trkpt lat="46.62792" lon="6.3471"><ele></ele><time>2020-7-27T23:25:50Z</time></trkpt>
<trkpt lat="46.62799" lon="6.34734"><ele></ele><time>2020-7-27T23:25:53Z</time></trkpt>
<trkpt lat="46.62805" lon="6.34766"><ele></ele><time>2020-7-27T23:25:56Z</time></trkpt>
<trkpt lat="46.62811" lon="6.34789"><ele></ele><time>2020-7-27T23:25:59Z</time></trkpt>
<trkpt lat="46.62825" lon="6.3481"><ele></ele><time>2020-7-27T23:26:2Z</time></trkpt>
<trkpt lat="46.62834" lon="6.34817"><ele></ele><time>2020-7-27T23:26:5Z</time></trkpt>
<trkpt lat="46.62846" lon="6.34824"><ele></ele><time>2020-7-27T23:26:8Z</time></trkpt>
<trkpt lat="46.62863" lon="6.34834"><ele></ele><time>2020-7-27T23:26:11Z</time></trkpt>
<trkpt lat="46.62866" lon="6.34835"><ele></ele><time>2020-7-27T23:26:14Z</time></trkpt>
<trkpt lat="46.62886" lon="6.34842"><ele></ele><time>2020-7-27T23:26:17Z</time></trkpt>
<trkpt lat="46.62891" lon="6.34843"><ele></ele><time>2020-7-27T23:26:20Z</time></trkpt>
<trkpt lat="46.62919" lon="6.34846"><ele></ele><time>2020-7-27T23:26:23Z</time></trkpt>
<trkpt lat="46.62938" lon="6.34854"><ele></ele><time>2020-7-27T23:26:26Z</time></trkpt>
<trkpt lat="46.6295" lon="6.34861"><ele></ele><time>2020-7-27T23:26:29Z</time></trkpt>
<trkpt lat="46.62968" lon="6.34871"><ele></ele><time>2020-7-27T23:26:32Z</time></trkpt>
<trkpt lat="46.62985" lon="6.34876"><ele></ele><time>2020-7-27T23:26:35Z</time></trkpt>
<trkpt lat="46.62998" lon="6.3488"><ele></ele><time>2020-7-27T23:26:38Z</time></trkpt>
<trkpt lat="46.63017" lon="6.34882"><ele></ele><time>2020-7-27T23:26:41Z</time></trkpt>
<trkpt lat="46.6302" lon="6.34883"><ele></ele><time>2020-7-27T23:26:44Z</time></trkpt>
<trkpt lat="46.63031" lon="6.34885"><ele></ele><time>2020-7-27T23:26:47Z</time></trkpt>
<trkpt lat="46.63036" lon="6.3489"><ele></ele><time>2020-7-27T23:26:50Z</time></trkpt>
<trkpt lat="46.63038" lon="6.34918"><ele></ele><time>2020-7-27T23:26:53Z</time></trkpt>
<trkpt lat="46.63046" lon="6.34943"><ele></ele><time>2020-7-27T23:26:56Z</time></trkpt>
<trkpt lat="46.6306" lon="6.3496"><ele></ele><time>2020-7-27T23:26:59Z</time></trkpt>
<trkpt lat="46.63075" lon="6.34978"><ele></ele><time>2020-7-27T23:27:2Z</time></trkpt>
<trkpt lat="46.63094" lon="6.34988"><ele></ele><time>2020-7-27T23:27:5Z</time></trkpt>
<trkpt lat="46.63116" lon="6.34996"><ele></ele><time>2020-7-27T23:27:8Z</time></trkpt>
<trkpt lat="46.63129" lon="6.35003"><ele></ele><time>2020-7-27T23:27:11Z</time></trkpt>
<trkpt lat="46.63145" lon="6.3502"><ele></ele><time>2020-7-27T23:27:14Z</time></trkpt>
<trkpt lat="46.63152" lon="6.35033"><ele></ele><time>2020-7-27T23:27:17Z</time></trkpt>
<trkpt lat="46.63163" lon="6.35055"><ele></ele><time>2020-7-27T23:27:20Z</time></trkpt>
<trkpt lat="46.63171" lon="6.35079"><ele></ele><time>2020-7-27T23:27:23Z</time></trkpt>
<trkpt lat="46.63178" lon="6.35105"><ele></ele><time>2020-7-27T23:27:26Z</time></trkpt>
<trkpt lat="46.63186" lon="6.35123"><ele></ele><time>2020-7-27T23:27:29Z</time></trkpt>
<trkpt lat="46.63187" lon="6.35126"><ele></ele><time>2020-7-27T23:27:32Z</time></trkpt>
<trkpt lat="46.63194" lon="6.35139"><ele></ele><time>2020-7-27T23:27:35Z</time></trkpt>
<trkpt lat="46.63202" lon="6.35159"><ele></ele><time>2020-7-27T23:27:38Z</time></trkpt>
<trkpt lat="46.63212" lon="6.35176"><ele></ele><time>2020-7-27T23:27:41Z</time></trkpt>
<trkpt lat="46.63216" lon="6.35181"><ele></ele><time>2020-7-27T23:27:44Z</time></trkpt>
<trkpt lat="46.63229" lon="6.35199"><ele></ele><time>2020-7-27T23:27:47Z</time></trkpt>
<trkpt lat="46.63245" lon="6.35219"><ele></ele><time>2020-7-27T23:27:50Z</time></trkpt>
<trkpt lat="46.63262" lon="6.35242"><ele></ele><time>2020-7-27T23:27:53Z</time></trkpt>
<trkpt lat="46.63278" lon="6.35264"><ele></ele><time>2020-7-27T23:27:56Z</time></trkpt>
<trkpt lat="46.63291" lon="6.35285"><ele></ele><time>2020-7-27T23:27:59Z</time></trkpt>
<trkpt lat="46.63306" lon="6.35307"><ele></ele><time>2020-7-27T23:28:2Z</time></trkpt>
<trkpt lat="46.6331" lon="6.35312"><ele></ele><time>2020-7-27T23:28:5Z</time></trkpt>
<trkpt lat="46.63327" lon="6.35333"><ele></ele><time>2020-7-27T23:28:8Z</time></trkpt>
<trkpt lat="46.63345" lon="6.35353"><ele></ele><time>2020-7-27T23:28:11Z</time></trkpt>
<trkpt lat="46.63363" lon="6.35375"><ele></ele><time>2020-7-27T23:28:14Z</time></trkpt>
<trkpt lat="46.63378" lon="6.35395"><ele></ele><time>2020-7-27T23:28:17Z</time></trkpt>
<trkpt lat="46.63391" lon="6.35417"><ele></ele><time>2020-7-27T23:28:20Z</time></trkpt>
<trkpt lat="46.63405" lon="6.35439"><ele></ele><time>2020-7-27T23:28:23Z</time></trkpt>
<trkpt lat="46.6342" lon="6.35459"><ele></ele><time>2020-7-27T23:28:26Z</time></trkpt>
<trkpt lat="46.63444" lon="6.35472"><ele></ele><time>2020-7-27T23:28:29Z</time></trkpt>
<trkpt lat="46.63462" lon="6.35477"><ele></ele><time>2020-7-27T23:28:32Z</time></trkpt>
<trkpt lat="46.63471" lon="6.35478"><ele></ele><time>2020-7-27T23:28:35Z</time></trkpt>
<trkpt lat="46.63492" lon="6.35485"><ele></ele><time>2020-7-27T23:28:38Z</time></trkpt>
<trkpt lat="46.63511" lon="6.35492"><ele></ele><time>2020-7-27T23:28:41Z</time></trkpt>
<trkpt lat="46.63521" lon="6.35496"><ele></ele><time>2020-7-27T23:28:44Z</time></trkpt>
<trkpt lat="46.63539" lon="6.35506"><ele></ele><time>2020-7-27T23:28:47Z</time></trkpt>
<trkpt lat="46.63562" lon="6.35524"><ele></ele><time>2020-7-27T23:28:50Z</time></trkpt>
<trkpt lat="46.63571" lon="6.35529"><ele></ele><time>2020-7-27T23:28:53Z</time></trkpt>
<trkpt lat="46.63596" lon="6.35541"><ele></ele><time>2020-7-27T23:28:56Z</time></trkpt>
<trkpt lat="46.63605" lon="6.35547"><ele></ele><time>2020-7-27T23:28:59Z</time></trkpt>
<trkpt lat="46.63626" lon="6.35563"><ele></ele><time>2020-7-27T23:29:2Z</time></trkpt>
<trkpt lat="46.63647" lon="6.3558"><ele></ele><time>2020-7-27T23:29:5Z</time></trkpt>
<trkpt lat="46.63667" lon="6.35592"><ele></ele><time>2020-7-27T23:29:8Z</time></trkpt>
<trkpt lat="46.63686" lon="6.35601"><ele></ele><time>2020-7-27T23:29:11Z</time></trkpt>
<trkpt lat="46.63695" lon="6.35606"><ele></ele><time>2020-7-27T23:29:14Z</time></trkpt>
<trkpt lat="46.63714" lon="6.35622"><ele></ele><time>2020-7-27T23:29:17Z</time></trkpt>
<trkpt lat="46.63729" lon="6.35635"><ele></ele><time>2020-7-27T23:29:20Z</time></trkpt>
<trkpt lat="46.63746" lon="6.35645"><ele></ele><time>2020-7-27T23:29:23Z</time></trkpt>
<trkpt lat="46.63765" lon="6.35657"><ele></ele><time>2020-7-27T23:29:26Z</time></trkpt>
<trkpt lat="46.63774" lon="6.35673"><ele></ele><time>2020-7-27T23:29:29Z</time></trkpt>
<trkpt lat="46.63772" lon="6.35687"><ele></ele><time>2020-7-27T23:29:32Z</time></trkpt>
<trkpt lat="46.6377" lon="6.35696"><ele></ele><time>2020-7-27T23:29:35Z</time></trkpt>
<trkpt lat="46.63765" lon="6.35717"><ele></ele><time>2020-7-27T23:29:38Z</time></trkpt>
<trkpt lat="46.63753" lon="6.3575"><ele></ele><time>2020-7-27T23:29:41Z</time></trkpt>
<trkpt lat="46.6374" lon="6.3577"><ele></ele><time>2020-7-27T23:29:44Z</time></trkpt>
<trkpt lat="46.63726" lon="6.35788"><ele></ele><time>2020-7-27T23:29:47Z</time></trkpt>
<trkpt lat="46.63712" lon="6.35804"><ele></ele><time>2020-7-27T23:29:50Z</time></trkpt>
<trkpt lat="46.637" lon="6.3582"><ele></ele><time>2020-7-27T23:29:53Z</time></trkpt>
<trkpt lat="46.63687" lon="6.35851"><ele></ele><time>2020-7-27T23:29:56Z</time></trkpt>
<trkpt lat="46.63682" lon="6.35862"><ele></ele><time>2020-7-27T23:29:59Z</time></trkpt>
<trkpt lat="46.63664" lon="6.35887"><ele></ele><time>2020-7-27T23:30:2Z</time></trkpt>
<trkpt lat="46.63647" lon="6.359"><ele></ele><time>2020-7-27T23:30:5Z</time></trkpt>
<trkpt lat="46.63628" lon="6.3591"><ele></ele><time>2020-7-27T23:30:8Z</time></trkpt>
<trkpt lat="46.63604" lon="6.3592"><ele></ele><time>2020-7-27T23:30:11Z</time></trkpt>
<trkpt lat="46.63582" lon="6.35928"><ele></ele><time>2020-7-27T23:30:14Z</time></trkpt>
<trkpt lat="46.63561" lon="6.35949"><ele></ele><time>2020-7-27T23:30:17Z</time></trkpt>
<trkpt lat="46.63545" lon="6.35964"><ele></ele><time>2020-7-27T23:30:20Z</time></trkpt>
<trkpt lat="46.63526" lon="6.35977"><ele></ele><time>2020-7-27T23:30:23Z</time></trkpt>
<trkpt lat="46.63506" lon="6.35988"><ele></ele><time>2020-7-27T23:30:26Z</time></trkpt>
<trkpt lat="46.63489" lon="6.35999"><ele></ele><time>2020-7-27T23:30:29Z</time></trkpt>
<trkpt lat="46.63483" lon="6.36005"><ele></ele><time>2020-7-27T23:30:32Z</time></trkpt>
<trkpt lat="46.63476" lon="6.36031"><ele></ele><time>2020-7-27T23:30:35Z</time></trkpt>
<trkpt lat="46.63489" lon="6.36042"><ele></ele><time>2020-7-27T23:30:38Z</time></trkpt>
<trkpt lat="46.63496" lon="6.36045"><ele></ele><time>2020-7-27T23:30:41Z</time></trkpt>
<trkpt lat="46.63517" lon="6.36052"><ele></ele><time>2020-7-27T23:30:44Z</time></trkpt>
<trkpt lat="46.63535" lon="6.36049"><ele></ele><time>2020-7-27T23:30:47Z</time></trkpt>
<trkpt lat="46.63554" lon="6.3605"><ele></ele><time>2020-7-27T23:30:50Z</time></trkpt>
<trkpt lat="46.63568" lon="6.36072"><ele></ele><time>2020-7-27T23:30:53Z</time></trkpt>
<trkpt lat="46.63568" lon="6.36103"><ele></ele><time>2020-7-27T23:30:56Z</time></trkpt>
<trkpt lat="46.63567" lon="6.36113"><ele></ele><time>2020-7-27T23:30:59Z</time></trkpt>
<trkpt lat="46.63567" lon="6.36124"><ele></ele><time>2020-7-27T23:31:2Z</time></trkpt>
<trkpt lat="46.63572" lon="6.36151"><ele></ele><time>2020-7-27T23:31:5Z</time></trkpt>
<trkpt lat="46.63579" lon="6.36178"><ele></ele><time>2020-7-27T23:31:8Z</time></trkpt>
<trkpt lat="46.63584" lon="6.36199"><ele></ele><time>2020-7-27T23:31:11Z</time></trkpt>
<trkpt lat="46.63595" lon="6.3623"><ele></ele><time>2020-7-27T23:31:14Z</time></trkpt>
<trkpt lat="46.63598" lon="6.3624"><ele></ele><time>2020-7-27T23:31:17Z</time></trkpt>
<trkpt lat="46.63599" lon="6.36272"><ele></ele><time>2020-7-27T23:31:20Z</time></trkpt>
<trkpt lat="46.63597" lon="6.36283"><ele></ele><time>2020-7-27T23:31:23Z</time></trkpt>
<trkpt lat="46.63595" lon="6.36294"><ele></ele><time>2020-7-27T23:31:26Z</time></trkpt>
<trkpt lat="46.63593" lon="6.36318"><ele></ele><time>2020-7-27T23:31:29Z</time></trkpt>
<trkpt lat="46.63593" lon="6.36332"><ele></ele><time>2020-7-27T23:31:32Z</time></trkpt>
<trkpt lat="46.63592" lon="6.36363"><ele></ele><time>2020-7-27T23:31:35Z</time></trkpt>
<trkpt lat="46.6359" lon="6.36396"><ele></ele><time>2020-7-27T23:31:38Z</time></trkpt>
<trkpt lat="46.63589" lon="6.3643"><ele></ele><time>2020-7-27T23:31:41Z</time></trkpt>
<trkpt lat="46.63588" lon="6.36448"><ele></ele><time>2020-7-27T23:31:44Z</time></trkpt>
<trkpt lat="46.63587" lon="6.36481"><ele></ele><time>2020-7-27T23:31:47Z</time></trkpt>
<trkpt lat="46.63586" lon="6.36495"><ele></ele><time>2020-7-27T23:31:50Z</time></trkpt>
<trkpt lat="46.63582" lon="6.36531"><ele></ele><time>2020-7-27T23:31:53Z</time></trkpt>
<trkpt lat="46.63576" lon="6.36557"><ele></ele><time>2020-7-27T23:31:56Z</time></trkpt>
<trkpt lat="46.63569" lon="6.36584"><ele></ele><time>2020-7-27T23:31:59Z</time></trkpt>
<trkpt lat="46.63562" lon="6.36611"><ele></ele><time>2020-7-27T23:32:2Z</time></trkpt>
<trkpt lat="46.63553" lon="6.36639"><ele></ele><time>2020-7-27T23:32:5Z</time></trkpt>
<trkpt lat="46.6354" lon="6.36663"><ele></ele><time>2020-7-27T23:32:8Z</time></trkpt>
<trkpt lat="46.63524" lon="6.36684"><ele></ele><time>2020-7-27T23:32:11Z</time></trkpt>
<trkpt lat="46.63516" lon="6.36694"><ele></ele><time>2020-7-27T23:32:14Z</time></trkpt>
<trkpt lat="46.63502" lon="6.36717"><ele></ele><time>2020-7-27T23:32:17Z</time></trkpt>
<trkpt lat="46.63486" lon="6.36741"><ele></ele><time>2020-7-27T23:32:20Z</time></trkpt>
<trkpt lat="46.63469" lon="6.36761"><ele></ele><time>2020-7-27T23:32:23Z</time></trkpt>
<trkpt lat="46.63461" lon="6.36769"><ele></ele><time>2020-7-27T23:32:26Z</time></trkpt>
<trkpt lat="46.63437" lon="6.36782"><ele></ele><time>2020-7-27T23:32:29Z</time></trkpt>
<trkpt lat="46.63428" lon="6.36783"><ele></ele><time>2020-7-27T23:32:32Z</time></trkpt>
<trkpt lat="46.63411" lon="6.36781"><ele></ele><time>2020-7-27T23:32:35Z</time></trkpt>
<trkpt lat="46.63403" lon="6.36779"><ele></ele><time>2020-7-27T23:32:38Z</time></trkpt>
<trkpt lat="46.63386" lon="6.3677"><ele></ele><time>2020-7-27T23:32:41Z</time></trkpt>
<trkpt lat="46.63364" lon="6.3675"><ele></ele><time>2020-7-27T23:32:44Z</time></trkpt>
<trkpt lat="46.63344" lon="6.36728"><ele></ele><time>2020-7-27T23:32:47Z</time></trkpt>
<trkpt lat="46.63324" lon="6.36707"><ele></ele><time>2020-7-27T23:32:50Z</time></trkpt>
<trkpt lat="46.63317" lon="6.36701"><ele></ele><time>2020-7-27T23:32:53Z</time></trkpt>
<trkpt lat="46.63294" lon="6.36695"><ele></ele><time>2020-7-27T23:32:56Z</time></trkpt>
<trkpt lat="46.63279" lon="6.36696"><ele></ele><time>2020-7-27T23:32:59Z</time></trkpt>
<trkpt lat="46.63266" lon="6.36699"><ele></ele><time>2020-7-27T23:33:2Z</time></trkpt>
<trkpt lat="46.63246" lon="6.36705"><ele></ele><time>2020-7-27T23:33:5Z</time></trkpt>
<trkpt lat="46.63228" lon="6.36709"><ele></ele><time>2020-7-27T23:33:8Z</time></trkpt>
<trkpt lat="46.63205" lon="6.36715"><ele></ele><time>2020-7-27T23:33:11Z</time></trkpt>
<trkpt lat="46.63194" lon="6.36715"><ele></ele><time>2020-7-27T23:33:14Z</time></trkpt>
<trkpt lat="46.63176" lon="6.3671"><ele></ele><time>2020-7-27T23:33:17Z</time></trkpt>
<trkpt lat="46.63167" lon="6.36708"><ele></ele><time>2020-7-27T23:33:20Z</time></trkpt>
<trkpt lat="46.63147" lon="6.367"><ele></ele><time>2020-7-27T23:33:23Z</time></trkpt>
<trkpt lat="46.63142" lon="6.36697"><ele></ele><time>2020-7-27T23:33:26Z</time></trkpt>
<trkpt lat="46.63121" lon="6.36688"><ele></ele><time>2020-7-27T23:33:29Z</time></trkpt>
<trkpt lat="46.63109" lon="6.36686"><ele></ele><time>2020-7-27T23:33:32Z</time></trkpt>
<trkpt lat="46.63089" lon="6.36692"><ele></ele><time>2020-7-27T23:33:35Z</time></trkpt>
<trkpt lat="46.63071" lon="6.36705"><ele></ele><time>2020-7-27T23:33:38Z</time></trkpt>
<trkpt lat="46.63059" lon="6.36718"><ele></ele><time>2020-7-27T23:33:41Z</time></trkpt>
<trkpt lat="46.63039" lon="6.36738"><ele></ele><time>2020-7-27T23:33:44Z</time></trkpt>
<trkpt lat="46.63019" lon="6.36759"><ele></ele><time>2020-7-27T23:33:47Z</time></trkpt>
<trkpt lat="46.63015" lon="6.36766"><ele></ele><time>2020-7-27T23:33:50Z</time></trkpt>
<trkpt lat="46.63008" lon="6.36779"><ele></ele><time>2020-7-27T23:33:53Z</time></trkpt>
<trkpt lat="46.63003" lon="6.36794"><ele></ele><time>2020-7-27T23:33:56Z</time></trkpt>
<trkpt lat="46.62997" lon="6.36825"><ele></ele><time>2020-7-27T23:33:59Z</time></trkpt>
<trkpt lat="46.62994" lon="6.36841"><ele></ele><time>2020-7-27T23:34:2Z</time></trkpt>
<trkpt lat="46.62981" lon="6.3687"><ele></ele><time>2020-7-27T23:34:5Z</time></trkpt>
<trkpt lat="46.62978" lon="6.36877"><ele></ele><time>2020-7-27T23:34:8Z</time></trkpt>
<trkpt lat="46.62966" lon="6.369"><ele></ele><time>2020-7-27T23:34:11Z</time></trkpt>
<trkpt lat="46.62954" lon="6.36924"><ele></ele><time>2020-7-27T23:34:14Z</time></trkpt>
<trkpt lat="46.62943" lon="6.3695"><ele></ele><time>2020-7-27T23:34:17Z</time></trkpt>
<trkpt lat="46.62933" lon="6.36976"><ele></ele><time>2020-7-27T23:34:20Z</time></trkpt>
<trkpt lat="46.62923" lon="6.37001"><ele></ele><time>2020-7-27T23:34:23Z</time></trkpt>
<trkpt lat="46.62915" lon="6.37026"><ele></ele><time>2020-7-27T23:34:26Z</time></trkpt>
<trkpt lat="46.62906" lon="6.3705"><ele></ele><time>2020-7-27T23:34:29Z</time></trkpt>
<trkpt lat="46.62899" lon="6.37082"><ele></ele><time>2020-7-27T23:34:32Z</time></trkpt>
<trkpt lat="46.62897" lon="6.37115"><ele></ele><time>2020-7-27T23:34:35Z</time></trkpt>
<trkpt lat="46.62895" lon="6.3713"><ele></ele><time>2020-7-27T23:34:38Z</time></trkpt>
<trkpt lat="46.62893" lon="6.37137"><ele></ele><time>2020-7-27T23:34:41Z</time></trkpt>
<trkpt lat="46.62888" lon="6.37158"><ele></ele><time>2020-7-27T23:34:44Z</time></trkpt>
<trkpt lat="46.62879" lon="6.3718"><ele></ele><time>2020-7-27T23:34:47Z</time></trkpt>
<trkpt lat="46.62873" lon="6.37191"><ele></ele><time>2020-7-27T23:34:50Z</time></trkpt>
<trkpt lat="46.62855" lon="6.37209"><ele></ele><time>2020-7-27T23:34:53Z</time></trkpt>
<trkpt lat="46.6285" lon="6.37212"><ele></ele><time>2020-7-27T23:34:56Z</time></trkpt>
<trkpt lat="46.62845" lon="6.37214"><ele></ele><time>2020-7-27T23:34:59Z</time></trkpt>
<trkpt lat="46.62835" lon="6.37216"><ele></ele><time>2020-7-27T23:35:2Z</time></trkpt>
<trkpt lat="46.62829" lon="6.37216"><ele></ele><time>2020-7-27T23:35:5Z</time></trkpt>
<trkpt lat="46.62814" lon="6.37218"><ele></ele><time>2020-7-27T23:35:8Z</time></trkpt>
<trkpt lat="46.62809" lon="6.37218"><ele></ele><time>2020-7-27T23:35:11Z</time></trkpt>
<trkpt lat="46.62791" lon="6.37207"><ele></ele><time>2020-7-27T23:35:14Z</time></trkpt>
<trkpt lat="46.62785" lon="6.37196"><ele></ele><time>2020-7-27T23:35:17Z</time></trkpt>
<trkpt lat="46.62779" lon="6.37185"><ele></ele><time>2020-7-27T23:35:20Z</time></trkpt>
<trkpt lat="46.62768" lon="6.37161"><ele></ele><time>2020-7-27T23:35:23Z</time></trkpt>
<trkpt lat="46.62762" lon="6.37147"><ele></ele><time>2020-7-27T23:35:26Z</time></trkpt>
<trkpt lat="46.62753" lon="6.37129"><ele></ele><time>2020-7-27T23:35:29Z</time></trkpt>
<trkpt lat="46.62747" lon="6.37118"><ele></ele><time>2020-7-27T23:35:32Z</time></trkpt>
<trkpt lat="46.62736" lon="6.37095"><ele></ele><time>2020-7-27T23:35:35Z</time></trkpt>
<trkpt lat="46.62731" lon="6.37084"><ele></ele><time>2020-7-27T23:35:38Z</time></trkpt>
<trkpt lat="46.62717" lon="6.37061"><ele></ele><time>2020-7-27T23:35:41Z</time></trkpt>
<trkpt lat="46.62715" lon="6.37057"><ele></ele><time>2020-7-27T23:35:44Z</time></trkpt>
<trkpt lat="46.62698" lon="6.37036"><ele></ele><time>2020-7-27T23:35:47Z</time></trkpt>
<trkpt lat="46.62692" lon="6.3703"><ele></ele><time>2020-7-27T23:35:50Z</time></trkpt>
<trkpt lat="46.62686" lon="6.37026"><ele></ele><time>2020-7-27T23:35:53Z</time></trkpt>
<trkpt lat="46.62673" lon="6.37019"><ele></ele><time>2020-7-27T23:35:56Z</time></trkpt>
<trkpt lat="46.62654" lon="6.3701"><ele></ele><time>2020-7-27T23:35:59Z</time></trkpt>
<trkpt lat="46.62636" lon="6.37003"><ele></ele><time>2020-7-27T23:36:2Z</time></trkpt>
<trkpt lat="46.62621" lon="6.36998"><ele></ele><time>2020-7-27T23:36:5Z</time></trkpt>
<trkpt lat="46.62603" lon="6.36992"><ele></ele><time>2020-7-27T23:36:8Z</time></trkpt>
<trkpt lat="46.62585" lon="6.36987"><ele></ele><time>2020-7-27T23:36:11Z</time></trkpt>
<trkpt lat="46.62563" lon="6.36979"><ele></ele><time>2020-7-27T23:36:14Z</time></trkpt>
<trkpt lat="46.62543" lon="6.3697"><ele></ele><time>2020-7-27T23:36:17Z</time></trkpt>
<trkpt lat="46.62539" lon="6.3697"><ele></ele><time>2020-7-27T23:36:20Z</time></trkpt>
<trkpt lat="46.62516" lon="6.36962"><ele></ele><time>2020-7-27T23:36:23Z</time></trkpt>
<trkpt lat="46.62509" lon="6.36959"><ele></ele><time>2020-7-27T23:36:26Z</time></trkpt>
<trkpt lat="46.62495" lon="6.36954"><ele></ele><time>2020-7-27T23:36:29Z</time></trkpt>
<trkpt lat="46.62472" lon="6.36948"><ele></ele><time>2020-7-27T23:36:32Z</time></trkpt>
<trkpt lat="46.6245" lon="6.36941"><ele></ele><time>2020-7-27T23:36:35Z</time></trkpt>
<trkpt lat="46.6243" lon="6.36938"><ele></ele><time>2020-7-27T23:36:38Z</time></trkpt>
<trkpt lat="46.62406" lon="6.36938"><ele></ele><time>2020-7-27T23:36:41Z</time></trkpt>
<trkpt lat="46.62399" lon="6.36939"><ele></ele><time>2020-7-27T23:36:44Z</time></trkpt>
<trkpt lat="46.62377" lon="6.36946"><ele></ele><time>2020-7-27T23:36:47Z</time></trkpt>
<trkpt lat="46.62369" lon="6.3695"><ele></ele><time>2020-7-27T23:36:50Z</time></trkpt>
<trkpt lat="46.62346" lon="6.36964"><ele></ele><time>2020-7-27T23:36:53Z</time></trkpt>
<trkpt lat="46.62333" lon="6.36973"><ele></ele><time>2020-7-27T23:36:56Z</time></trkpt>
<trkpt lat="46.62316" lon="6.36977"><ele></ele><time>2020-7-27T23:36:59Z</time></trkpt>
<trkpt lat="46.62308" lon="6.36978"><ele></ele><time>2020-7-27T23:37:2Z</time></trkpt>
<trkpt lat="46.62289" lon="6.36977"><ele></ele><time>2020-7-27T23:37:5Z</time></trkpt>
<trkpt lat="46.6227" lon="6.36973"><ele></ele><time>2020-7-27T23:37:8Z</time></trkpt>
<trkpt lat="46.62251" lon="6.3697"><ele></ele><time>2020-7-27T23:37:11Z</time></trkpt>
<trkpt lat="46.62233" lon="6.3697"><ele></ele><time>2020-7-27T23:37:14Z</time></trkpt>
<trkpt lat="46.62215" lon="6.36973"><ele></ele><time>2020-7-27T23:37:17Z</time></trkpt>
<trkpt lat="46.62191" lon="6.36979"><ele></ele><time>2020-7-27T23:37:20Z</time></trkpt>
<trkpt lat="46.62177" lon="6.36982"><ele></ele><time>2020-7-27T23:37:23Z</time></trkpt>
<trkpt lat="46.62154" lon="6.36978"><ele></ele><time>2020-7-27T23:37:26Z</time></trkpt>
<trkpt lat="46.62134" lon="6.3697"><ele></ele><time>2020-7-27T23:37:29Z</time></trkpt>
<trkpt lat="46.62126" lon="6.36966"><ele></ele><time>2020-7-27T23:37:32Z</time></trkpt>
<trkpt lat="46.62108" lon="6.36959"><ele></ele><time>2020-7-27T23:37:35Z</time></trkpt>
<trkpt lat="46.62089" lon="6.36954"><ele></ele><time>2020-7-27T23:37:38Z</time></trkpt>
<trkpt lat="46.62065" lon="6.36946"><ele></ele><time>2020-7-27T23:37:41Z</time></trkpt>
<trkpt lat="46.62038" lon="6.36938"><ele></ele><time>2020-7-27T23:37:44Z</time></trkpt>
<trkpt lat="46.6202" lon="6.36932"><ele></ele><time>2020-7-27T23:37:47Z</time></trkpt>
<trkpt lat="46.62002" lon="6.36926"><ele></ele><time>2020-7-27T23:37:50Z</time></trkpt>
<trkpt lat="46.61994" lon="6.36923"><ele></ele><time>2020-7-27T23:37:53Z</time></trkpt>
<trkpt lat="46.6197" lon="6.36931"><ele></ele><time>2020-7-27T23:37:56Z</time></trkpt>
<trkpt lat="46.61955" lon="6.36943"><ele></ele><time>2020-7-27T23:37:59Z</time></trkpt>
<trkpt lat="46.61941" lon="6.36953"><ele></ele><time>2020-7-27T23:38:2Z</time></trkpt>
<trkpt lat="46.61926" lon="6.3696"><ele></ele><time>2020-7-27T23:38:5Z</time></trkpt>
<trkpt lat="46.61898" lon="6.36969"><ele></ele><time>2020-7-27T23:38:8Z</time></trkpt>
<trkpt lat="46.61879" lon="6.36976"><ele></ele><time>2020-7-27T23:38:11Z</time></trkpt>
<trkpt lat="46.61856" lon="6.36981"><ele></ele><time>2020-7-27T23:38:14Z</time></trkpt>
<trkpt lat="46.61839" lon="6.36975"><ele></ele><time>2020-7-27T23:38:17Z</time></trkpt>
<trkpt lat="46.61823" lon="6.36957"><ele></ele><time>2020-7-27T23:38:20Z</time></trkpt>
<trkpt lat="46.61804" lon="6.36951"><ele></ele><time>2020-7-27T23:38:23Z</time></trkpt>
<trkpt lat="46.61794" lon="6.3696"><ele></ele><time>2020-7-27T23:38:26Z</time></trkpt>
<trkpt lat="46.61794" lon="6.36995"><ele></ele><time>2020-7-27T23:38:29Z</time></trkpt>
<trkpt lat="46.61795" lon="6.37015"><ele></ele><time>2020-7-27T23:38:32Z</time></trkpt>
<trkpt lat="46.61798" lon="6.37034"><ele></ele><time>2020-7-27T23:38:35Z</time></trkpt>
<trkpt lat="46.61809" lon="6.37058"><ele></ele><time>2020-7-27T23:38:38Z</time></trkpt>
<trkpt lat="46.61829" lon="6.37077"><ele></ele><time>2020-7-27T23:38:41Z</time></trkpt>
<trkpt lat="46.61836" lon="6.37083"><ele></ele><time>2020-7-27T23:38:44Z</time></trkpt>
<trkpt lat="46.61851" lon="6.37096"><ele></ele><time>2020-7-27T23:38:47Z</time></trkpt>
<trkpt lat="46.61876" lon="6.37105"><ele></ele><time>2020-7-27T23:38:50Z</time></trkpt>
<trkpt lat="46.61885" lon="6.37107"><ele></ele><time>2020-7-27T23:38:53Z</time></trkpt>
<trkpt lat="46.61903" lon="6.3711"><ele></ele><time>2020-7-27T23:38:56Z</time></trkpt>
<trkpt lat="46.61911" lon="6.37115"><ele></ele><time>2020-7-27T23:38:59Z</time></trkpt>
<trkpt lat="46.61929" lon="6.37143"><ele></ele><time>2020-7-27T23:39:2Z</time></trkpt>
<trkpt lat="46.61941" lon="6.37168"><ele></ele><time>2020-7-27T23:39:5Z</time></trkpt>
<trkpt lat="46.61954" lon="6.37192"><ele></ele><time>2020-7-27T23:39:8Z</time></trkpt>
<trkpt lat="46.61966" lon="6.37217"><ele></ele><time>2020-7-27T23:39:11Z</time></trkpt>
<trkpt lat="46.6198" lon="6.3724"><ele></ele><time>2020-7-27T23:39:14Z</time></trkpt>
<trkpt lat="46.61995" lon="6.37262"><ele></ele><time>2020-7-27T23:39:17Z</time></trkpt>
<trkpt lat="46.62014" lon="6.37285"><ele></ele><time>2020-7-27T23:39:20Z</time></trkpt>
<trkpt lat="46.62018" lon="6.37291"><ele></ele><time>2020-7-27T23:39:23Z</time></trkpt>
<trkpt lat="46.62007" lon="6.3731"><ele></ele><time>2020-7-27T23:39:26Z</time></trkpt>
<trkpt lat="46.62001" lon="6.37309"><ele></ele><time>2020-7-27T23:39:29Z</time></trkpt>
<trkpt lat="46.61995" lon="6.37308"><ele></ele><time>2020-7-27T23:39:32Z</time></trkpt>
<trkpt lat="46.61975" lon="6.373"><ele></ele><time>2020-7-27T23:39:35Z</time></trkpt>
<trkpt lat="46.61951" lon="6.3729"><ele></ele><time>2020-7-27T23:39:38Z</time></trkpt>
<trkpt lat="46.61926" lon="6.37281"><ele></ele><time>2020-7-27T23:39:41Z</time></trkpt>
<trkpt lat="46.61905" lon="6.37291"><ele></ele><time>2020-7-27T23:39:44Z</time></trkpt>
<trkpt lat="46.61884" lon="6.373"><ele></ele><time>2020-7-27T23:39:47Z</time></trkpt>
<trkpt lat="46.61864" lon="6.37294"><ele></ele><time>2020-7-27T23:39:50Z</time></trkpt>
<trkpt lat="46.61848" lon="6.37273"><ele></ele><time>2020-7-27T23:39:53Z</time></trkpt>
<trkpt lat="46.61837" lon="6.37261"><ele></ele><time>2020-7-27T23:39:56Z</time></trkpt>
<trkpt lat="46.61832" lon="6.37258"><ele></ele><time>2020-7-27T23:39:59Z</time></trkpt>
<trkpt lat="46.61816" lon="6.37263"><ele></ele><time>2020-7-27T23:40:2Z</time></trkpt>
<trkpt lat="46.61832" lon="6.37296"><ele></ele><time>2020-7-27T23:40:5Z</time></trkpt>
<trkpt lat="46.61836" lon="6.37308"><ele></ele><time>2020-7-27T23:40:8Z</time></trkpt>
<trkpt lat="46.61847" lon="6.37331"><ele></ele><time>2020-7-27T23:40:11Z</time></trkpt>
<trkpt lat="46.6186" lon="6.37358"><ele></ele><time>2020-7-27T23:40:14Z</time></trkpt>
<trkpt lat="46.61881" lon="6.37373"><ele></ele><time>2020-7-27T23:40:17Z</time></trkpt>
<trkpt lat="46.61893" lon="6.37393"><ele></ele><time>2020-7-27T23:40:20Z</time></trkpt>
<trkpt lat="46.61898" lon="6.37406"><ele></ele><time>2020-7-27T23:40:23Z</time></trkpt>
<trkpt lat="46.61909" lon="6.37431"><ele></ele><time>2020-7-27T23:40:26Z</time></trkpt>
<trkpt lat="46.61918" lon="6.37453"><ele></ele><time>2020-7-27T23:40:29Z</time></trkpt>
<trkpt lat="46.61922" lon="6.37475"><ele></ele><time>2020-7-27T23:40:32Z</time></trkpt>
<trkpt lat="46.61908" lon="6.37488"><ele></ele><time>2020-7-27T23:40:35Z</time></trkpt>
<trkpt lat="46.61897" lon="6.37484"><ele></ele><time>2020-7-27T23:40:38Z</time></trkpt>
<trkpt lat="46.61874" lon="6.37472"><ele></ele><time>2020-7-27T23:40:41Z</time></trkpt>
<trkpt lat="46.61853" lon="6.37462"><ele></ele><time>2020-7-27T23:40:44Z</time></trkpt>
<trkpt lat="46.61831" lon="6.37456"><ele></ele><time>2020-7-27T23:40:47Z</time></trkpt>
<trkpt lat="46.61809" lon="6.37451"><ele></ele><time>2020-7-27T23:40:50Z</time></trkpt>
<trkpt lat="46.61786" lon="6.37447"><ele></ele><time>2020-7-27T23:40:53Z</time></trkpt>
<trkpt lat="46.61774" lon="6.37445"><ele></ele><time>2020-7-27T23:40:56Z</time></trkpt>
<trkpt lat="46.61763" lon="6.37441"><ele></ele><time>2020-7-27T23:40:59Z</time></trkpt>
<trkpt lat="46.61751" lon="6.37436"><ele></ele><time>2020-7-27T23:41:2Z</time></trkpt>
<trkpt lat="46.61728" lon="6.37424"><ele></ele><time>2020-7-27T23:41:5Z</time></trkpt>
<trkpt lat="46.61706" lon="6.37413"><ele></ele><time>2020-7-27T23:41:8Z</time></trkpt>
<trkpt lat="46.61683" lon="6.37403"><ele></ele><time>2020-7-27T23:41:11Z</time></trkpt>
<trkpt lat="46.61661" lon="6.37395"><ele></ele><time>2020-7-27T23:41:14Z</time></trkpt>
<trkpt lat="46.61642" lon="6.37386"><ele></ele><time>2020-7-27T23:41:17Z</time></trkpt>
<trkpt lat="46.61622" lon="6.37374"><ele></ele><time>2020-7-27T23:41:20Z</time></trkpt>
<trkpt lat="46.61602" lon="6.37363"><ele></ele><time>2020-7-27T23:41:23Z</time></trkpt>
<trkpt lat="46.61592" lon="6.3736"><ele></ele><time>2020-7-27T23:41:26Z</time></trkpt>
<trkpt lat="46.61571" lon="6.37365"><ele></ele><time>2020-7-27T23:41:29Z</time></trkpt>
<trkpt lat="46.61563" lon="6.37372"><ele></ele><time>2020-7-27T23:41:32Z</time></trkpt>
<trkpt lat="46.61537" lon="6.37381"><ele></ele><time>2020-7-27T23:41:35Z</time></trkpt>
<trkpt lat="46.61528" lon="6.37381"><ele></ele><time>2020-7-27T23:41:38Z</time></trkpt>
<trkpt lat="46.61519" lon="6.37381"><ele></ele><time>2020-7-27T23:41:41Z</time></trkpt>
<trkpt lat="46.61502" lon="6.37391"><ele></ele><time>2020-7-27T23:41:44Z</time></trkpt>
<trkpt lat="46.61487" lon="6.37406"><ele></ele><time>2020-7-27T23:41:47Z</time></trkpt>
<trkpt lat="46.61465" lon="6.37425"><ele></ele><time>2020-7-27T23:41:50Z</time></trkpt>
<trkpt lat="46.61447" lon="6.37433"><ele></ele><time>2020-7-27T23:41:53Z</time></trkpt>
<trkpt lat="46.61429" lon="6.37437"><ele></ele><time>2020-7-27T23:41:56Z</time></trkpt>
<trkpt lat="46.6142" lon="6.37438"><ele></ele><time>2020-7-27T23:41:59Z</time></trkpt>
<trkpt lat="46.61401" lon="6.37439"><ele></ele><time>2020-7-27T23:42:2Z</time></trkpt>
<trkpt lat="46.61382" lon="6.37437"><ele></ele><time>2020-7-27T23:42:5Z</time></trkpt>
<trkpt lat="46.61362" lon="6.37434"><ele></ele><time>2020-7-27T23:42:8Z</time></trkpt>
<trkpt lat="46.61342" lon="6.37428"><ele></ele><time>2020-7-27T23:42:11Z</time></trkpt>
<trkpt lat="46.61322" lon="6.37422"><ele></ele><time>2020-7-27T23:42:14Z</time></trkpt>
<trkpt lat="46.61304" lon="6.37414"><ele></ele><time>2020-7-27T23:42:17Z</time></trkpt>
<trkpt lat="46.61286" lon="6.37412"><ele></ele><time>2020-7-27T23:42:20Z</time></trkpt>
<trkpt lat="46.61268" lon="6.37416"><ele></ele><time>2020-7-27T23:42:23Z</time></trkpt>
<trkpt lat="46.6125" lon="6.37425"><ele></ele><time>2020-7-27T23:42:26Z</time></trkpt>
<trkpt lat="46.61231" lon="6.37432"><ele></ele><time>2020-7-27T23:42:29Z</time></trkpt>
<trkpt lat="46.61209" lon="6.3744"><ele></ele><time>2020-7-27T23:42:32Z</time></trkpt>
<trkpt lat="46.61188" lon="6.37453"><ele></ele><time>2020-7-27T23:42:35Z</time></trkpt>
<trkpt lat="46.6117" lon="6.37464"><ele></ele><time>2020-7-27T23:42:38Z</time></trkpt>
<trkpt lat="46.61152" lon="6.37474"><ele></ele><time>2020-7-27T23:42:41Z</time></trkpt>
<trkpt lat="46.61133" lon="6.37479"><ele></ele><time>2020-7-27T23:42:44Z</time></trkpt>
<trkpt lat="46.61113" lon="6.3748"><ele></ele><time>2020-7-27T23:42:47Z</time></trkpt>
<trkpt lat="46.61093" lon="6.37483"><ele></ele><time>2020-7-27T23:42:50Z</time></trkpt>
<trkpt lat="46.61084" lon="6.37487"><ele></ele><time>2020-7-27T23:42:53Z</time></trkpt>
<trkpt lat="46.61066" lon="6.37499"><ele></ele><time>2020-7-27T23:42:56Z</time></trkpt>
<trkpt lat="46.61048" lon="6.37515"><ele></ele><time>2020-7-27T23:42:59Z</time></trkpt>
<trkpt lat="46.61029" lon="6.37529"><ele></ele><time>2020-7-27T23:43:2Z</time></trkpt>
<trkpt lat="46.61008" lon="6.3754"><ele></ele><time>2020-7-27T23:43:5Z</time></trkpt>
<trkpt lat="46.60986" lon="6.37549"><ele></ele><time>2020-7-27T23:43:8Z</time></trkpt>
<trkpt lat="46.60975" lon="6.37554"><ele></ele><time>2020-7-27T23:43:11Z</time></trkpt>
<trkpt lat="46.60953" lon="6.37566"><ele></ele><time>2020-7-27T23:43:14Z</time></trkpt>
<trkpt lat="46.60931" lon="6.37575"><ele></ele><time>2020-7-27T23:43:17Z</time></trkpt>
<trkpt lat="46.6091" lon="6.37583"><ele></ele><time>2020-7-27T23:43:20Z</time></trkpt>
<trkpt lat="46.60899" lon="6.37587"><ele></ele><time>2020-7-27T23:43:23Z</time></trkpt>
<trkpt lat="46.60879" lon="6.37597"><ele></ele><time>2020-7-27T23:43:26Z</time></trkpt>
<trkpt lat="46.60858" lon="6.37608"><ele></ele><time>2020-7-27T23:43:29Z</time></trkpt>
<trkpt lat="46.60848" lon="6.37614"><ele></ele><time>2020-7-27T23:43:32Z</time></trkpt>
<trkpt lat="46.60827" lon="6.37625"><ele></ele><time>2020-7-27T23:43:35Z</time></trkpt>
<trkpt lat="46.60807" lon="6.37636"><ele></ele><time>2020-7-27T23:43:38Z</time></trkpt>
<trkpt lat="46.60788" lon="6.37646"><ele></ele><time>2020-7-27T23:43:41Z</time></trkpt>
<trkpt lat="46.6077" lon="6.37656"><ele></ele><time>2020-7-27T23:43:44Z</time></trkpt>
<trkpt lat="46.60762" lon="6.37661"><ele></ele><time>2020-7-27T23:43:47Z</time></trkpt>
<trkpt lat="46.60744" lon="6.37681"><ele></ele><time>2020-7-27T23:43:50Z</time></trkpt>
<trkpt lat="46.60735" lon="6.37692"><ele></ele><time>2020-7-27T23:43:53Z</time></trkpt>
<trkpt lat="46.60716" lon="6.37688"><ele></ele><time>2020-7-27T23:43:56Z</time></trkpt>
<trkpt lat="46.60712" lon="6.37685"><ele></ele><time>2020-7-27T23:43:59Z</time></trkpt>
<trkpt lat="46.60706" lon="6.37679"><ele></ele><time>2020-7-27T23:44:2Z</time></trkpt>
<trkpt lat="46.60687" lon="6.37668"><ele></ele><time>2020-7-27T23:44:5Z</time></trkpt>
<trkpt lat="46.60678" lon="6.37664"><ele></ele><time>2020-7-27T23:44:8Z</time></trkpt>
<trkpt lat="46.60661" lon="6.37662"><ele></ele><time>2020-7-27T23:44:11Z</time></trkpt>
<trkpt lat="46.60652" lon="6.37659"><ele></ele><time>2020-7-27T23:44:14Z</time></trkpt>
<trkpt lat="46.6064" lon="6.37656"><ele></ele><time>2020-7-27T23:44:17Z</time></trkpt>
<trkpt lat="46.60637" lon="6.37655"><ele></ele><time>2020-7-27T23:44:20Z</time></trkpt>
<trkpt lat="46.60618" lon="6.37644"><ele></ele><time>2020-7-27T23:44:23Z</time></trkpt>
<trkpt lat="46.60615" lon="6.37641"><ele></ele><time>2020-7-27T23:44:26Z</time></trkpt>
<trkpt lat="46.60583" lon="6.37617"><ele></ele><time>2020-7-27T23:44:29Z</time></trkpt>
<trkpt lat="46.60576" lon="6.37613"><ele></ele><time>2020-7-27T23:44:32Z</time></trkpt>
<trkpt lat="46.60565" lon="6.37607"><ele></ele><time>2020-7-27T23:44:35Z</time></trkpt>
<trkpt lat="46.60552" lon="6.376"><ele></ele><time>2020-7-27T23:44:38Z</time></trkpt>
<trkpt lat="46.60537" lon="6.37591"><ele></ele><time>2020-7-27T23:44:41Z</time></trkpt>
<trkpt lat="46.60519" lon="6.37581"><ele></ele><time>2020-7-27T23:44:44Z</time></trkpt>
<trkpt lat="46.60509" lon="6.37575"><ele></ele><time>2020-7-27T23:44:47Z</time></trkpt>
<trkpt lat="46.60488" lon="6.37562"><ele></ele><time>2020-7-27T23:44:50Z</time></trkpt>
<trkpt lat="46.60481" lon="6.37557"><ele></ele><time>2020-7-27T23:44:53Z</time></trkpt>
<trkpt lat="46.60465" lon="6.37543"><ele></ele><time>2020-7-27T23:44:56Z</time></trkpt>
<trkpt lat="46.6045" lon="6.37527"><ele></ele><time>2020-7-27T23:44:59Z</time></trkpt>
<trkpt lat="46.60435" lon="6.37513"><ele></ele><time>2020-7-27T23:45:2Z</time></trkpt>
<trkpt lat="46.60428" lon="6.37507"><ele></ele><time>2020-7-27T23:45:5Z</time></trkpt>
<trkpt lat="46.60412" lon="6.37494"><ele></ele><time>2020-7-27T23:45:8Z</time></trkpt>
<trkpt lat="46.60401" lon="6.37486"><ele></ele><time>2020-7-27T23:45:11Z</time></trkpt>
<trkpt lat="46.60382" lon="6.37472"><ele></ele><time>2020-7-27T23:45:14Z</time></trkpt>
<trkpt lat="46.60364" lon="6.37458"><ele></ele><time>2020-7-27T23:45:17Z</time></trkpt>
<trkpt lat="46.60346" lon="6.37446"><ele></ele><time>2020-7-27T23:45:20Z</time></trkpt>
<trkpt lat="46.6032" lon="6.37447"><ele></ele><time>2020-7-27T23:45:23Z</time></trkpt>
<trkpt lat="46.60306" lon="6.37451"><ele></ele><time>2020-7-27T23:45:26Z</time></trkpt>
<trkpt lat="46.60285" lon="6.37447"><ele></ele><time>2020-7-27T23:45:29Z</time></trkpt>
<trkpt lat="46.60267" lon="6.37448"><ele></ele><time>2020-7-27T23:45:32Z</time></trkpt>
<trkpt lat="46.6025" lon="6.37449"><ele></ele><time>2020-7-27T23:45:35Z</time></trkpt>
<trkpt lat="46.60232" lon="6.37446"><ele></ele><time>2020-7-27T23:45:38Z</time></trkpt>
<trkpt lat="46.60221" lon="6.3744"><ele></ele><time>2020-7-27T23:45:41Z</time></trkpt>
<trkpt lat="46.6021" lon="6.3743"><ele></ele><time>2020-7-27T23:45:44Z</time></trkpt>
<trkpt lat="46.60204" lon="6.37424"><ele></ele><time>2020-7-27T23:45:47Z</time></trkpt>
<trkpt lat="46.60208" lon="6.37411"><ele></ele><time>2020-7-27T23:45:50Z</time></trkpt>
<trkpt lat="46.60208" lon="6.37385"><ele></ele><time>2020-7-27T23:45:53Z</time></trkpt>
<trkpt lat="46.60208" lon="6.37378"><ele></ele><time>2020-7-27T23:45:56Z</time></trkpt>
<trkpt lat="46.60207" lon="6.37366"><ele></ele><time>2020-7-27T23:45:59Z</time></trkpt>
<trkpt lat="46.602" lon="6.37341"><ele></ele><time>2020-7-27T23:46:2Z</time></trkpt>
<trkpt lat="46.60185" lon="6.37323"><ele></ele><time>2020-7-27T23:46:5Z</time></trkpt>
<trkpt lat="46.60167" lon="6.37312"><ele></ele><time>2020-7-27T23:46:8Z</time></trkpt>
<trkpt lat="46.6016" lon="6.37307"><ele></ele><time>2020-7-27T23:46:11Z</time></trkpt>
<trkpt lat="46.60142" lon="6.37297"><ele></ele><time>2020-7-27T23:46:14Z</time></trkpt>
<trkpt lat="46.60125" lon="6.37287"><ele></ele><time>2020-7-27T23:46:17Z</time></trkpt>
<trkpt lat="46.60117" lon="6.3728"><ele></ele><time>2020-7-27T23:46:20Z</time></trkpt>
<trkpt lat="46.60103" lon="6.37256"><ele></ele><time>2020-7-27T23:46:23Z</time></trkpt>
<trkpt lat="46.60103" lon="6.37233"><ele></ele><time>2020-7-27T23:46:26Z</time></trkpt>
<trkpt lat="46.60109" lon="6.37208"><ele></ele><time>2020-7-27T23:46:29Z</time></trkpt>
<trkpt lat="46.60111" lon="6.37199"><ele></ele><time>2020-7-27T23:46:32Z</time></trkpt>
<trkpt lat="46.6012" lon="6.3717"><ele></ele><time>2020-7-27T23:46:35Z</time></trkpt>
<trkpt lat="46.60126" lon="6.3715"><ele></ele><time>2020-7-27T23:46:38Z</time></trkpt>
<trkpt lat="46.6013" lon="6.3713"><ele></ele><time>2020-7-27T23:46:41Z</time></trkpt>
<trkpt lat="46.6013" lon="6.37104"><ele></ele><time>2020-7-27T23:46:44Z</time></trkpt>
<trkpt lat="46.60127" lon="6.3709"><ele></ele><time>2020-7-27T23:46:47Z</time></trkpt>
<trkpt lat="46.60123" lon="6.37074"><ele></ele><time>2020-7-27T23:46:50Z</time></trkpt>
<trkpt lat="46.60118" lon="6.37053"><ele></ele><time>2020-7-27T23:46:53Z</time></trkpt>
<trkpt lat="46.60113" lon="6.37025"><ele></ele><time>2020-7-27T23:46:56Z</time></trkpt>
<trkpt lat="46.60114" lon="6.37021"><ele></ele><time>2020-7-27T23:46:59Z</time></trkpt>
<trkpt lat="46.60116" lon="6.37006"><ele></ele><time>2020-7-27T23:47:2Z</time></trkpt>
<trkpt lat="46.60117" lon="6.36989"><ele></ele><time>2020-7-27T23:47:5Z</time></trkpt>
<trkpt lat="46.60116" lon="6.3697"><ele></ele><time>2020-7-27T23:47:8Z</time></trkpt>
<trkpt lat="46.60114" lon="6.36952"><ele></ele><time>2020-7-27T23:47:11Z</time></trkpt>
<trkpt lat="46.60108" lon="6.36926"><ele></ele><time>2020-7-27T23:47:14Z</time></trkpt>
<trkpt lat="46.60106" lon="6.36921"><ele></ele><time>2020-7-27T23:47:17Z</time></trkpt>
<trkpt lat="46.60097" lon="6.36895"><ele></ele><time>2020-7-27T23:47:20Z</time></trkpt>
<trkpt lat="46.60089" lon="6.36878"><ele></ele><time>2020-7-27T23:47:23Z</time></trkpt>
<trkpt lat="46.60087" lon="6.36874"><ele></ele><time>2020-7-27T23:47:26Z</time></trkpt>
<trkpt lat="46.60083" lon="6.36868"><ele></ele><time>2020-7-27T23:47:29Z</time></trkpt>
<trkpt lat="46.60077" lon="6.36858"><ele></ele><time>2020-7-27T23:47:32Z</time></trkpt>
<trkpt lat="46.60071" lon="6.36848"><ele></ele><time>2020-7-27T23:47:35Z</time></trkpt>
<trkpt lat="46.60061" lon="6.36829"><ele></ele><time>2020-7-27T23:47:38Z</time></trkpt>
<trkpt lat="46.60051" lon="6.36827"><ele></ele><time>2020-7-27T23:47:41Z</time></trkpt>
<trkpt lat="46.60046" lon="6.36848"><ele></ele><time>2020-7-27T23:47:44Z</time></trkpt>
<trkpt lat="46.60044" lon="6.36877"><ele></ele><time>2020-7-27T23:47:47Z</time></trkpt>
<trkpt lat="46.60043" lon="6.36908"><ele></ele><time>2020-7-27T23:47:50Z</time></trkpt>
<trkpt lat="46.60042" lon="6.36937"><ele></ele><time>2020-7-27T23:47:53Z</time></trkpt>
<trkpt lat="46.60039" lon="6.36948"><ele></ele><time>2020-7-27T23:47:56Z</time></trkpt>
<trkpt lat="46.60039" lon="6.36949"><ele></ele><time>2020-7-27T23:47:59Z</time></trkpt>
<trkpt lat="46.60039" lon="6.36948"><ele></ele><time>2020-7-27T23:48:2Z</time></trkpt>
<trkpt lat="46.60037" lon="6.36948"><ele></ele><time>2020-7-27T23:48:5Z</time></trkpt>
</trkseg></trk></gpx>